<?xml version="1.0" encoding="UTF-8" standalone="no" ?>
<gpx xmlns="http://www.topografix.com/GPX/1/1" xmlns:xsi="http://www.w3.org/2001/XMLSchema-instance" xsi:schemaLocation="http://www.topografix.com/GPX/1/1 http://www.topografix.com/GPX/1/1/gpx.xsd" version="1.1" creator="VisuGPX - https://www.visugpx.com">
  <metadata>
    <name>Uble + Chalune, faces N</name>
  </metadata>
  <trk>
    <name><![CDATA[Uble + Chalune, faces N]]></name>
    <extensions>
      <line xmlns="http://www.topografix.com/GPX/gpx_style/0/2">
        <color>FF9D00</color>
      </line>
    </extensions>
    <trkseg>
      <trkpt lat="46.15553" lon="6.61737">
        <ele>1187.6</ele>
        <time>2021-12-15T09:59:03Z</time>
      </trkpt>
      <trkpt lat="46.15566" lon="6.61742">
        <ele>1184.7</ele>
        <time>2021-12-15T09:59:07Z</time>
      </trkpt>
      <trkpt lat="46.1558" lon="6.61751">
        <ele>1185</ele>
        <time>2021-12-15T09:59:16Z</time>
      </trkpt>
      <trkpt lat="46.15585" lon="6.61756">
        <ele>1188</ele>
        <time>2021-12-15T09:59:22Z</time>
      </trkpt>
      <trkpt lat="46.15591" lon="6.61759">
        <ele>1190</ele>
        <time>2021-12-15T09:59:26Z</time>
      </trkpt>
      <trkpt lat="46.15598" lon="6.6176">
        <ele>1187</ele>
        <time>2021-12-15T09:59:32Z</time>
      </trkpt>
      <trkpt lat="46.156" lon="6.61757">
        <ele>1185</ele>
        <time>2021-12-15T09:59:34Z</time>
      </trkpt>
      <trkpt lat="46.15605" lon="6.61757">
        <ele>1186</ele>
        <time>2021-12-15T09:59:36Z</time>
      </trkpt>
      <trkpt lat="46.15621" lon="6.61759">
        <ele>1183</ele>
        <time>2021-12-15T09:59:43Z</time>
      </trkpt>
      <trkpt lat="46.15621" lon="6.61753">
        <ele>1182</ele>
        <time>2021-12-15T09:59:46Z</time>
      </trkpt>
      <trkpt lat="46.15632" lon="6.61754">
        <ele>1185</ele>
        <time>2021-12-15T09:59:52Z</time>
      </trkpt>
      <trkpt lat="46.15634" lon="6.61752">
        <ele>1185</ele>
        <time>2021-12-15T09:59:57Z</time>
      </trkpt>
      <trkpt lat="46.15639" lon="6.61753">
        <ele>1178.4</ele>
        <time>2021-12-15T10:00:00Z</time>
      </trkpt>
      <trkpt lat="46.15635" lon="6.61754">
        <ele>1178</ele>
        <time>2021-12-15T10:00:03Z</time>
      </trkpt>
      <trkpt lat="46.15634" lon="6.61758">
        <ele>1177</ele>
        <time>2021-12-15T10:00:10Z</time>
      </trkpt>
      <trkpt lat="46.15631" lon="6.61756">
        <ele>1178.4</ele>
        <time>2021-12-15T10:00:16Z</time>
      </trkpt>
      <trkpt lat="46.15639" lon="6.6176">
        <ele>1181</ele>
        <time>2021-12-15T10:00:22Z</time>
      </trkpt>
      <trkpt lat="46.1564" lon="6.61757">
        <ele>1185</ele>
        <time>2021-12-15T10:00:27Z</time>
      </trkpt>
      <trkpt lat="46.15644" lon="6.61754">
        <ele>1185.7</ele>
        <time>2021-12-15T10:00:28Z</time>
      </trkpt>
      <trkpt lat="46.15645" lon="6.61758">
        <ele>1193.9</ele>
        <time>2021-12-15T10:00:29Z</time>
      </trkpt>
      <trkpt lat="46.15647" lon="6.61756">
        <ele>1196.6</ele>
        <time>2021-12-15T10:00:30Z</time>
      </trkpt>
      <trkpt lat="46.15652" lon="6.61759">
        <ele>1196.6</ele>
        <time>2021-12-15T10:00:31Z</time>
      </trkpt>
      <trkpt lat="46.15656" lon="6.61756">
        <ele>1192</ele>
        <time>2021-12-15T10:00:33Z</time>
      </trkpt>
      <trkpt lat="46.15659" lon="6.61757">
        <ele>1193.5</ele>
        <time>2021-12-15T10:00:34Z</time>
      </trkpt>
      <trkpt lat="46.15663" lon="6.61756">
        <ele>1192.9</ele>
        <time>2021-12-15T10:00:35Z</time>
      </trkpt>
      <trkpt lat="46.15667" lon="6.61761">
        <ele>1189</ele>
        <time>2021-12-15T10:00:38Z</time>
      </trkpt>
      <trkpt lat="46.15668" lon="6.61758">
        <ele>1188.2</ele>
        <time>2021-12-15T10:00:40Z</time>
      </trkpt>
      <trkpt lat="46.15676" lon="6.61756">
        <ele>1186</ele>
        <time>2021-12-15T10:00:45Z</time>
      </trkpt>
      <trkpt lat="46.1568" lon="6.61756">
        <ele>1185</ele>
        <time>2021-12-15T10:00:47Z</time>
      </trkpt>
      <trkpt lat="46.15679" lon="6.61758">
        <ele>1190.8</ele>
        <time>2021-12-15T10:00:49Z</time>
      </trkpt>
      <trkpt lat="46.15682" lon="6.61755">
        <ele>1186.8</ele>
        <time>2021-12-15T10:00:50Z</time>
      </trkpt>
      <trkpt lat="46.15685" lon="6.61755">
        <ele>1188</ele>
        <time>2021-12-15T10:00:52Z</time>
      </trkpt>
      <trkpt lat="46.157" lon="6.61759">
        <ele>1196</ele>
        <time>2021-12-15T10:01:03Z</time>
      </trkpt>
      <trkpt lat="46.15706" lon="6.61763">
        <ele>1194</ele>
        <time>2021-12-15T10:01:08Z</time>
      </trkpt>
      <trkpt lat="46.15711" lon="6.61764">
        <ele>1203</ele>
        <time>2021-12-15T10:01:14Z</time>
      </trkpt>
      <trkpt lat="46.15716" lon="6.61767">
        <ele>1200.9</ele>
        <time>2021-12-15T10:01:18Z</time>
      </trkpt>
      <trkpt lat="46.15717" lon="6.61764">
        <ele>1198</ele>
        <time>2021-12-15T10:01:20Z</time>
      </trkpt>
      <trkpt lat="46.15717" lon="6.61772">
        <ele>1196.6</ele>
        <time>2021-12-15T10:01:23Z</time>
      </trkpt>
      <trkpt lat="46.15719" lon="6.61774">
        <ele>1198</ele>
        <time>2021-12-15T10:01:25Z</time>
      </trkpt>
      <trkpt lat="46.15723" lon="6.61773">
        <ele>1196</ele>
        <time>2021-12-15T10:01:27Z</time>
      </trkpt>
      <trkpt lat="46.15735" lon="6.61777">
        <ele>1200</ele>
        <time>2021-12-15T10:01:36Z</time>
      </trkpt>
      <trkpt lat="46.15743" lon="6.61775">
        <ele>1195</ele>
        <time>2021-12-15T10:01:41Z</time>
      </trkpt>
      <trkpt lat="46.15745" lon="6.61778">
        <ele>1194</ele>
        <time>2021-12-15T10:01:43Z</time>
      </trkpt>
      <trkpt lat="46.15748" lon="6.61777">
        <ele>1195</ele>
        <time>2021-12-15T10:01:46Z</time>
      </trkpt>
      <trkpt lat="46.15751" lon="6.6178">
        <ele>1193</ele>
        <time>2021-12-15T10:01:50Z</time>
      </trkpt>
      <trkpt lat="46.15756" lon="6.61779">
        <ele>1182</ele>
        <time>2021-12-15T10:01:56Z</time>
      </trkpt>
      <trkpt lat="46.15791" lon="6.61781">
        <ele>1190.7</ele>
        <time>2021-12-15T10:02:19Z</time>
      </trkpt>
      <trkpt lat="46.15792" lon="6.61786">
        <ele>1199.5</ele>
        <time>2021-12-15T10:02:20Z</time>
      </trkpt>
      <trkpt lat="46.15795" lon="6.61789">
        <ele>1200</ele>
        <time>2021-12-15T10:02:22Z</time>
      </trkpt>
      <trkpt lat="46.15795" lon="6.61794">
        <ele>1204</ele>
        <time>2021-12-15T10:02:24Z</time>
      </trkpt>
      <trkpt lat="46.15798" lon="6.61795">
        <ele>1203</ele>
        <time>2021-12-15T10:02:26Z</time>
      </trkpt>
      <trkpt lat="46.15814" lon="6.61796">
        <ele>1195.7</ele>
        <time>2021-12-15T10:02:35Z</time>
      </trkpt>
      <trkpt lat="46.1582" lon="6.61802">
        <ele>1192</ele>
        <time>2021-12-15T10:02:40Z</time>
      </trkpt>
      <trkpt lat="46.15826" lon="6.61805">
        <ele>1194</ele>
        <time>2021-12-15T10:02:44Z</time>
      </trkpt>
      <trkpt lat="46.15828" lon="6.61809">
        <ele>1198</ele>
        <time>2021-12-15T10:02:48Z</time>
      </trkpt>
      <trkpt lat="46.15831" lon="6.61806">
        <ele>1197.9</ele>
        <time>2021-12-15T10:02:51Z</time>
      </trkpt>
      <trkpt lat="46.15836" lon="6.61805">
        <ele>1198.9</ele>
        <time>2021-12-15T10:02:52Z</time>
      </trkpt>
      <trkpt lat="46.15842" lon="6.618">
        <ele>1188.7</ele>
        <time>2021-12-15T10:02:55Z</time>
      </trkpt>
      <trkpt lat="46.15839" lon="6.61803">
        <ele>1191.7</ele>
        <time>2021-12-15T10:02:56Z</time>
      </trkpt>
      <trkpt lat="46.15842" lon="6.61805">
        <ele>1192.8</ele>
        <time>2021-12-15T10:02:57Z</time>
      </trkpt>
      <trkpt lat="46.15844" lon="6.61802">
        <ele>1192</ele>
        <time>2021-12-15T10:02:59Z</time>
      </trkpt>
      <trkpt lat="46.15855" lon="6.618">
        <ele>1192</ele>
        <time>2021-12-15T10:03:06Z</time>
      </trkpt>
      <trkpt lat="46.15858" lon="6.618">
        <ele>1201</ele>
        <time>2021-12-15T10:03:11Z</time>
      </trkpt>
      <trkpt lat="46.15865" lon="6.61806">
        <ele>1202</ele>
        <time>2021-12-15T10:03:15Z</time>
      </trkpt>
      <trkpt lat="46.15869" lon="6.61807">
        <ele>1200.3</ele>
        <time>2021-12-15T10:03:19Z</time>
      </trkpt>
      <trkpt lat="46.15874" lon="6.61802">
        <ele>1199.4</ele>
        <time>2021-12-15T10:03:23Z</time>
      </trkpt>
      <trkpt lat="46.15875" lon="6.61805">
        <ele>1202</ele>
        <time>2021-12-15T10:03:24Z</time>
      </trkpt>
      <trkpt lat="46.15878" lon="6.61807">
        <ele>1206</ele>
        <time>2021-12-15T10:03:26Z</time>
      </trkpt>
      <trkpt lat="46.15883" lon="6.61801">
        <ele>1203</ele>
        <time>2021-12-15T10:03:31Z</time>
      </trkpt>
      <trkpt lat="46.15891" lon="6.61799">
        <ele>1208</ele>
        <time>2021-12-15T10:03:35Z</time>
      </trkpt>
      <trkpt lat="46.15897" lon="6.61794">
        <ele>1205</ele>
        <time>2021-12-15T10:03:42Z</time>
      </trkpt>
      <trkpt lat="46.15905" lon="6.61792">
        <ele>1205</ele>
        <time>2021-12-15T10:03:45Z</time>
      </trkpt>
      <trkpt lat="46.15909" lon="6.61799">
        <ele>1208</ele>
        <time>2021-12-15T10:03:52Z</time>
      </trkpt>
      <trkpt lat="46.15926" lon="6.61804">
        <ele>1210</ele>
        <time>2021-12-15T10:04:02Z</time>
      </trkpt>
      <trkpt lat="46.15929" lon="6.61802">
        <ele>1210</ele>
        <time>2021-12-15T10:04:04Z</time>
      </trkpt>
      <trkpt lat="46.15933" lon="6.61802">
        <ele>1210</ele>
        <time>2021-12-15T10:04:06Z</time>
      </trkpt>
      <trkpt lat="46.15953" lon="6.6179">
        <ele>1206</ele>
        <time>2021-12-15T10:04:23Z</time>
      </trkpt>
      <trkpt lat="46.15959" lon="6.61793">
        <ele>1211</ele>
        <time>2021-12-15T10:04:27Z</time>
      </trkpt>
      <trkpt lat="46.15962" lon="6.6179">
        <ele>1208</ele>
        <time>2021-12-15T10:04:29Z</time>
      </trkpt>
      <trkpt lat="46.15964" lon="6.61786">
        <ele>1204</ele>
        <time>2021-12-15T10:04:33Z</time>
      </trkpt>
      <trkpt lat="46.1597" lon="6.61783">
        <ele>1205</ele>
        <time>2021-12-15T10:04:43Z</time>
      </trkpt>
      <trkpt lat="46.15978" lon="6.61784">
        <ele>1218</ele>
        <time>2021-12-15T10:04:53Z</time>
      </trkpt>
      <trkpt lat="46.15985" lon="6.61777">
        <ele>1215</ele>
        <time>2021-12-15T10:04:54Z</time>
      </trkpt>
      <trkpt lat="46.15986" lon="6.61779">
        <ele>1211</ele>
        <time>2021-12-15T10:04:59Z</time>
      </trkpt>
      <trkpt lat="46.1599" lon="6.61788">
        <ele>1218.6</ele>
        <time>2021-12-15T10:05:11Z</time>
      </trkpt>
      <trkpt lat="46.15992" lon="6.61784">
        <ele>1220</ele>
        <time>2021-12-15T10:05:13Z</time>
      </trkpt>
      <trkpt lat="46.15992" lon="6.6178">
        <ele>1221</ele>
        <time>2021-12-15T10:05:17Z</time>
      </trkpt>
      <trkpt lat="46.16" lon="6.61757">
        <ele>1227</ele>
        <time>2021-12-15T10:05:29Z</time>
      </trkpt>
      <trkpt lat="46.16003" lon="6.61759">
        <ele>1228</ele>
        <time>2021-12-15T10:05:33Z</time>
      </trkpt>
      <trkpt lat="46.16" lon="6.61754">
        <ele>1235.8</ele>
        <time>2021-12-15T10:05:38Z</time>
      </trkpt>
      <trkpt lat="46.16006" lon="6.61757">
        <ele>1234</ele>
        <time>2021-12-15T10:05:39Z</time>
      </trkpt>
      <trkpt lat="46.16009" lon="6.6175">
        <ele>1228.8</ele>
        <time>2021-12-15T10:05:43Z</time>
      </trkpt>
      <trkpt lat="46.16014" lon="6.6175">
        <ele>1228</ele>
        <time>2021-12-15T10:05:44Z</time>
      </trkpt>
      <trkpt lat="46.16013" lon="6.61747">
        <ele>1229.6</ele>
        <time>2021-12-15T10:05:46Z</time>
      </trkpt>
      <trkpt lat="46.16019" lon="6.61747">
        <ele>1233</ele>
        <time>2021-12-15T10:05:47Z</time>
      </trkpt>
      <trkpt lat="46.16024" lon="6.61744">
        <ele>1232.9</ele>
        <time>2021-12-15T10:05:48Z</time>
      </trkpt>
      <trkpt lat="46.16024" lon="6.6174">
        <ele>1233.3</ele>
        <time>2021-12-15T10:05:49Z</time>
      </trkpt>
      <trkpt lat="46.16021" lon="6.61741">
        <ele>1234</ele>
        <time>2021-12-15T10:05:50Z</time>
      </trkpt>
      <trkpt lat="46.16032" lon="6.61729">
        <ele>1226</ele>
        <time>2021-12-15T10:06:00Z</time>
      </trkpt>
      <trkpt lat="46.16029" lon="6.61728">
        <ele>1222.6</ele>
        <time>2021-12-15T10:06:03Z</time>
      </trkpt>
      <trkpt lat="46.16025" lon="6.61731">
        <ele>1223.8</ele>
        <time>2021-12-15T10:06:04Z</time>
      </trkpt>
      <trkpt lat="46.16016" lon="6.61731">
        <ele>1228</ele>
        <time>2021-12-15T10:06:13Z</time>
      </trkpt>
      <trkpt lat="46.16015" lon="6.61734">
        <ele>1231.3</ele>
        <time>2021-12-15T10:06:15Z</time>
      </trkpt>
      <trkpt lat="46.16015" lon="6.61738">
        <ele>1229</ele>
        <time>2021-12-15T10:06:17Z</time>
      </trkpt>
      <trkpt lat="46.1604" lon="6.61707">
        <ele>1239.2</ele>
        <time>2021-12-15T10:06:28Z</time>
      </trkpt>
      <trkpt lat="46.16038" lon="6.61704">
        <ele>1238</ele>
        <time>2021-12-15T10:06:31Z</time>
      </trkpt>
      <trkpt lat="46.1604" lon="6.61703">
        <ele>1242</ele>
        <time>2021-12-15T10:06:34Z</time>
      </trkpt>
      <trkpt lat="46.1607" lon="6.61716">
        <ele>1238.2</ele>
        <time>2021-12-15T10:07:01Z</time>
      </trkpt>
      <trkpt lat="46.16072" lon="6.61716">
        <ele>1239</ele>
        <time>2021-12-15T10:07:02Z</time>
      </trkpt>
      <trkpt lat="46.16075" lon="6.61719">
        <ele>1238.3</ele>
        <time>2021-12-15T10:07:04Z</time>
      </trkpt>
      <trkpt lat="46.16079" lon="6.6172">
        <ele>1238</ele>
        <time>2021-12-15T10:07:06Z</time>
      </trkpt>
      <trkpt lat="46.16082" lon="6.61719">
        <ele>1236.8</ele>
        <time>2021-12-15T10:07:08Z</time>
      </trkpt>
      <trkpt lat="46.1609" lon="6.61707">
        <ele>1233</ele>
        <time>2021-12-15T10:07:16Z</time>
      </trkpt>
      <trkpt lat="46.16102" lon="6.61702">
        <ele>1231</ele>
        <time>2021-12-15T10:07:24Z</time>
      </trkpt>
      <trkpt lat="46.16102" lon="6.61705">
        <ele>1235.2</ele>
        <time>2021-12-15T10:07:28Z</time>
      </trkpt>
      <trkpt lat="46.16103" lon="6.617">
        <ele>1230</ele>
        <time>2021-12-15T10:07:30Z</time>
      </trkpt>
      <trkpt lat="46.16104" lon="6.61696">
        <ele>1227</ele>
        <time>2021-12-15T10:07:33Z</time>
      </trkpt>
      <trkpt lat="46.16112" lon="6.61693">
        <ele>1232</ele>
        <time>2021-12-15T10:07:37Z</time>
      </trkpt>
      <trkpt lat="46.16115" lon="6.6169">
        <ele>1230</ele>
        <time>2021-12-15T10:07:40Z</time>
      </trkpt>
      <trkpt lat="46.16119" lon="6.61688">
        <ele>1232</ele>
        <time>2021-12-15T10:07:42Z</time>
      </trkpt>
      <trkpt lat="46.1612" lon="6.61685">
        <ele>1233</ele>
        <time>2021-12-15T10:07:46Z</time>
      </trkpt>
      <trkpt lat="46.16123" lon="6.61686">
        <ele>1243</ele>
        <time>2021-12-15T10:07:50Z</time>
      </trkpt>
      <trkpt lat="46.16128" lon="6.61684">
        <ele>1242</ele>
        <time>2021-12-15T10:07:55Z</time>
      </trkpt>
      <trkpt lat="46.16129" lon="6.61678">
        <ele>1240</ele>
        <time>2021-12-15T10:07:59Z</time>
      </trkpt>
      <trkpt lat="46.16133" lon="6.61671">
        <ele>1245</ele>
        <time>2021-12-15T10:08:03Z</time>
      </trkpt>
      <trkpt lat="46.16136" lon="6.61673">
        <ele>1248.5</ele>
        <time>2021-12-15T10:08:06Z</time>
      </trkpt>
      <trkpt lat="46.16139" lon="6.61671">
        <ele>1244</ele>
        <time>2021-12-15T10:08:07Z</time>
      </trkpt>
      <trkpt lat="46.16145" lon="6.61658">
        <ele>1246.7</ele>
        <time>2021-12-15T10:08:09Z</time>
      </trkpt>
      <trkpt lat="46.16145" lon="6.61669">
        <ele>1247</ele>
        <time>2021-12-15T10:08:11Z</time>
      </trkpt>
      <trkpt lat="46.16148" lon="6.61669">
        <ele>1249.5</ele>
        <time>2021-12-15T10:08:14Z</time>
      </trkpt>
      <trkpt lat="46.16148" lon="6.61664">
        <ele>1248.3</ele>
        <time>2021-12-15T10:08:15Z</time>
      </trkpt>
      <trkpt lat="46.1615" lon="6.61662">
        <ele>1250</ele>
        <time>2021-12-15T10:08:16Z</time>
      </trkpt>
      <trkpt lat="46.1615" lon="6.61658">
        <ele>1248</ele>
        <time>2021-12-15T10:08:21Z</time>
      </trkpt>
      <trkpt lat="46.16154" lon="6.61652">
        <ele>1241.4</ele>
        <time>2021-12-15T10:08:27Z</time>
      </trkpt>
      <trkpt lat="46.16164" lon="6.6165">
        <ele>1251</ele>
        <time>2021-12-15T10:08:34Z</time>
      </trkpt>
      <trkpt lat="46.16168" lon="6.61639">
        <ele>1252</ele>
        <time>2021-12-15T10:08:45Z</time>
      </trkpt>
      <trkpt lat="46.16169" lon="6.61632">
        <ele>1250.3</ele>
        <time>2021-12-15T10:08:48Z</time>
      </trkpt>
      <trkpt lat="46.16169" lon="6.61639">
        <ele>1257</ele>
        <time>2021-12-15T10:08:49Z</time>
      </trkpt>
      <trkpt lat="46.16171" lon="6.61633">
        <ele>1253</ele>
        <time>2021-12-15T10:08:51Z</time>
      </trkpt>
      <trkpt lat="46.16184" lon="6.61628">
        <ele>1257</ele>
        <time>2021-12-15T10:08:57Z</time>
      </trkpt>
      <trkpt lat="46.16186" lon="6.61635">
        <ele>1266.5</ele>
        <time>2021-12-15T10:09:05Z</time>
      </trkpt>
      <trkpt lat="46.16196" lon="6.61628">
        <ele>1258</ele>
        <time>2021-12-15T10:09:15Z</time>
      </trkpt>
      <trkpt lat="46.16198" lon="6.61624">
        <ele>1262.3</ele>
        <time>2021-12-15T10:09:17Z</time>
      </trkpt>
      <trkpt lat="46.16201" lon="6.61629">
        <ele>1261</ele>
        <time>2021-12-15T10:09:21Z</time>
      </trkpt>
      <trkpt lat="46.16202" lon="6.61635">
        <ele>1265</ele>
        <time>2021-12-15T10:09:26Z</time>
      </trkpt>
      <trkpt lat="46.16206" lon="6.61638">
        <ele>1266</ele>
        <time>2021-12-15T10:09:30Z</time>
      </trkpt>
      <trkpt lat="46.16208" lon="6.61635">
        <ele>1266.5</ele>
        <time>2021-12-15T10:09:31Z</time>
      </trkpt>
      <trkpt lat="46.16209" lon="6.6164">
        <ele>1268</ele>
        <time>2021-12-15T10:09:35Z</time>
      </trkpt>
      <trkpt lat="46.16215" lon="6.61643">
        <ele>1268</ele>
        <time>2021-12-15T10:09:39Z</time>
      </trkpt>
      <trkpt lat="46.16218" lon="6.61635">
        <ele>1267</ele>
        <time>2021-12-15T10:09:42Z</time>
      </trkpt>
      <trkpt lat="46.16222" lon="6.61641">
        <ele>1272</ele>
        <time>2021-12-15T10:09:48Z</time>
      </trkpt>
      <trkpt lat="46.16224" lon="6.61637">
        <ele>1273</ele>
        <time>2021-12-15T10:09:51Z</time>
      </trkpt>
      <trkpt lat="46.16232" lon="6.6164">
        <ele>1269</ele>
        <time>2021-12-15T10:09:57Z</time>
      </trkpt>
      <trkpt lat="46.16234" lon="6.61637">
        <ele>1267</ele>
        <time>2021-12-15T10:10:00Z</time>
      </trkpt>
      <trkpt lat="46.16231" lon="6.61638">
        <ele>1273.3</ele>
        <time>2021-12-15T10:10:02Z</time>
      </trkpt>
      <trkpt lat="46.16234" lon="6.61637">
        <ele>1272</ele>
        <time>2021-12-15T10:10:03Z</time>
      </trkpt>
      <trkpt lat="46.16232" lon="6.61638">
        <ele>1274.8</ele>
        <time>2021-12-15T10:10:05Z</time>
      </trkpt>
      <trkpt lat="46.1623" lon="6.61642">
        <ele>1275.9</ele>
        <time>2021-12-15T10:10:07Z</time>
      </trkpt>
      <trkpt lat="46.16233" lon="6.6164">
        <ele>1276.1</ele>
        <time>2021-12-15T10:10:08Z</time>
      </trkpt>
      <trkpt lat="46.16231" lon="6.61646">
        <ele>1275.2</ele>
        <time>2021-12-15T10:10:09Z</time>
      </trkpt>
      <trkpt lat="46.16234" lon="6.61644">
        <ele>1274.8</ele>
        <time>2021-12-15T10:10:10Z</time>
      </trkpt>
      <trkpt lat="46.16235" lon="6.61648">
        <ele>1278.2</ele>
        <time>2021-12-15T10:10:11Z</time>
      </trkpt>
      <trkpt lat="46.16244" lon="6.61641">
        <ele>1275</ele>
        <time>2021-12-15T10:10:15Z</time>
      </trkpt>
      <trkpt lat="46.16249" lon="6.61636">
        <ele>1275.3</ele>
        <time>2021-12-15T10:10:18Z</time>
      </trkpt>
      <trkpt lat="46.1625" lon="6.61633">
        <ele>1269.1</ele>
        <time>2021-12-15T10:10:19Z</time>
      </trkpt>
      <trkpt lat="46.1624" lon="6.61625">
        <ele>1263</ele>
        <time>2021-12-15T10:10:26Z</time>
      </trkpt>
      <trkpt lat="46.16239" lon="6.61621">
        <ele>1264</ele>
        <time>2021-12-15T10:10:29Z</time>
      </trkpt>
      <trkpt lat="46.16235" lon="6.61603">
        <ele>1278</ele>
        <time>2021-12-15T10:10:44Z</time>
      </trkpt>
      <trkpt lat="46.16231" lon="6.61606">
        <ele>1282.2</ele>
        <time>2021-12-15T10:10:49Z</time>
      </trkpt>
      <trkpt lat="46.16234" lon="6.61602">
        <ele>1280.6</ele>
        <time>2021-12-15T10:10:51Z</time>
      </trkpt>
      <trkpt lat="46.16239" lon="6.61588">
        <ele>1282</ele>
        <time>2021-12-15T10:10:59Z</time>
      </trkpt>
      <trkpt lat="46.16238" lon="6.61592">
        <ele>1292</ele>
        <time>2021-12-15T10:11:04Z</time>
      </trkpt>
      <trkpt lat="46.1624" lon="6.61595">
        <ele>1289</ele>
        <time>2021-12-15T10:11:07Z</time>
      </trkpt>
      <trkpt lat="46.1624" lon="6.616">
        <ele>1290</ele>
        <time>2021-12-15T10:11:10Z</time>
      </trkpt>
      <trkpt lat="46.16245" lon="6.61595">
        <ele>1295.2</ele>
        <time>2021-12-15T10:11:17Z</time>
      </trkpt>
      <trkpt lat="46.16247" lon="6.61592">
        <ele>1294.9</ele>
        <time>2021-12-15T10:11:20Z</time>
      </trkpt>
      <trkpt lat="46.16257" lon="6.61585">
        <ele>1293</ele>
        <time>2021-12-15T10:11:25Z</time>
      </trkpt>
      <trkpt lat="46.16262" lon="6.6159">
        <ele>1295</ele>
        <time>2021-12-15T10:11:30Z</time>
      </trkpt>
      <trkpt lat="46.16268" lon="6.61583">
        <ele>1298</ele>
        <time>2021-12-15T10:11:34Z</time>
      </trkpt>
      <trkpt lat="46.16275" lon="6.61579">
        <ele>1296.5</ele>
        <time>2021-12-15T10:11:37Z</time>
      </trkpt>
      <trkpt lat="46.16276" lon="6.61558">
        <ele>1310.6</ele>
        <time>2021-12-15T10:11:52Z</time>
      </trkpt>
      <trkpt lat="46.16269" lon="6.61552">
        <ele>1310.8</ele>
        <time>2021-12-15T10:11:54Z</time>
      </trkpt>
      <trkpt lat="46.16263" lon="6.6155">
        <ele>1308</ele>
        <time>2021-12-15T10:11:59Z</time>
      </trkpt>
      <trkpt lat="46.16264" lon="6.6154">
        <ele>1293</ele>
        <time>2021-12-15T10:12:08Z</time>
      </trkpt>
      <trkpt lat="46.16256" lon="6.61533">
        <ele>1307</ele>
        <time>2021-12-15T10:12:23Z</time>
      </trkpt>
      <trkpt lat="46.16256" lon="6.61529">
        <ele>1304</ele>
        <time>2021-12-15T10:12:25Z</time>
      </trkpt>
      <trkpt lat="46.16246" lon="6.61524">
        <ele>1323.6</ele>
        <time>2021-12-15T10:12:36Z</time>
      </trkpt>
      <trkpt lat="46.16242" lon="6.61525">
        <ele>1319</ele>
        <time>2021-12-15T10:12:41Z</time>
      </trkpt>
      <trkpt lat="46.16227" lon="6.61515">
        <ele>1310.3</ele>
        <time>2021-12-15T10:12:55Z</time>
      </trkpt>
      <trkpt lat="46.16229" lon="6.61512">
        <ele>1314</ele>
        <time>2021-12-15T10:12:58Z</time>
      </trkpt>
      <trkpt lat="46.1623" lon="6.61501">
        <ele>1315</ele>
        <time>2021-12-15T10:13:12Z</time>
      </trkpt>
      <trkpt lat="46.1623" lon="6.61496">
        <ele>1317.5</ele>
        <time>2021-12-15T10:13:14Z</time>
      </trkpt>
      <trkpt lat="46.16231" lon="6.61499">
        <ele>1321</ele>
        <time>2021-12-15T10:13:15Z</time>
      </trkpt>
      <trkpt lat="46.16235" lon="6.61486">
        <ele>1330.6</ele>
        <time>2021-12-15T10:13:22Z</time>
      </trkpt>
      <trkpt lat="46.16225" lon="6.61475">
        <ele>1332</ele>
        <time>2021-12-15T10:13:35Z</time>
      </trkpt>
      <trkpt lat="46.16224" lon="6.6147">
        <ele>1332</ele>
        <time>2021-12-15T10:13:38Z</time>
      </trkpt>
      <trkpt lat="46.16218" lon="6.61467">
        <ele>1334.9</ele>
        <time>2021-12-15T10:13:42Z</time>
      </trkpt>
      <trkpt lat="46.16216" lon="6.61464">
        <ele>1333</ele>
        <time>2021-12-15T10:13:45Z</time>
      </trkpt>
      <trkpt lat="46.16217" lon="6.61458">
        <ele>1341.2</ele>
        <time>2021-12-15T10:13:48Z</time>
      </trkpt>
      <trkpt lat="46.16211" lon="6.61455">
        <ele>1334.6</ele>
        <time>2021-12-15T10:13:53Z</time>
      </trkpt>
      <trkpt lat="46.16213" lon="6.6145">
        <ele>1332</ele>
        <time>2021-12-15T10:13:56Z</time>
      </trkpt>
      <trkpt lat="46.16216" lon="6.61452">
        <ele>1330</ele>
        <time>2021-12-15T10:14:01Z</time>
      </trkpt>
      <trkpt lat="46.16218" lon="6.61447">
        <ele>1328</ele>
        <time>2021-12-15T10:14:05Z</time>
      </trkpt>
      <trkpt lat="46.16221" lon="6.61449">
        <ele>1331</ele>
        <time>2021-12-15T10:14:07Z</time>
      </trkpt>
      <trkpt lat="46.1622" lon="6.61451">
        <ele>1333</ele>
        <time>2021-12-15T10:14:11Z</time>
      </trkpt>
      <trkpt lat="46.1622" lon="6.61444">
        <ele>1331</ele>
        <time>2021-12-15T10:14:20Z</time>
      </trkpt>
      <trkpt lat="46.16224" lon="6.61443">
        <ele>1335.2</ele>
        <time>2021-12-15T10:14:24Z</time>
      </trkpt>
      <trkpt lat="46.16222" lon="6.61447">
        <ele>1342</ele>
        <time>2021-12-15T10:14:25Z</time>
      </trkpt>
      <trkpt lat="46.16223" lon="6.61451">
        <ele>1342</ele>
        <time>2021-12-15T10:14:26Z</time>
      </trkpt>
      <trkpt lat="46.16215" lon="6.61462">
        <ele>1351</ele>
        <time>2021-12-15T10:14:30Z</time>
      </trkpt>
      <trkpt lat="46.1622" lon="6.61457">
        <ele>1350</ele>
        <time>2021-12-15T10:14:32Z</time>
      </trkpt>
      <trkpt lat="46.16226" lon="6.61455">
        <ele>1351.6</ele>
        <time>2021-12-15T10:14:34Z</time>
      </trkpt>
      <trkpt lat="46.16222" lon="6.61452">
        <ele>1350</ele>
        <time>2021-12-15T10:14:37Z</time>
      </trkpt>
      <trkpt lat="46.16225" lon="6.61449">
        <ele>1345</ele>
        <time>2021-12-15T10:14:44Z</time>
      </trkpt>
      <trkpt lat="46.16229" lon="6.61448">
        <ele>1342</ele>
        <time>2021-12-15T10:14:46Z</time>
      </trkpt>
      <trkpt lat="46.16234" lon="6.61444">
        <ele>1337.3</ele>
        <time>2021-12-15T10:14:50Z</time>
      </trkpt>
      <trkpt lat="46.16236" lon="6.61438">
        <ele>1336</ele>
        <time>2021-12-15T10:14:53Z</time>
      </trkpt>
      <trkpt lat="46.1624" lon="6.61435">
        <ele>1335.6</ele>
        <time>2021-12-15T10:14:54Z</time>
      </trkpt>
      <trkpt lat="46.16241" lon="6.61433">
        <ele>1335</ele>
        <time>2021-12-15T10:14:56Z</time>
      </trkpt>
      <trkpt lat="46.16241" lon="6.61435">
        <ele>1339</ele>
        <time>2021-12-15T10:14:59Z</time>
      </trkpt>
      <trkpt lat="46.16248" lon="6.61443">
        <ele>1349.3</ele>
        <time>2021-12-15T10:15:14Z</time>
      </trkpt>
      <trkpt lat="46.16251" lon="6.6144">
        <ele>1348</ele>
        <time>2021-12-15T10:15:16Z</time>
      </trkpt>
      <trkpt lat="46.16251" lon="6.61446">
        <ele>1350</ele>
        <time>2021-12-15T10:15:18Z</time>
      </trkpt>
      <trkpt lat="46.16261" lon="6.61441">
        <ele>1345</ele>
        <time>2021-12-15T10:15:23Z</time>
      </trkpt>
      <trkpt lat="46.16265" lon="6.61438">
        <ele>1348</ele>
        <time>2021-12-15T10:15:25Z</time>
      </trkpt>
      <trkpt lat="46.16268" lon="6.61439">
        <ele>1351</ele>
        <time>2021-12-15T10:15:28Z</time>
      </trkpt>
      <trkpt lat="46.16268" lon="6.61426">
        <ele>1351</ele>
        <time>2021-12-15T10:15:38Z</time>
      </trkpt>
      <trkpt lat="46.16266" lon="6.61423">
        <ele>1357</ele>
        <time>2021-12-15T10:15:40Z</time>
      </trkpt>
      <trkpt lat="46.16269" lon="6.6142">
        <ele>1359.4</ele>
        <time>2021-12-15T10:15:42Z</time>
      </trkpt>
      <trkpt lat="46.16271" lon="6.61424">
        <ele>1362</ele>
        <time>2021-12-15T10:15:43Z</time>
      </trkpt>
      <trkpt lat="46.16271" lon="6.61415">
        <ele>1361</ele>
        <time>2021-12-15T10:15:47Z</time>
      </trkpt>
      <trkpt lat="46.16266" lon="6.61406">
        <ele>1359</ele>
        <time>2021-12-15T10:15:55Z</time>
      </trkpt>
      <trkpt lat="46.16269" lon="6.61402">
        <ele>1358.3</ele>
        <time>2021-12-15T10:15:58Z</time>
      </trkpt>
      <trkpt lat="46.16267" lon="6.61406">
        <ele>1360</ele>
        <time>2021-12-15T10:15:59Z</time>
      </trkpt>
      <trkpt lat="46.1627" lon="6.61407">
        <ele>1356</ele>
        <time>2021-12-15T10:16:02Z</time>
      </trkpt>
      <trkpt lat="46.16273" lon="6.61406">
        <ele>1358</ele>
        <time>2021-12-15T10:16:05Z</time>
      </trkpt>
      <trkpt lat="46.16274" lon="6.61398">
        <ele>1359</ele>
        <time>2021-12-15T10:16:13Z</time>
      </trkpt>
      <trkpt lat="46.16284" lon="6.6139">
        <ele>1361.4</ele>
        <time>2021-12-15T10:16:25Z</time>
      </trkpt>
      <trkpt lat="46.16289" lon="6.61394">
        <ele>1363</ele>
        <time>2021-12-15T10:16:26Z</time>
      </trkpt>
      <trkpt lat="46.16293" lon="6.61393">
        <ele>1363</ele>
        <time>2021-12-15T10:16:31Z</time>
      </trkpt>
      <trkpt lat="46.16292" lon="6.61395">
        <ele>1374</ele>
        <time>2021-12-15T10:16:36Z</time>
      </trkpt>
      <trkpt lat="46.16295" lon="6.61393">
        <ele>1372.3</ele>
        <time>2021-12-15T10:16:38Z</time>
      </trkpt>
      <trkpt lat="46.16298" lon="6.61395">
        <ele>1373</ele>
        <time>2021-12-15T10:16:39Z</time>
      </trkpt>
      <trkpt lat="46.16303" lon="6.61392">
        <ele>1374</ele>
        <time>2021-12-15T10:16:40Z</time>
      </trkpt>
      <trkpt lat="46.16311" lon="6.61386">
        <ele>1367</ele>
        <time>2021-12-15T10:16:47Z</time>
      </trkpt>
      <trkpt lat="46.1631" lon="6.6138">
        <ele>1364</ele>
        <time>2021-12-15T10:16:50Z</time>
      </trkpt>
      <trkpt lat="46.16311" lon="6.61375">
        <ele>1369</ele>
        <time>2021-12-15T10:16:53Z</time>
      </trkpt>
      <trkpt lat="46.16307" lon="6.61378">
        <ele>1374</ele>
        <time>2021-12-15T10:16:56Z</time>
      </trkpt>
      <trkpt lat="46.16304" lon="6.61375">
        <ele>1378</ele>
        <time>2021-12-15T10:17:00Z</time>
      </trkpt>
      <trkpt lat="46.16307" lon="6.61369">
        <ele>1378</ele>
        <time>2021-12-15T10:17:05Z</time>
      </trkpt>
      <trkpt lat="46.16304" lon="6.61372">
        <ele>1373</ele>
        <time>2021-12-15T10:17:10Z</time>
      </trkpt>
      <trkpt lat="46.163" lon="6.6136">
        <ele>1378.1</ele>
        <time>2021-12-15T10:17:14Z</time>
      </trkpt>
      <trkpt lat="46.16296" lon="6.61359">
        <ele>1378.1</ele>
        <time>2021-12-15T10:17:15Z</time>
      </trkpt>
      <trkpt lat="46.16294" lon="6.61362">
        <ele>1386.2</ele>
        <time>2021-12-15T10:17:16Z</time>
      </trkpt>
      <trkpt lat="46.16298" lon="6.61358">
        <ele>1382.4</ele>
        <time>2021-12-15T10:17:17Z</time>
      </trkpt>
      <trkpt lat="46.16296" lon="6.61355">
        <ele>1384.9</ele>
        <time>2021-12-15T10:17:19Z</time>
      </trkpt>
      <trkpt lat="46.16294" lon="6.61362">
        <ele>1381</ele>
        <time>2021-12-15T10:17:21Z</time>
      </trkpt>
      <trkpt lat="46.16287" lon="6.61365">
        <ele>1379.8</ele>
        <time>2021-12-15T10:17:22Z</time>
      </trkpt>
      <trkpt lat="46.16283" lon="6.61366">
        <ele>1381.7</ele>
        <time>2021-12-15T10:17:23Z</time>
      </trkpt>
      <trkpt lat="46.16287" lon="6.61363">
        <ele>1381.8</ele>
        <time>2021-12-15T10:17:24Z</time>
      </trkpt>
      <trkpt lat="46.16286" lon="6.61359">
        <ele>1381.8</ele>
        <time>2021-12-15T10:17:25Z</time>
      </trkpt>
      <trkpt lat="46.16289" lon="6.61345">
        <ele>1381</ele>
        <time>2021-12-15T10:17:33Z</time>
      </trkpt>
      <trkpt lat="46.1629" lon="6.61349">
        <ele>1389.4</ele>
        <time>2021-12-15T10:17:36Z</time>
      </trkpt>
      <trkpt lat="46.16288" lon="6.61342">
        <ele>1386</ele>
        <time>2021-12-15T10:17:38Z</time>
      </trkpt>
      <trkpt lat="46.16282" lon="6.61337">
        <ele>1387</ele>
        <time>2021-12-15T10:17:41Z</time>
      </trkpt>
      <trkpt lat="46.16286" lon="6.61336">
        <ele>1385.5</ele>
        <time>2021-12-15T10:17:42Z</time>
      </trkpt>
      <trkpt lat="46.16281" lon="6.61326">
        <ele>1388.1</ele>
        <time>2021-12-15T10:17:47Z</time>
      </trkpt>
      <trkpt lat="46.16274" lon="6.61329">
        <ele>1388.1</ele>
        <time>2021-12-15T10:17:48Z</time>
      </trkpt>
      <trkpt lat="46.16271" lon="6.61326">
        <ele>1386</ele>
        <time>2021-12-15T10:17:51Z</time>
      </trkpt>
      <trkpt lat="46.16265" lon="6.61306">
        <ele>1396.6</ele>
        <time>2021-12-15T10:18:09Z</time>
      </trkpt>
      <trkpt lat="46.16267" lon="6.61303">
        <ele>1393.7</ele>
        <time>2021-12-15T10:18:10Z</time>
      </trkpt>
      <trkpt lat="46.16264" lon="6.61299">
        <ele>1395</ele>
        <time>2021-12-15T10:18:13Z</time>
      </trkpt>
      <trkpt lat="46.16261" lon="6.61303">
        <ele>1396</ele>
        <time>2021-12-15T10:18:17Z</time>
      </trkpt>
      <trkpt lat="46.16259" lon="6.61301">
        <ele>1395</ele>
        <time>2021-12-15T10:18:20Z</time>
      </trkpt>
      <trkpt lat="46.16243" lon="6.61298">
        <ele>1396</ele>
        <time>2021-12-15T10:18:34Z</time>
      </trkpt>
      <trkpt lat="46.16244" lon="6.61291">
        <ele>1392.6</ele>
        <time>2021-12-15T10:18:36Z</time>
      </trkpt>
      <trkpt lat="46.16242" lon="6.61286">
        <ele>1392</ele>
        <time>2021-12-15T10:18:39Z</time>
      </trkpt>
      <trkpt lat="46.16246" lon="6.61285">
        <ele>1391.9</ele>
        <time>2021-12-15T10:18:43Z</time>
      </trkpt>
      <trkpt lat="46.16239" lon="6.61278">
        <ele>1392</ele>
        <time>2021-12-15T10:18:46Z</time>
      </trkpt>
      <trkpt lat="46.16236" lon="6.61271">
        <ele>1409</ele>
        <time>2021-12-15T10:18:58Z</time>
      </trkpt>
      <trkpt lat="46.16228" lon="6.61269">
        <ele>1402</ele>
        <time>2021-12-15T10:19:04Z</time>
      </trkpt>
      <trkpt lat="46.16222" lon="6.61264">
        <ele>1399</ele>
        <time>2021-12-15T10:19:13Z</time>
      </trkpt>
      <trkpt lat="46.16209" lon="6.6126">
        <ele>1408</ele>
        <time>2021-12-15T10:19:27Z</time>
      </trkpt>
      <trkpt lat="46.16211" lon="6.61256">
        <ele>1411.5</ele>
        <time>2021-12-15T10:19:28Z</time>
      </trkpt>
      <trkpt lat="46.1621" lon="6.61259">
        <ele>1414.2</ele>
        <time>2021-12-15T10:19:29Z</time>
      </trkpt>
      <trkpt lat="46.16207" lon="6.61258">
        <ele>1414</ele>
        <time>2021-12-15T10:19:31Z</time>
      </trkpt>
      <trkpt lat="46.16201" lon="6.61251">
        <ele>1407</ele>
        <time>2021-12-15T10:19:37Z</time>
      </trkpt>
      <trkpt lat="46.16199" lon="6.61253">
        <ele>1403</ele>
        <time>2021-12-15T10:19:40Z</time>
      </trkpt>
      <trkpt lat="46.16189" lon="6.61244">
        <ele>1408.5</ele>
        <time>2021-12-15T10:19:46Z</time>
      </trkpt>
      <trkpt lat="46.16192" lon="6.61247">
        <ele>1411.6</ele>
        <time>2021-12-15T10:19:47Z</time>
      </trkpt>
      <trkpt lat="46.16189" lon="6.61245">
        <ele>1412</ele>
        <time>2021-12-15T10:19:49Z</time>
      </trkpt>
      <trkpt lat="46.162" lon="6.61252">
        <ele>1413.3</ele>
        <time>2021-12-15T10:19:54Z</time>
      </trkpt>
      <trkpt lat="46.16196" lon="6.61252">
        <ele>1412.7</ele>
        <time>2021-12-15T10:19:55Z</time>
      </trkpt>
      <trkpt lat="46.16191" lon="6.61255">
        <ele>1418.8</ele>
        <time>2021-12-15T10:19:57Z</time>
      </trkpt>
      <trkpt lat="46.16189" lon="6.61252">
        <ele>1417.2</ele>
        <time>2021-12-15T10:19:58Z</time>
      </trkpt>
      <trkpt lat="46.16182" lon="6.6125">
        <ele>1413</ele>
        <time>2021-12-15T10:20:00Z</time>
      </trkpt>
      <trkpt lat="46.16184" lon="6.61237">
        <ele>1409.9</ele>
        <time>2021-12-15T10:20:16Z</time>
      </trkpt>
      <trkpt lat="46.16187" lon="6.61233">
        <ele>1409</ele>
        <time>2021-12-15T10:20:18Z</time>
      </trkpt>
      <trkpt lat="46.1619" lon="6.61232">
        <ele>1412</ele>
        <time>2021-12-15T10:20:20Z</time>
      </trkpt>
      <trkpt lat="46.16189" lon="6.61237">
        <ele>1413</ele>
        <time>2021-12-15T10:20:23Z</time>
      </trkpt>
      <trkpt lat="46.16187" lon="6.61233">
        <ele>1415.9</ele>
        <time>2021-12-15T10:20:26Z</time>
      </trkpt>
      <trkpt lat="46.16189" lon="6.61238">
        <ele>1421.2</ele>
        <time>2021-12-15T10:20:27Z</time>
      </trkpt>
      <trkpt lat="46.16194" lon="6.61246">
        <ele>1418</ele>
        <time>2021-12-15T10:20:30Z</time>
      </trkpt>
      <trkpt lat="46.16198" lon="6.61246">
        <ele>1417</ele>
        <time>2021-12-15T10:20:33Z</time>
      </trkpt>
      <trkpt lat="46.16196" lon="6.61226">
        <ele>1406.2</ele>
        <time>2021-12-15T10:20:45Z</time>
      </trkpt>
      <trkpt lat="46.16194" lon="6.61225">
        <ele>1404</ele>
        <time>2021-12-15T10:20:47Z</time>
      </trkpt>
      <trkpt lat="46.16199" lon="6.61224">
        <ele>1417</ele>
        <time>2021-12-15T10:20:50Z</time>
      </trkpt>
      <trkpt lat="46.16201" lon="6.61221">
        <ele>1419</ele>
        <time>2021-12-15T10:20:53Z</time>
      </trkpt>
      <trkpt lat="46.16205" lon="6.61219">
        <ele>1423</ele>
        <time>2021-12-15T10:20:55Z</time>
      </trkpt>
      <trkpt lat="46.16208" lon="6.61211">
        <ele>1421.1</ele>
        <time>2021-12-15T10:20:57Z</time>
      </trkpt>
      <trkpt lat="46.16204" lon="6.61217">
        <ele>1423</ele>
        <time>2021-12-15T10:21:00Z</time>
      </trkpt>
      <trkpt lat="46.16209" lon="6.61213">
        <ele>1419.6</ele>
        <time>2021-12-15T10:21:01Z</time>
      </trkpt>
      <trkpt lat="46.16206" lon="6.61214">
        <ele>1418.6</ele>
        <time>2021-12-15T10:21:02Z</time>
      </trkpt>
      <trkpt lat="46.16193" lon="6.61184">
        <ele>1435</ele>
        <time>2021-12-15T10:21:28Z</time>
      </trkpt>
      <trkpt lat="46.16197" lon="6.61187">
        <ele>1440.4</ele>
        <time>2021-12-15T10:21:33Z</time>
      </trkpt>
      <trkpt lat="46.16193" lon="6.61183">
        <ele>1436.9</ele>
        <time>2021-12-15T10:21:34Z</time>
      </trkpt>
      <trkpt lat="46.16184" lon="6.61151">
        <ele>1427</ele>
        <time>2021-12-15T10:21:48Z</time>
      </trkpt>
      <trkpt lat="46.16178" lon="6.61134">
        <ele>1439</ele>
        <time>2021-12-15T10:22:07Z</time>
      </trkpt>
      <trkpt lat="46.16173" lon="6.61132">
        <ele>1442</ele>
        <time>2021-12-15T10:22:10Z</time>
      </trkpt>
      <trkpt lat="46.1617" lon="6.61128">
        <ele>1445</ele>
        <time>2021-12-15T10:22:13Z</time>
      </trkpt>
      <trkpt lat="46.16172" lon="6.61112">
        <ele>1433</ele>
        <time>2021-12-15T10:22:24Z</time>
      </trkpt>
      <trkpt lat="46.16168" lon="6.61109">
        <ele>1436.8</ele>
        <time>2021-12-15T10:22:27Z</time>
      </trkpt>
      <trkpt lat="46.16168" lon="6.61105">
        <ele>1436</ele>
        <time>2021-12-15T10:22:28Z</time>
      </trkpt>
      <trkpt lat="46.16174" lon="6.61105">
        <ele>1442</ele>
        <time>2021-12-15T10:22:31Z</time>
      </trkpt>
      <trkpt lat="46.16172" lon="6.61101">
        <ele>1446</ele>
        <time>2021-12-15T10:22:34Z</time>
      </trkpt>
      <trkpt lat="46.16167" lon="6.611">
        <ele>1446</ele>
        <time>2021-12-15T10:22:37Z</time>
      </trkpt>
      <trkpt lat="46.16167" lon="6.61104">
        <ele>1446.4</ele>
        <time>2021-12-15T10:22:39Z</time>
      </trkpt>
      <trkpt lat="46.16162" lon="6.61096">
        <ele>1437</ele>
        <time>2021-12-15T10:22:43Z</time>
      </trkpt>
      <trkpt lat="46.16156" lon="6.61092">
        <ele>1440</ele>
        <time>2021-12-15T10:22:48Z</time>
      </trkpt>
      <trkpt lat="46.16151" lon="6.61092">
        <ele>1444</ele>
        <time>2021-12-15T10:22:52Z</time>
      </trkpt>
      <trkpt lat="46.16148" lon="6.61088">
        <ele>1448</ele>
        <time>2021-12-15T10:22:56Z</time>
      </trkpt>
      <trkpt lat="46.16144" lon="6.61081">
        <ele>1447.5</ele>
        <time>2021-12-15T10:22:59Z</time>
      </trkpt>
      <trkpt lat="46.16138" lon="6.61082">
        <ele>1449.8</ele>
        <time>2021-12-15T10:23:03Z</time>
      </trkpt>
      <trkpt lat="46.16145" lon="6.61079">
        <ele>1453</ele>
        <time>2021-12-15T10:23:05Z</time>
      </trkpt>
      <trkpt lat="46.16143" lon="6.61074">
        <ele>1458</ele>
        <time>2021-12-15T10:23:08Z</time>
      </trkpt>
      <trkpt lat="46.16135" lon="6.61074">
        <ele>1461</ele>
        <time>2021-12-15T10:23:15Z</time>
      </trkpt>
      <trkpt lat="46.1613" lon="6.61075">
        <ele>1459</ele>
        <time>2021-12-15T10:23:22Z</time>
      </trkpt>
      <trkpt lat="46.16122" lon="6.61071">
        <ele>1463</ele>
        <time>2021-12-15T10:23:28Z</time>
      </trkpt>
      <trkpt lat="46.16121" lon="6.61066">
        <ele>1464</ele>
        <time>2021-12-15T10:23:32Z</time>
      </trkpt>
      <trkpt lat="46.16125" lon="6.61062">
        <ele>1464.9</ele>
        <time>2021-12-15T10:23:34Z</time>
      </trkpt>
      <trkpt lat="46.16123" lon="6.61064">
        <ele>1462.6</ele>
        <time>2021-12-15T10:23:35Z</time>
      </trkpt>
      <trkpt lat="46.16119" lon="6.61058">
        <ele>1460</ele>
        <time>2021-12-15T10:23:40Z</time>
      </trkpt>
      <trkpt lat="46.16125" lon="6.61044">
        <ele>1462.8</ele>
        <time>2021-12-15T10:23:49Z</time>
      </trkpt>
      <trkpt lat="46.1612" lon="6.61044">
        <ele>1455</ele>
        <time>2021-12-15T10:23:52Z</time>
      </trkpt>
      <trkpt lat="46.16117" lon="6.61036">
        <ele>1451.4</ele>
        <time>2021-12-15T10:23:59Z</time>
      </trkpt>
      <trkpt lat="46.16119" lon="6.61032">
        <ele>1460</ele>
        <time>2021-12-15T10:24:02Z</time>
      </trkpt>
      <trkpt lat="46.16115" lon="6.61024">
        <ele>1461</ele>
        <time>2021-12-15T10:24:04Z</time>
      </trkpt>
      <trkpt lat="46.16113" lon="6.61016">
        <ele>1458</ele>
        <time>2021-12-15T10:24:11Z</time>
      </trkpt>
      <trkpt lat="46.1611" lon="6.61011">
        <ele>1452</ele>
        <time>2021-12-15T10:24:17Z</time>
      </trkpt>
      <trkpt lat="46.1611" lon="6.61007">
        <ele>1451.9</ele>
        <time>2021-12-15T10:24:19Z</time>
      </trkpt>
      <trkpt lat="46.16106" lon="6.60996">
        <ele>1456</ele>
        <time>2021-12-15T10:24:26Z</time>
      </trkpt>
      <trkpt lat="46.16105" lon="6.60988">
        <ele>1462</ele>
        <time>2021-12-15T10:24:31Z</time>
      </trkpt>
      <trkpt lat="46.16101" lon="6.60982">
        <ele>1457</ele>
        <time>2021-12-15T10:24:37Z</time>
      </trkpt>
      <trkpt lat="46.16104" lon="6.60972">
        <ele>1462</ele>
        <time>2021-12-15T10:24:44Z</time>
      </trkpt>
      <trkpt lat="46.16099" lon="6.60961">
        <ele>1464</ele>
        <time>2021-12-15T10:24:55Z</time>
      </trkpt>
      <trkpt lat="46.16093" lon="6.60957">
        <ele>1462</ele>
        <time>2021-12-15T10:26:31Z</time>
      </trkpt>
      <trkpt lat="46.16089" lon="6.60953">
        <ele>1456</ele>
        <time>2021-12-15T10:27:12Z</time>
      </trkpt>
      <trkpt lat="46.16084" lon="6.60953">
        <ele>1466</ele>
        <time>2021-12-15T10:27:23Z</time>
      </trkpt>
      <trkpt lat="46.16088" lon="6.60952">
        <ele>1466</ele>
        <time>2021-12-15T10:27:26Z</time>
      </trkpt>
      <trkpt lat="46.16089" lon="6.60961">
        <ele>1464</ele>
        <time>2021-12-15T10:28:07Z</time>
      </trkpt>
      <trkpt lat="46.16095" lon="6.60952">
        <ele>1466</ele>
        <time>2021-12-15T10:28:13Z</time>
      </trkpt>
      <trkpt lat="46.16092" lon="6.60956">
        <ele>1464</ele>
        <time>2021-12-15T10:28:19Z</time>
      </trkpt>
      <trkpt lat="46.16092" lon="6.60959">
        <ele>1455</ele>
        <time>2021-12-15T10:28:38Z</time>
      </trkpt>
      <trkpt lat="46.16093" lon="6.60946">
        <ele>1464</ele>
        <time>2021-12-15T10:29:22Z</time>
      </trkpt>
      <trkpt lat="46.16091" lon="6.60936">
        <ele>1473</ele>
        <time>2021-12-15T10:29:30Z</time>
      </trkpt>
      <trkpt lat="46.16096" lon="6.60926">
        <ele>1471</ele>
        <time>2021-12-15T10:29:42Z</time>
      </trkpt>
      <trkpt lat="46.16102" lon="6.60921">
        <ele>1472</ele>
        <time>2021-12-15T10:29:49Z</time>
      </trkpt>
      <trkpt lat="46.161" lon="6.60918">
        <ele>1470.7</ele>
        <time>2021-12-15T10:29:50Z</time>
      </trkpt>
      <trkpt lat="46.16096" lon="6.60902">
        <ele>1475</ele>
        <time>2021-12-15T10:30:03Z</time>
      </trkpt>
      <trkpt lat="46.16094" lon="6.60899">
        <ele>1482</ele>
        <time>2021-12-15T10:30:07Z</time>
      </trkpt>
      <trkpt lat="46.16088" lon="6.60896">
        <ele>1484</ele>
        <time>2021-12-15T10:30:11Z</time>
      </trkpt>
      <trkpt lat="46.16086" lon="6.60891">
        <ele>1484</ele>
        <time>2021-12-15T10:30:13Z</time>
      </trkpt>
      <trkpt lat="46.16087" lon="6.60888">
        <ele>1487</ele>
        <time>2021-12-15T10:30:16Z</time>
      </trkpt>
      <trkpt lat="46.16079" lon="6.6088">
        <ele>1479</ele>
        <time>2021-12-15T10:30:24Z</time>
      </trkpt>
      <trkpt lat="46.16079" lon="6.60875">
        <ele>1479</ele>
        <time>2021-12-15T10:30:27Z</time>
      </trkpt>
      <trkpt lat="46.16076" lon="6.60868">
        <ele>1479</ele>
        <time>2021-12-15T10:30:38Z</time>
      </trkpt>
      <trkpt lat="46.16077" lon="6.60862">
        <ele>1481</ele>
        <time>2021-12-15T10:30:44Z</time>
      </trkpt>
      <trkpt lat="46.16075" lon="6.60855">
        <ele>1484</ele>
        <time>2021-12-15T10:30:50Z</time>
      </trkpt>
      <trkpt lat="46.16076" lon="6.6085">
        <ele>1480</ele>
        <time>2021-12-15T10:30:53Z</time>
      </trkpt>
      <trkpt lat="46.16085" lon="6.60843">
        <ele>1487</ele>
        <time>2021-12-15T10:31:05Z</time>
      </trkpt>
      <trkpt lat="46.16089" lon="6.60834">
        <ele>1483</ele>
        <time>2021-12-15T10:31:11Z</time>
      </trkpt>
      <trkpt lat="46.16091" lon="6.60832">
        <ele>1483</ele>
        <time>2021-12-15T10:31:13Z</time>
      </trkpt>
      <trkpt lat="46.16087" lon="6.60825">
        <ele>1480</ele>
        <time>2021-12-15T10:31:18Z</time>
      </trkpt>
      <trkpt lat="46.1609" lon="6.60823">
        <ele>1483</ele>
        <time>2021-12-15T10:31:21Z</time>
      </trkpt>
      <trkpt lat="46.1609" lon="6.60814">
        <ele>1492</ele>
        <time>2021-12-15T10:31:27Z</time>
      </trkpt>
      <trkpt lat="46.16087" lon="6.60802">
        <ele>1486</ele>
        <time>2021-12-15T10:31:39Z</time>
      </trkpt>
      <trkpt lat="46.16079" lon="6.60789">
        <ele>1486.6</ele>
        <time>2021-12-15T10:31:50Z</time>
      </trkpt>
      <trkpt lat="46.16083" lon="6.60784">
        <ele>1494</ele>
        <time>2021-12-15T10:31:54Z</time>
      </trkpt>
      <trkpt lat="46.16082" lon="6.60776">
        <ele>1506</ele>
        <time>2021-12-15T10:32:02Z</time>
      </trkpt>
      <trkpt lat="46.16083" lon="6.60767">
        <ele>1508</ele>
        <time>2021-12-15T10:32:09Z</time>
      </trkpt>
      <trkpt lat="46.16079" lon="6.6076">
        <ele>1509</ele>
        <time>2021-12-15T10:32:13Z</time>
      </trkpt>
      <trkpt lat="46.1608" lon="6.60756">
        <ele>1511</ele>
        <time>2021-12-15T10:32:17Z</time>
      </trkpt>
      <trkpt lat="46.16078" lon="6.60747">
        <ele>1515</ele>
        <time>2021-12-15T10:32:23Z</time>
      </trkpt>
      <trkpt lat="46.16073" lon="6.60739">
        <ele>1509</ele>
        <time>2021-12-15T10:32:32Z</time>
      </trkpt>
      <trkpt lat="46.16073" lon="6.60733">
        <ele>1513</ele>
        <time>2021-12-15T10:32:35Z</time>
      </trkpt>
      <trkpt lat="46.16068" lon="6.60723">
        <ele>1495</ele>
        <time>2021-12-15T10:32:55Z</time>
      </trkpt>
      <trkpt lat="46.16069" lon="6.60715">
        <ele>1521</ele>
        <time>2021-12-15T10:33:10Z</time>
      </trkpt>
      <trkpt lat="46.16062" lon="6.60711">
        <ele>1517</ele>
        <time>2021-12-15T10:33:16Z</time>
      </trkpt>
      <trkpt lat="46.16056" lon="6.60699">
        <ele>1523</ele>
        <time>2021-12-15T10:33:24Z</time>
      </trkpt>
      <trkpt lat="46.16054" lon="6.60695">
        <ele>1516</ele>
        <time>2021-12-15T10:33:27Z</time>
      </trkpt>
      <trkpt lat="46.1605" lon="6.60694">
        <ele>1516</ele>
        <time>2021-12-15T10:33:29Z</time>
      </trkpt>
      <trkpt lat="46.16048" lon="6.60685">
        <ele>1520</ele>
        <time>2021-12-15T10:33:36Z</time>
      </trkpt>
      <trkpt lat="46.16048" lon="6.60681">
        <ele>1523</ele>
        <time>2021-12-15T10:33:41Z</time>
      </trkpt>
      <trkpt lat="46.16047" lon="6.60677">
        <ele>1518</ele>
        <time>2021-12-15T10:33:45Z</time>
      </trkpt>
      <trkpt lat="46.16044" lon="6.60673">
        <ele>1517</ele>
        <time>2021-12-15T10:33:49Z</time>
      </trkpt>
      <trkpt lat="46.16043" lon="6.6067">
        <ele>1512</ele>
        <time>2021-12-15T10:33:53Z</time>
      </trkpt>
      <trkpt lat="46.16034" lon="6.60658">
        <ele>1519</ele>
        <time>2021-12-15T10:34:06Z</time>
      </trkpt>
      <trkpt lat="46.16033" lon="6.60651">
        <ele>1528</ele>
        <time>2021-12-15T10:34:13Z</time>
      </trkpt>
      <trkpt lat="46.1603" lon="6.60644">
        <ele>1528</ele>
        <time>2021-12-15T10:34:20Z</time>
      </trkpt>
      <trkpt lat="46.16027" lon="6.60642">
        <ele>1528.1</ele>
        <time>2021-12-15T10:34:23Z</time>
      </trkpt>
      <trkpt lat="46.16022" lon="6.60645">
        <ele>1525</ele>
        <time>2021-12-15T10:34:27Z</time>
      </trkpt>
      <trkpt lat="46.16019" lon="6.60643">
        <ele>1520</ele>
        <time>2021-12-15T10:34:31Z</time>
      </trkpt>
      <trkpt lat="46.16013" lon="6.60635">
        <ele>1522</ele>
        <time>2021-12-15T10:34:38Z</time>
      </trkpt>
      <trkpt lat="46.16013" lon="6.60621">
        <ele>1533</ele>
        <time>2021-12-15T10:35:23Z</time>
      </trkpt>
      <trkpt lat="46.1601" lon="6.60622">
        <ele>1532</ele>
        <time>2021-12-15T10:36:53Z</time>
      </trkpt>
      <trkpt lat="46.16014" lon="6.6062">
        <ele>1527</ele>
        <time>2021-12-15T10:37:03Z</time>
      </trkpt>
      <trkpt lat="46.16016" lon="6.60612">
        <ele>1532</ele>
        <time>2021-12-15T10:37:10Z</time>
      </trkpt>
      <trkpt lat="46.16016" lon="6.60605">
        <ele>1534</ele>
        <time>2021-12-15T10:37:14Z</time>
      </trkpt>
      <trkpt lat="46.16018" lon="6.60602">
        <ele>1536</ele>
        <time>2021-12-15T10:37:17Z</time>
      </trkpt>
      <trkpt lat="46.16019" lon="6.60581">
        <ele>1545</ele>
        <time>2021-12-15T10:37:33Z</time>
      </trkpt>
      <trkpt lat="46.16015" lon="6.6058">
        <ele>1546</ele>
        <time>2021-12-15T10:37:35Z</time>
      </trkpt>
      <trkpt lat="46.16018" lon="6.60576">
        <ele>1548</ele>
        <time>2021-12-15T10:37:38Z</time>
      </trkpt>
      <trkpt lat="46.16017" lon="6.60571">
        <ele>1546</ele>
        <time>2021-12-15T10:37:42Z</time>
      </trkpt>
      <trkpt lat="46.16019" lon="6.60555">
        <ele>1553</ele>
        <time>2021-12-15T10:37:53Z</time>
      </trkpt>
      <trkpt lat="46.16017" lon="6.60551">
        <ele>1547</ele>
        <time>2021-12-15T10:37:56Z</time>
      </trkpt>
      <trkpt lat="46.1602" lon="6.60547">
        <ele>1545.4</ele>
        <time>2021-12-15T10:38:01Z</time>
      </trkpt>
      <trkpt lat="46.16017" lon="6.60545">
        <ele>1545.9</ele>
        <time>2021-12-15T10:38:02Z</time>
      </trkpt>
      <trkpt lat="46.16019" lon="6.60542">
        <ele>1548</ele>
        <time>2021-12-15T10:38:04Z</time>
      </trkpt>
      <trkpt lat="46.16014" lon="6.60534">
        <ele>1549</ele>
        <time>2021-12-15T10:38:09Z</time>
      </trkpt>
      <trkpt lat="46.16018" lon="6.60527">
        <ele>1554</ele>
        <time>2021-12-15T10:38:15Z</time>
      </trkpt>
      <trkpt lat="46.16018" lon="6.60524">
        <ele>1556</ele>
        <time>2021-12-15T10:38:20Z</time>
      </trkpt>
      <trkpt lat="46.16016" lon="6.60521">
        <ele>1560</ele>
        <time>2021-12-15T10:38:23Z</time>
      </trkpt>
      <trkpt lat="46.16013" lon="6.60522">
        <ele>1560</ele>
        <time>2021-12-15T10:38:26Z</time>
      </trkpt>
      <trkpt lat="46.16012" lon="6.60516">
        <ele>1558</ele>
        <time>2021-12-15T10:38:29Z</time>
      </trkpt>
      <trkpt lat="46.16014" lon="6.60511">
        <ele>1558</ele>
        <time>2021-12-15T10:38:32Z</time>
      </trkpt>
      <trkpt lat="46.16014" lon="6.60506">
        <ele>1562</ele>
        <time>2021-12-15T10:38:38Z</time>
      </trkpt>
      <trkpt lat="46.16018" lon="6.60499">
        <ele>1562</ele>
        <time>2021-12-15T10:38:44Z</time>
      </trkpt>
      <trkpt lat="46.16017" lon="6.60495">
        <ele>1561</ele>
        <time>2021-12-15T10:38:48Z</time>
      </trkpt>
      <trkpt lat="46.16022" lon="6.60472">
        <ele>1555</ele>
        <time>2021-12-15T10:39:07Z</time>
      </trkpt>
      <trkpt lat="46.16015" lon="6.60463">
        <ele>1563</ele>
        <time>2021-12-15T10:39:18Z</time>
      </trkpt>
      <trkpt lat="46.16012" lon="6.60456">
        <ele>1568</ele>
        <time>2021-12-15T10:39:24Z</time>
      </trkpt>
      <trkpt lat="46.16012" lon="6.60452">
        <ele>1572</ele>
        <time>2021-12-15T10:39:27Z</time>
      </trkpt>
      <trkpt lat="46.16008" lon="6.6045">
        <ele>1573</ele>
        <time>2021-12-15T10:39:30Z</time>
      </trkpt>
      <trkpt lat="46.16005" lon="6.60451">
        <ele>1572</ele>
        <time>2021-12-15T10:39:33Z</time>
      </trkpt>
      <trkpt lat="46.16001" lon="6.60454">
        <ele>1565</ele>
        <time>2021-12-15T10:39:36Z</time>
      </trkpt>
      <trkpt lat="46.16" lon="6.60457">
        <ele>1563</ele>
        <time>2021-12-15T10:39:39Z</time>
      </trkpt>
      <trkpt lat="46.15993" lon="6.60459">
        <ele>1559</ele>
        <time>2021-12-15T10:39:47Z</time>
      </trkpt>
      <trkpt lat="46.15989" lon="6.60453">
        <ele>1558</ele>
        <time>2021-12-15T10:39:52Z</time>
      </trkpt>
      <trkpt lat="46.15987" lon="6.60444">
        <ele>1565</ele>
        <time>2021-12-15T10:39:59Z</time>
      </trkpt>
      <trkpt lat="46.15988" lon="6.60435">
        <ele>1569</ele>
        <time>2021-12-15T10:40:04Z</time>
      </trkpt>
      <trkpt lat="46.1599" lon="6.60432">
        <ele>1572</ele>
        <time>2021-12-15T10:40:06Z</time>
      </trkpt>
      <trkpt lat="46.1599" lon="6.60424">
        <ele>1575</ele>
        <time>2021-12-15T10:40:14Z</time>
      </trkpt>
      <trkpt lat="46.15993" lon="6.60409">
        <ele>1579</ele>
        <time>2021-12-15T10:40:30Z</time>
      </trkpt>
      <trkpt lat="46.15987" lon="6.60404">
        <ele>1580</ele>
        <time>2021-12-15T10:40:35Z</time>
      </trkpt>
      <trkpt lat="46.15982" lon="6.60405">
        <ele>1579</ele>
        <time>2021-12-15T10:40:42Z</time>
      </trkpt>
      <trkpt lat="46.15978" lon="6.60404">
        <ele>1583</ele>
        <time>2021-12-15T10:40:48Z</time>
      </trkpt>
      <trkpt lat="46.15974" lon="6.60404">
        <ele>1585</ele>
        <time>2021-12-15T10:40:52Z</time>
      </trkpt>
      <trkpt lat="46.1596" lon="6.6041">
        <ele>1585</ele>
        <time>2021-12-15T10:41:11Z</time>
      </trkpt>
      <trkpt lat="46.15961" lon="6.60407">
        <ele>1593</ele>
        <time>2021-12-15T10:41:17Z</time>
      </trkpt>
      <trkpt lat="46.15958" lon="6.604">
        <ele>1592</ele>
        <time>2021-12-15T10:41:24Z</time>
      </trkpt>
      <trkpt lat="46.15961" lon="6.60396">
        <ele>1589</ele>
        <time>2021-12-15T10:41:32Z</time>
      </trkpt>
      <trkpt lat="46.15962" lon="6.60393">
        <ele>1592</ele>
        <time>2021-12-15T10:41:36Z</time>
      </trkpt>
      <trkpt lat="46.15957" lon="6.60378">
        <ele>1592</ele>
        <time>2021-12-15T10:41:47Z</time>
      </trkpt>
      <trkpt lat="46.1596" lon="6.60376">
        <ele>1593</ele>
        <time>2021-12-15T10:41:50Z</time>
      </trkpt>
      <trkpt lat="46.15963" lon="6.60362">
        <ele>1600</ele>
        <time>2021-12-15T10:41:59Z</time>
      </trkpt>
      <trkpt lat="46.15962" lon="6.60359">
        <ele>1602</ele>
        <time>2021-12-15T10:42:02Z</time>
      </trkpt>
      <trkpt lat="46.15967" lon="6.6035">
        <ele>1603</ele>
        <time>2021-12-15T10:42:09Z</time>
      </trkpt>
      <trkpt lat="46.15972" lon="6.60335">
        <ele>1600</ele>
        <time>2021-12-15T10:42:20Z</time>
      </trkpt>
      <trkpt lat="46.15971" lon="6.60333">
        <ele>1597</ele>
        <time>2021-12-15T10:42:48Z</time>
      </trkpt>
      <trkpt lat="46.15977" lon="6.60327">
        <ele>1604</ele>
        <time>2021-12-15T10:43:43Z</time>
      </trkpt>
      <trkpt lat="46.15983" lon="6.60323">
        <ele>1605</ele>
        <time>2021-12-15T10:43:47Z</time>
      </trkpt>
      <trkpt lat="46.15986" lon="6.60319">
        <ele>1603</ele>
        <time>2021-12-15T10:43:50Z</time>
      </trkpt>
      <trkpt lat="46.15988" lon="6.60315">
        <ele>1606.5</ele>
        <time>2021-12-15T10:43:54Z</time>
      </trkpt>
      <trkpt lat="46.16002" lon="6.603">
        <ele>1605</ele>
        <time>2021-12-15T10:44:08Z</time>
      </trkpt>
      <trkpt lat="46.16005" lon="6.60298">
        <ele>1608</ele>
        <time>2021-12-15T10:44:14Z</time>
      </trkpt>
      <trkpt lat="46.16022" lon="6.60275">
        <ele>1614</ele>
        <time>2021-12-15T10:44:38Z</time>
      </trkpt>
      <trkpt lat="46.16024" lon="6.60273">
        <ele>1615</ele>
        <time>2021-12-15T10:44:42Z</time>
      </trkpt>
      <trkpt lat="46.16027" lon="6.60272">
        <ele>1617</ele>
        <time>2021-12-15T10:44:46Z</time>
      </trkpt>
      <trkpt lat="46.16032" lon="6.60273">
        <ele>1619</ele>
        <time>2021-12-15T10:44:52Z</time>
      </trkpt>
      <trkpt lat="46.16046" lon="6.60278">
        <ele>1623</ele>
        <time>2021-12-15T10:45:08Z</time>
      </trkpt>
      <trkpt lat="46.16053" lon="6.60279">
        <ele>1621</ele>
        <time>2021-12-15T10:45:14Z</time>
      </trkpt>
      <trkpt lat="46.16057" lon="6.60281">
        <ele>1621</ele>
        <time>2021-12-15T10:45:18Z</time>
      </trkpt>
      <trkpt lat="46.16061" lon="6.6028">
        <ele>1622</ele>
        <time>2021-12-15T10:45:21Z</time>
      </trkpt>
      <trkpt lat="46.16072" lon="6.60276">
        <ele>1620</ele>
        <time>2021-12-15T10:45:44Z</time>
      </trkpt>
      <trkpt lat="46.16084" lon="6.60275">
        <ele>1620</ele>
        <time>2021-12-15T10:45:54Z</time>
      </trkpt>
      <trkpt lat="46.16087" lon="6.60273">
        <ele>1621</ele>
        <time>2021-12-15T10:45:59Z</time>
      </trkpt>
      <trkpt lat="46.16098" lon="6.60276">
        <ele>1622</ele>
        <time>2021-12-15T10:46:11Z</time>
      </trkpt>
      <trkpt lat="46.16116" lon="6.60271">
        <ele>1630</ele>
        <time>2021-12-15T10:46:32Z</time>
      </trkpt>
      <trkpt lat="46.1612" lon="6.60272">
        <ele>1632.2</ele>
        <time>2021-12-15T10:46:36Z</time>
      </trkpt>
      <trkpt lat="46.16125" lon="6.60268">
        <ele>1631</ele>
        <time>2021-12-15T10:46:41Z</time>
      </trkpt>
      <trkpt lat="46.16133" lon="6.60268">
        <ele>1636</ele>
        <time>2021-12-15T10:46:50Z</time>
      </trkpt>
      <trkpt lat="46.16136" lon="6.60269">
        <ele>1636</ele>
        <time>2021-12-15T10:46:53Z</time>
      </trkpt>
      <trkpt lat="46.16146" lon="6.60263">
        <ele>1634</ele>
        <time>2021-12-15T10:47:04Z</time>
      </trkpt>
      <trkpt lat="46.16153" lon="6.60261">
        <ele>1640</ele>
        <time>2021-12-15T10:47:12Z</time>
      </trkpt>
      <trkpt lat="46.16156" lon="6.60262">
        <ele>1644</ele>
        <time>2021-12-15T10:47:16Z</time>
      </trkpt>
      <trkpt lat="46.16162" lon="6.60256">
        <ele>1640</ele>
        <time>2021-12-15T10:47:21Z</time>
      </trkpt>
      <trkpt lat="46.16169" lon="6.60257">
        <ele>1642</ele>
        <time>2021-12-15T10:47:28Z</time>
      </trkpt>
      <trkpt lat="46.16173" lon="6.60253">
        <ele>1641</ele>
        <time>2021-12-15T10:47:32Z</time>
      </trkpt>
      <trkpt lat="46.16172" lon="6.60256">
        <ele>1652</ele>
        <time>2021-12-15T10:47:37Z</time>
      </trkpt>
      <trkpt lat="46.16176" lon="6.60252">
        <ele>1652</ele>
        <time>2021-12-15T10:47:42Z</time>
      </trkpt>
      <trkpt lat="46.16179" lon="6.60253">
        <ele>1652</ele>
        <time>2021-12-15T10:47:46Z</time>
      </trkpt>
      <trkpt lat="46.16183" lon="6.6025">
        <ele>1654</ele>
        <time>2021-12-15T10:47:51Z</time>
      </trkpt>
      <trkpt lat="46.1619" lon="6.60249">
        <ele>1652</ele>
        <time>2021-12-15T10:47:57Z</time>
      </trkpt>
      <trkpt lat="46.16195" lon="6.60243">
        <ele>1652</ele>
        <time>2021-12-15T10:48:03Z</time>
      </trkpt>
      <trkpt lat="46.16202" lon="6.60244">
        <ele>1658</ele>
        <time>2021-12-15T10:48:14Z</time>
      </trkpt>
      <trkpt lat="46.16208" lon="6.60243">
        <ele>1659</ele>
        <time>2021-12-15T10:48:22Z</time>
      </trkpt>
      <trkpt lat="46.16224" lon="6.60231">
        <ele>1667</ele>
        <time>2021-12-15T10:48:44Z</time>
      </trkpt>
      <trkpt lat="46.16231" lon="6.60224">
        <ele>1666</ele>
        <time>2021-12-15T10:48:51Z</time>
      </trkpt>
      <trkpt lat="46.16236" lon="6.60217">
        <ele>1668</ele>
        <time>2021-12-15T10:48:59Z</time>
      </trkpt>
      <trkpt lat="46.16236" lon="6.6021">
        <ele>1666</ele>
        <time>2021-12-15T10:49:08Z</time>
      </trkpt>
      <trkpt lat="46.16244" lon="6.60207">
        <ele>1664</ele>
        <time>2021-12-15T10:49:20Z</time>
      </trkpt>
      <trkpt lat="46.16257" lon="6.60222">
        <ele>1673</ele>
        <time>2021-12-15T10:49:41Z</time>
      </trkpt>
      <trkpt lat="46.16262" lon="6.6022">
        <ele>1676</ele>
        <time>2021-12-15T10:49:48Z</time>
      </trkpt>
      <trkpt lat="46.16265" lon="6.60223">
        <ele>1678</ele>
        <time>2021-12-15T10:49:50Z</time>
      </trkpt>
      <trkpt lat="46.16266" lon="6.60227">
        <ele>1679</ele>
        <time>2021-12-15T10:49:53Z</time>
      </trkpt>
      <trkpt lat="46.1627" lon="6.60225">
        <ele>1677.1</ele>
        <time>2021-12-15T10:49:56Z</time>
      </trkpt>
      <trkpt lat="46.16275" lon="6.60227">
        <ele>1676</ele>
        <time>2021-12-15T10:50:01Z</time>
      </trkpt>
      <trkpt lat="46.16278" lon="6.60231">
        <ele>1679</ele>
        <time>2021-12-15T10:50:05Z</time>
      </trkpt>
      <trkpt lat="46.16282" lon="6.6023">
        <ele>1677</ele>
        <time>2021-12-15T10:50:08Z</time>
      </trkpt>
      <trkpt lat="46.16291" lon="6.60234">
        <ele>1682</ele>
        <time>2021-12-15T10:50:18Z</time>
      </trkpt>
      <trkpt lat="46.16295" lon="6.60233">
        <ele>1681</ele>
        <time>2021-12-15T10:50:22Z</time>
      </trkpt>
      <trkpt lat="46.16301" lon="6.60224">
        <ele>1680</ele>
        <time>2021-12-15T10:50:32Z</time>
      </trkpt>
      <trkpt lat="46.16307" lon="6.60217">
        <ele>1688</ele>
        <time>2021-12-15T10:50:42Z</time>
      </trkpt>
      <trkpt lat="46.16312" lon="6.60206">
        <ele>1688</ele>
        <time>2021-12-15T10:50:54Z</time>
      </trkpt>
      <trkpt lat="46.16313" lon="6.60202">
        <ele>1687</ele>
        <time>2021-12-15T10:50:57Z</time>
      </trkpt>
      <trkpt lat="46.16323" lon="6.60186">
        <ele>1696</ele>
        <time>2021-12-15T10:51:13Z</time>
      </trkpt>
      <trkpt lat="46.1633" lon="6.60163">
        <ele>1690</ele>
        <time>2021-12-15T10:51:32Z</time>
      </trkpt>
      <trkpt lat="46.16329" lon="6.60159">
        <ele>1690.1</ele>
        <time>2021-12-15T10:51:38Z</time>
      </trkpt>
      <trkpt lat="46.16335" lon="6.60148">
        <ele>1699</ele>
        <time>2021-12-15T10:51:48Z</time>
      </trkpt>
      <trkpt lat="46.16337" lon="6.60141">
        <ele>1704</ele>
        <time>2021-12-15T10:51:55Z</time>
      </trkpt>
      <trkpt lat="46.16336" lon="6.60135">
        <ele>1708</ele>
        <time>2021-12-15T10:52:01Z</time>
      </trkpt>
      <trkpt lat="46.16338" lon="6.60117">
        <ele>1711</ele>
        <time>2021-12-15T10:52:21Z</time>
      </trkpt>
      <trkpt lat="46.16338" lon="6.60124">
        <ele>1718.2</ele>
        <time>2021-12-15T10:52:25Z</time>
      </trkpt>
      <trkpt lat="46.16344" lon="6.60132">
        <ele>1716</ele>
        <time>2021-12-15T10:52:35Z</time>
      </trkpt>
      <trkpt lat="46.16347" lon="6.60133">
        <ele>1716</ele>
        <time>2021-12-15T10:52:38Z</time>
      </trkpt>
      <trkpt lat="46.16348" lon="6.60137">
        <ele>1719</ele>
        <time>2021-12-15T10:52:41Z</time>
      </trkpt>
      <trkpt lat="46.16352" lon="6.60137">
        <ele>1718</ele>
        <time>2021-12-15T10:52:43Z</time>
      </trkpt>
      <trkpt lat="46.16354" lon="6.60139">
        <ele>1716</ele>
        <time>2021-12-15T10:52:47Z</time>
      </trkpt>
      <trkpt lat="46.16356" lon="6.60144">
        <ele>1719</ele>
        <time>2021-12-15T10:52:51Z</time>
      </trkpt>
      <trkpt lat="46.16362" lon="6.6015">
        <ele>1720</ele>
        <time>2021-12-15T10:53:01Z</time>
      </trkpt>
      <trkpt lat="46.16369" lon="6.60151">
        <ele>1715</ele>
        <time>2021-12-15T10:53:07Z</time>
      </trkpt>
      <trkpt lat="46.16372" lon="6.60157">
        <ele>1718</ele>
        <time>2021-12-15T10:53:12Z</time>
      </trkpt>
      <trkpt lat="46.16378" lon="6.60156">
        <ele>1714</ele>
        <time>2021-12-15T10:53:17Z</time>
      </trkpt>
      <trkpt lat="46.16382" lon="6.60157">
        <ele>1713</ele>
        <time>2021-12-15T10:53:21Z</time>
      </trkpt>
      <trkpt lat="46.16388" lon="6.60166">
        <ele>1719</ele>
        <time>2021-12-15T10:53:29Z</time>
      </trkpt>
      <trkpt lat="46.16393" lon="6.60166">
        <ele>1720</ele>
        <time>2021-12-15T10:53:35Z</time>
      </trkpt>
      <trkpt lat="46.16399" lon="6.60172">
        <ele>1725</ele>
        <time>2021-12-15T10:53:44Z</time>
      </trkpt>
      <trkpt lat="46.164" lon="6.60176">
        <ele>1727</ele>
        <time>2021-12-15T10:53:47Z</time>
      </trkpt>
      <trkpt lat="46.16401" lon="6.60185">
        <ele>1736.7</ele>
        <time>2021-12-15T10:53:49Z</time>
      </trkpt>
      <trkpt lat="46.16403" lon="6.60181">
        <ele>1732</ele>
        <time>2021-12-15T10:53:50Z</time>
      </trkpt>
      <trkpt lat="46.16406" lon="6.60182">
        <ele>1730</ele>
        <time>2021-12-15T10:53:53Z</time>
      </trkpt>
      <trkpt lat="46.16413" lon="6.60183">
        <ele>1727</ele>
        <time>2021-12-15T10:53:59Z</time>
      </trkpt>
      <trkpt lat="46.16415" lon="6.60185">
        <ele>1729.4</ele>
        <time>2021-12-15T10:54:02Z</time>
      </trkpt>
      <trkpt lat="46.1642" lon="6.60186">
        <ele>1726</ele>
        <time>2021-12-15T10:54:08Z</time>
      </trkpt>
      <trkpt lat="46.16423" lon="6.60182">
        <ele>1728.8</ele>
        <time>2021-12-15T10:54:12Z</time>
      </trkpt>
      <trkpt lat="46.16426" lon="6.60165">
        <ele>1733</ele>
        <time>2021-12-15T10:54:27Z</time>
      </trkpt>
      <trkpt lat="46.16426" lon="6.60159">
        <ele>1737</ele>
        <time>2021-12-15T10:54:33Z</time>
      </trkpt>
      <trkpt lat="46.16429" lon="6.60151">
        <ele>1735</ele>
        <time>2021-12-15T10:54:43Z</time>
      </trkpt>
      <trkpt lat="46.16429" lon="6.60143">
        <ele>1738</ele>
        <time>2021-12-15T10:54:50Z</time>
      </trkpt>
      <trkpt lat="46.16426" lon="6.60129">
        <ele>1742</ele>
        <time>2021-12-15T10:55:02Z</time>
      </trkpt>
      <trkpt lat="46.16429" lon="6.6011">
        <ele>1743</ele>
        <time>2021-12-15T10:55:17Z</time>
      </trkpt>
      <trkpt lat="46.16428" lon="6.60106">
        <ele>1744</ele>
        <time>2021-12-15T10:55:20Z</time>
      </trkpt>
      <trkpt lat="46.16425" lon="6.60101">
        <ele>1743</ele>
        <time>2021-12-15T10:55:26Z</time>
      </trkpt>
      <trkpt lat="46.16425" lon="6.60081">
        <ele>1743</ele>
        <time>2021-12-15T10:55:41Z</time>
      </trkpt>
      <trkpt lat="46.16424" lon="6.6007">
        <ele>1752</ele>
        <time>2021-12-15T10:55:54Z</time>
      </trkpt>
      <trkpt lat="46.16427" lon="6.60057">
        <ele>1766</ele>
        <time>2021-12-15T10:56:05Z</time>
      </trkpt>
      <trkpt lat="46.16424" lon="6.60041">
        <ele>1758</ele>
        <time>2021-12-15T10:56:18Z</time>
      </trkpt>
      <trkpt lat="46.16424" lon="6.60038">
        <ele>1758</ele>
        <time>2021-12-15T10:56:21Z</time>
      </trkpt>
      <trkpt lat="46.16423" lon="6.60034">
        <ele>1754</ele>
        <time>2021-12-15T10:56:23Z</time>
      </trkpt>
      <trkpt lat="46.16421" lon="6.60031">
        <ele>1750</ele>
        <time>2021-12-15T10:56:26Z</time>
      </trkpt>
      <trkpt lat="46.16423" lon="6.60025">
        <ele>1762</ele>
        <time>2021-12-15T10:56:32Z</time>
      </trkpt>
      <trkpt lat="46.16425" lon="6.60017">
        <ele>1760</ele>
        <time>2021-12-15T10:56:39Z</time>
      </trkpt>
      <trkpt lat="46.16424" lon="6.60014">
        <ele>1762</ele>
        <time>2021-12-15T10:56:42Z</time>
      </trkpt>
      <trkpt lat="46.16427" lon="6.60011">
        <ele>1764</ele>
        <time>2021-12-15T10:56:45Z</time>
      </trkpt>
      <trkpt lat="46.16429" lon="6.59992">
        <ele>1763</ele>
        <time>2021-12-15T10:57:01Z</time>
      </trkpt>
      <trkpt lat="46.16427" lon="6.59986">
        <ele>1762</ele>
        <time>2021-12-15T10:57:07Z</time>
      </trkpt>
      <trkpt lat="46.16426" lon="6.59975">
        <ele>1761</ele>
        <time>2021-12-15T10:57:16Z</time>
      </trkpt>
      <trkpt lat="46.1643" lon="6.59953">
        <ele>1778</ele>
        <time>2021-12-15T10:57:44Z</time>
      </trkpt>
      <trkpt lat="46.16429" lon="6.59938">
        <ele>1771</ele>
        <time>2021-12-15T10:57:59Z</time>
      </trkpt>
      <trkpt lat="46.16433" lon="6.59924">
        <ele>1776</ele>
        <time>2021-12-15T10:58:12Z</time>
      </trkpt>
      <trkpt lat="46.16435" lon="6.59914">
        <ele>1785</ele>
        <time>2021-12-15T10:58:23Z</time>
      </trkpt>
      <trkpt lat="46.16434" lon="6.5991">
        <ele>1778</ele>
        <time>2021-12-15T10:58:28Z</time>
      </trkpt>
      <trkpt lat="46.16432" lon="6.59916">
        <ele>1789.4</ele>
        <time>2021-12-15T10:58:33Z</time>
      </trkpt>
      <trkpt lat="46.16435" lon="6.59913">
        <ele>1786.9</ele>
        <time>2021-12-15T10:58:34Z</time>
      </trkpt>
      <trkpt lat="46.16436" lon="6.59921">
        <ele>1788</ele>
        <time>2021-12-15T10:58:40Z</time>
      </trkpt>
      <trkpt lat="46.16442" lon="6.59917">
        <ele>1784</ele>
        <time>2021-12-15T10:58:47Z</time>
      </trkpt>
      <trkpt lat="46.16444" lon="6.59926">
        <ele>1788</ele>
        <time>2021-12-15T10:58:55Z</time>
      </trkpt>
      <trkpt lat="46.16452" lon="6.59935">
        <ele>1789</ele>
        <time>2021-12-15T10:59:08Z</time>
      </trkpt>
      <trkpt lat="46.16452" lon="6.59939">
        <ele>1796.4</ele>
        <time>2021-12-15T10:59:10Z</time>
      </trkpt>
      <trkpt lat="46.16456" lon="6.59938">
        <ele>1787</ele>
        <time>2021-12-15T10:59:14Z</time>
      </trkpt>
      <trkpt lat="46.16462" lon="6.59945">
        <ele>1792</ele>
        <time>2021-12-15T10:59:25Z</time>
      </trkpt>
      <trkpt lat="46.16465" lon="6.59944">
        <ele>1788</ele>
        <time>2021-12-15T10:59:30Z</time>
      </trkpt>
      <trkpt lat="46.16467" lon="6.59925">
        <ele>1802</ele>
        <time>2021-12-15T10:59:50Z</time>
      </trkpt>
      <trkpt lat="46.16469" lon="6.59918">
        <ele>1802</ele>
        <time>2021-12-15T10:59:56Z</time>
      </trkpt>
      <trkpt lat="46.16468" lon="6.5992">
        <ele>1809.3</ele>
        <time>2021-12-15T11:00:00Z</time>
      </trkpt>
      <trkpt lat="46.16466" lon="6.59915">
        <ele>1810</ele>
        <time>2021-12-15T11:00:02Z</time>
      </trkpt>
      <trkpt lat="46.16468" lon="6.59905">
        <ele>1807</ele>
        <time>2021-12-15T11:00:10Z</time>
      </trkpt>
      <trkpt lat="46.1647" lon="6.59898">
        <ele>1804</ele>
        <time>2021-12-15T11:00:17Z</time>
      </trkpt>
      <trkpt lat="46.16468" lon="6.59887">
        <ele>1809</ele>
        <time>2021-12-15T11:00:29Z</time>
      </trkpt>
      <trkpt lat="46.16471" lon="6.59873">
        <ele>1810</ele>
        <time>2021-12-15T11:00:42Z</time>
      </trkpt>
      <trkpt lat="46.16475" lon="6.59864">
        <ele>1811</ele>
        <time>2021-12-15T11:00:55Z</time>
      </trkpt>
      <trkpt lat="46.16478" lon="6.59874">
        <ele>1826</ele>
        <time>2021-12-15T11:01:12Z</time>
      </trkpt>
      <trkpt lat="46.16482" lon="6.59875">
        <ele>1826</ele>
        <time>2021-12-15T11:01:14Z</time>
      </trkpt>
      <trkpt lat="46.16487" lon="6.59881">
        <ele>1825</ele>
        <time>2021-12-15T11:01:22Z</time>
      </trkpt>
      <trkpt lat="46.1649" lon="6.59888">
        <ele>1825</ele>
        <time>2021-12-15T11:01:28Z</time>
      </trkpt>
      <trkpt lat="46.1649" lon="6.59891">
        <ele>1830.1</ele>
        <time>2021-12-15T11:01:31Z</time>
      </trkpt>
      <trkpt lat="46.16498" lon="6.59894">
        <ele>1827</ele>
        <time>2021-12-15T11:01:40Z</time>
      </trkpt>
      <trkpt lat="46.16502" lon="6.59903">
        <ele>1830</ele>
        <time>2021-12-15T11:01:47Z</time>
      </trkpt>
      <trkpt lat="46.16505" lon="6.59905">
        <ele>1831</ele>
        <time>2021-12-15T11:01:53Z</time>
      </trkpt>
      <trkpt lat="46.16507" lon="6.59909">
        <ele>1836</ele>
        <time>2021-12-15T11:01:58Z</time>
      </trkpt>
      <trkpt lat="46.16509" lon="6.59907">
        <ele>1833</ele>
        <time>2021-12-15T11:02:02Z</time>
      </trkpt>
      <trkpt lat="46.16512" lon="6.59889">
        <ele>1831</ele>
        <time>2021-12-15T11:02:15Z</time>
      </trkpt>
      <trkpt lat="46.16514" lon="6.59883">
        <ele>1836</ele>
        <time>2021-12-15T11:02:22Z</time>
      </trkpt>
      <trkpt lat="46.16514" lon="6.5988">
        <ele>1838</ele>
        <time>2021-12-15T11:02:26Z</time>
      </trkpt>
      <trkpt lat="46.16517" lon="6.59873">
        <ele>1841</ele>
        <time>2021-12-15T11:02:31Z</time>
      </trkpt>
      <trkpt lat="46.16519" lon="6.59863">
        <ele>1845</ele>
        <time>2021-12-15T11:02:41Z</time>
      </trkpt>
      <trkpt lat="46.16518" lon="6.59856">
        <ele>1846</ele>
        <time>2021-12-15T11:02:46Z</time>
      </trkpt>
      <trkpt lat="46.16519" lon="6.59853">
        <ele>1846</ele>
        <time>2021-12-15T11:02:50Z</time>
      </trkpt>
      <trkpt lat="46.16522" lon="6.59843">
        <ele>1846</ele>
        <time>2021-12-15T11:02:57Z</time>
      </trkpt>
      <trkpt lat="46.16522" lon="6.59837">
        <ele>1838</ele>
        <time>2021-12-15T11:03:00Z</time>
      </trkpt>
      <trkpt lat="46.16524" lon="6.59831">
        <ele>1836</ele>
        <time>2021-12-15T11:03:03Z</time>
      </trkpt>
      <trkpt lat="46.16522" lon="6.59835">
        <ele>1845.4</ele>
        <time>2021-12-15T11:03:04Z</time>
      </trkpt>
      <trkpt lat="46.16521" lon="6.5981">
        <ele>1851</ele>
        <time>2021-12-15T11:03:24Z</time>
      </trkpt>
      <trkpt lat="46.16522" lon="6.59792">
        <ele>1848</ele>
        <time>2021-12-15T11:03:39Z</time>
      </trkpt>
      <trkpt lat="46.16526" lon="6.59782">
        <ele>1849</ele>
        <time>2021-12-15T11:03:55Z</time>
      </trkpt>
      <trkpt lat="46.16529" lon="6.59787">
        <ele>1853</ele>
        <time>2021-12-15T11:04:01Z</time>
      </trkpt>
      <trkpt lat="46.16532" lon="6.5979">
        <ele>1858.4</ele>
        <time>2021-12-15T11:04:08Z</time>
      </trkpt>
      <trkpt lat="46.16536" lon="6.59796">
        <ele>1862</ele>
        <time>2021-12-15T11:04:19Z</time>
      </trkpt>
      <trkpt lat="46.16545" lon="6.59803">
        <ele>1866</ele>
        <time>2021-12-15T11:04:33Z</time>
      </trkpt>
      <trkpt lat="46.16551" lon="6.59814">
        <ele>1870</ele>
        <time>2021-12-15T11:04:43Z</time>
      </trkpt>
      <trkpt lat="46.16559" lon="6.59816">
        <ele>1870</ele>
        <time>2021-12-15T11:04:52Z</time>
      </trkpt>
      <trkpt lat="46.1656" lon="6.59819">
        <ele>1869</ele>
        <time>2021-12-15T11:04:57Z</time>
      </trkpt>
      <trkpt lat="46.16563" lon="6.59821">
        <ele>1869</ele>
        <time>2021-12-15T11:04:59Z</time>
      </trkpt>
      <trkpt lat="46.16573" lon="6.59845">
        <ele>1885</ele>
        <time>2021-12-15T11:05:23Z</time>
      </trkpt>
      <trkpt lat="46.16587" lon="6.59856">
        <ele>1879.5</ele>
        <time>2021-12-15T11:05:41Z</time>
      </trkpt>
      <trkpt lat="46.16587" lon="6.59853">
        <ele>1878</ele>
        <time>2021-12-15T11:05:42Z</time>
      </trkpt>
      <trkpt lat="46.16588" lon="6.59855">
        <ele>1880</ele>
        <time>2021-12-15T11:05:44Z</time>
      </trkpt>
      <trkpt lat="46.16593" lon="6.59857">
        <ele>1879</ele>
        <time>2021-12-15T11:05:49Z</time>
      </trkpt>
      <trkpt lat="46.16594" lon="6.59869">
        <ele>1889</ele>
        <time>2021-12-15T11:05:59Z</time>
      </trkpt>
      <trkpt lat="46.16599" lon="6.59871">
        <ele>1887</ele>
        <time>2021-12-15T11:06:03Z</time>
      </trkpt>
      <trkpt lat="46.166" lon="6.59875">
        <ele>1887.2</ele>
        <time>2021-12-15T11:06:04Z</time>
      </trkpt>
      <trkpt lat="46.166" lon="6.59871">
        <ele>1884</ele>
        <time>2021-12-15T11:06:06Z</time>
      </trkpt>
      <trkpt lat="46.16602" lon="6.5988">
        <ele>1890</ele>
        <time>2021-12-15T11:06:11Z</time>
      </trkpt>
      <trkpt lat="46.16604" lon="6.59883">
        <ele>1893</ele>
        <time>2021-12-15T11:06:15Z</time>
      </trkpt>
      <trkpt lat="46.16605" lon="6.59887">
        <ele>1897</ele>
        <time>2021-12-15T11:06:21Z</time>
      </trkpt>
      <trkpt lat="46.16627" lon="6.59893">
        <ele>1892</ele>
        <time>2021-12-15T11:06:49Z</time>
      </trkpt>
      <trkpt lat="46.16632" lon="6.599">
        <ele>1898</ele>
        <time>2021-12-15T11:06:57Z</time>
      </trkpt>
      <trkpt lat="46.1664" lon="6.59883">
        <ele>1902</ele>
        <time>2021-12-15T11:07:16Z</time>
      </trkpt>
      <trkpt lat="46.1664" lon="6.59876">
        <ele>1906</ele>
        <time>2021-12-15T11:07:21Z</time>
      </trkpt>
      <trkpt lat="46.16643" lon="6.59852">
        <ele>1905</ele>
        <time>2021-12-15T11:07:41Z</time>
      </trkpt>
      <trkpt lat="46.16646" lon="6.59848">
        <ele>1895</ele>
        <time>2021-12-15T11:07:51Z</time>
      </trkpt>
      <trkpt lat="46.1665" lon="6.59857">
        <ele>1911</ele>
        <time>2021-12-15T11:08:05Z</time>
      </trkpt>
      <trkpt lat="46.16653" lon="6.59859">
        <ele>1910</ele>
        <time>2021-12-15T11:08:09Z</time>
      </trkpt>
      <trkpt lat="46.16655" lon="6.59858">
        <ele>1909</ele>
        <time>2021-12-15T11:08:11Z</time>
      </trkpt>
      <trkpt lat="46.16657" lon="6.59863">
        <ele>1913.2</ele>
        <time>2021-12-15T11:08:16Z</time>
      </trkpt>
      <trkpt lat="46.1666" lon="6.59867">
        <ele>1914</ele>
        <time>2021-12-15T11:08:21Z</time>
      </trkpt>
      <trkpt lat="46.16662" lon="6.59877">
        <ele>1923</ele>
        <time>2021-12-15T11:08:27Z</time>
      </trkpt>
      <trkpt lat="46.16671" lon="6.5989">
        <ele>1928</ele>
        <time>2021-12-15T11:08:43Z</time>
      </trkpt>
      <trkpt lat="46.16672" lon="6.59896">
        <ele>1932</ele>
        <time>2021-12-15T11:08:46Z</time>
      </trkpt>
      <trkpt lat="46.16675" lon="6.5989">
        <ele>1923</ele>
        <time>2021-12-15T11:08:48Z</time>
      </trkpt>
      <trkpt lat="46.16678" lon="6.59896">
        <ele>1927</ele>
        <time>2021-12-15T11:08:52Z</time>
      </trkpt>
      <trkpt lat="46.16683" lon="6.59903">
        <ele>1930</ele>
        <time>2021-12-15T11:09:03Z</time>
      </trkpt>
      <trkpt lat="46.16688" lon="6.59903">
        <ele>1925</ele>
        <time>2021-12-15T11:09:11Z</time>
      </trkpt>
      <trkpt lat="46.16691" lon="6.59905">
        <ele>1928</ele>
        <time>2021-12-15T11:09:15Z</time>
      </trkpt>
      <trkpt lat="46.16693" lon="6.59908">
        <ele>1933</ele>
        <time>2021-12-15T11:09:19Z</time>
      </trkpt>
      <trkpt lat="46.167" lon="6.59909">
        <ele>1932</ele>
        <time>2021-12-15T11:09:26Z</time>
      </trkpt>
      <trkpt lat="46.16707" lon="6.59906">
        <ele>1928</ele>
        <time>2021-12-15T11:09:48Z</time>
      </trkpt>
      <trkpt lat="46.1671" lon="6.59908">
        <ele>1931</ele>
        <time>2021-12-15T11:09:52Z</time>
      </trkpt>
      <trkpt lat="46.16713" lon="6.59914">
        <ele>1932</ele>
        <time>2021-12-15T11:10:01Z</time>
      </trkpt>
      <trkpt lat="46.16721" lon="6.59922">
        <ele>1932</ele>
        <time>2021-12-15T11:10:14Z</time>
      </trkpt>
      <trkpt lat="46.16724" lon="6.59924">
        <ele>1930</ele>
        <time>2021-12-15T11:10:19Z</time>
      </trkpt>
      <trkpt lat="46.1673" lon="6.59935">
        <ele>1938</ele>
        <time>2021-12-15T11:10:30Z</time>
      </trkpt>
      <trkpt lat="46.16732" lon="6.59938">
        <ele>1936</ele>
        <time>2021-12-15T11:10:33Z</time>
      </trkpt>
      <trkpt lat="46.16734" lon="6.59942">
        <ele>1938</ele>
        <time>2021-12-15T11:10:38Z</time>
      </trkpt>
      <trkpt lat="46.16737" lon="6.59943">
        <ele>1940</ele>
        <time>2021-12-15T11:10:43Z</time>
      </trkpt>
      <trkpt lat="46.16736" lon="6.59947">
        <ele>1947</ele>
        <time>2021-12-15T11:10:47Z</time>
      </trkpt>
      <trkpt lat="46.16737" lon="6.59929">
        <ele>1939</ele>
        <time>2021-12-15T11:11:03Z</time>
      </trkpt>
      <trkpt lat="46.16739" lon="6.59933">
        <ele>1945.7</ele>
        <time>2021-12-15T11:11:11Z</time>
      </trkpt>
      <trkpt lat="46.16737" lon="6.59936">
        <ele>1948</ele>
        <time>2021-12-15T11:11:12Z</time>
      </trkpt>
      <trkpt lat="46.16738" lon="6.59932">
        <ele>1939</ele>
        <time>2021-12-15T11:11:16Z</time>
      </trkpt>
      <trkpt lat="46.1674" lon="6.5994">
        <ele>1944</ele>
        <time>2021-12-15T11:11:22Z</time>
      </trkpt>
      <trkpt lat="46.16746" lon="6.59948">
        <ele>1947</ele>
        <time>2021-12-15T11:11:31Z</time>
      </trkpt>
      <trkpt lat="46.16763" lon="6.59958">
        <ele>1950</ele>
        <time>2021-12-15T11:11:51Z</time>
      </trkpt>
      <trkpt lat="46.16766" lon="6.59961">
        <ele>1953</ele>
        <time>2021-12-15T11:11:54Z</time>
      </trkpt>
      <trkpt lat="46.16774" lon="6.59969">
        <ele>1955</ele>
        <time>2021-12-15T11:12:05Z</time>
      </trkpt>
      <trkpt lat="46.16776" lon="6.59971">
        <ele>1956</ele>
        <time>2021-12-15T11:12:09Z</time>
      </trkpt>
      <trkpt lat="46.16779" lon="6.59973">
        <ele>1956</ele>
        <time>2021-12-15T11:12:12Z</time>
      </trkpt>
      <trkpt lat="46.16782" lon="6.59969">
        <ele>1951</ele>
        <time>2021-12-15T11:12:15Z</time>
      </trkpt>
      <trkpt lat="46.16787" lon="6.59975">
        <ele>1953</ele>
        <time>2021-12-15T11:12:21Z</time>
      </trkpt>
      <trkpt lat="46.1679" lon="6.59977">
        <ele>1955</ele>
        <time>2021-12-15T11:12:26Z</time>
      </trkpt>
      <trkpt lat="46.16793" lon="6.59977">
        <ele>1958</ele>
        <time>2021-12-15T11:12:30Z</time>
      </trkpt>
      <trkpt lat="46.168" lon="6.59982">
        <ele>1960</ele>
        <time>2021-12-15T11:12:40Z</time>
      </trkpt>
      <trkpt lat="46.16808" lon="6.59983">
        <ele>1956</ele>
        <time>2021-12-15T11:12:48Z</time>
      </trkpt>
      <trkpt lat="46.16811" lon="6.59983">
        <ele>1956</ele>
        <time>2021-12-15T11:21:42Z</time>
      </trkpt>
      <trkpt lat="46.1681" lon="6.59988">
        <ele>1959</ele>
        <time>2021-12-15T11:22:22Z</time>
      </trkpt>
      <trkpt lat="46.16807" lon="6.59991">
        <ele>1956</ele>
        <time>2021-12-15T11:22:28Z</time>
      </trkpt>
      <trkpt lat="46.16809" lon="6.59987">
        <ele>1956</ele>
        <time>2021-12-15T11:22:40Z</time>
      </trkpt>
      <trkpt lat="46.16813" lon="6.59986">
        <ele>1963.8</ele>
        <time>2021-12-15T11:22:59Z</time>
      </trkpt>
      <trkpt lat="46.1681" lon="6.59986">
        <ele>1953</ele>
        <time>2021-12-15T11:23:20Z</time>
      </trkpt>
      <trkpt lat="46.16805" lon="6.5999">
        <ele>1957</ele>
        <time>2021-12-15T11:23:34Z</time>
      </trkpt>
      <trkpt lat="46.16809" lon="6.59991">
        <ele>1950</ele>
        <time>2021-12-15T11:23:58Z</time>
      </trkpt>
      <trkpt lat="46.16813" lon="6.59984">
        <ele>1962</ele>
        <time>2021-12-15T11:25:00Z</time>
      </trkpt>
      <trkpt lat="46.16812" lon="6.59986">
        <ele>1957</ele>
        <time>2021-12-15T11:25:02Z</time>
      </trkpt>
      <trkpt lat="46.16815" lon="6.59982">
        <ele>1958</ele>
        <time>2021-12-15T11:25:05Z</time>
      </trkpt>
      <trkpt lat="46.16811" lon="6.59984">
        <ele>1960</ele>
        <time>2021-12-15T11:25:26Z</time>
      </trkpt>
      <trkpt lat="46.16811" lon="6.59989">
        <ele>1957</ele>
        <time>2021-12-15T11:27:49Z</time>
      </trkpt>
      <trkpt lat="46.1682" lon="6.59985">
        <ele>1958</ele>
        <time>2021-12-15T11:28:09Z</time>
      </trkpt>
      <trkpt lat="46.1683" lon="6.5999">
        <ele>1958</ele>
        <time>2021-12-15T11:28:12Z</time>
      </trkpt>
      <trkpt lat="46.16834" lon="6.59991">
        <ele>1956</ele>
        <time>2021-12-15T11:28:16Z</time>
      </trkpt>
      <trkpt lat="46.16837" lon="6.59991">
        <ele>1956</ele>
        <time>2021-12-15T11:28:19Z</time>
      </trkpt>
      <trkpt lat="46.16832" lon="6.59985">
        <ele>1954</ele>
        <time>2021-12-15T11:28:49Z</time>
      </trkpt>
      <trkpt lat="46.16824" lon="6.59982">
        <ele>1956</ele>
        <time>2021-12-15T11:29:26Z</time>
      </trkpt>
      <trkpt lat="46.16827" lon="6.59977">
        <ele>1956.4</ele>
        <time>2021-12-15T11:29:40Z</time>
      </trkpt>
      <trkpt lat="46.1683" lon="6.59976">
        <ele>1955</ele>
        <time>2021-12-15T11:29:41Z</time>
      </trkpt>
      <trkpt lat="46.16836" lon="6.59971">
        <ele>1944</ele>
        <time>2021-12-15T11:30:00Z</time>
      </trkpt>
      <trkpt lat="46.16837" lon="6.59965">
        <ele>1945</ele>
        <time>2021-12-15T11:30:34Z</time>
      </trkpt>
      <trkpt lat="46.16834" lon="6.59962">
        <ele>1940</ele>
        <time>2021-12-15T11:31:18Z</time>
      </trkpt>
      <trkpt lat="46.16842" lon="6.59957">
        <ele>1938</ele>
        <time>2021-12-15T11:31:50Z</time>
      </trkpt>
      <trkpt lat="46.16839" lon="6.59964">
        <ele>1935</ele>
        <time>2021-12-15T11:32:01Z</time>
      </trkpt>
      <trkpt lat="46.1684" lon="6.5996">
        <ele>1938</ele>
        <time>2021-12-15T11:32:04Z</time>
      </trkpt>
      <trkpt lat="46.16843" lon="6.59955">
        <ele>1943.6</ele>
        <time>2021-12-15T11:32:08Z</time>
      </trkpt>
      <trkpt lat="46.16842" lon="6.59958">
        <ele>1936</ele>
        <time>2021-12-15T11:32:16Z</time>
      </trkpt>
      <trkpt lat="46.16842" lon="6.59954">
        <ele>1942</ele>
        <time>2021-12-15T11:32:28Z</time>
      </trkpt>
      <trkpt lat="46.16841" lon="6.59957">
        <ele>1937</ele>
        <time>2021-12-15T11:32:38Z</time>
      </trkpt>
      <trkpt lat="46.1684" lon="6.59954">
        <ele>1936</ele>
        <time>2021-12-15T11:32:51Z</time>
      </trkpt>
      <trkpt lat="46.16838" lon="6.59961">
        <ele>1934.6</ele>
        <time>2021-12-15T11:32:57Z</time>
      </trkpt>
      <trkpt lat="46.16839" lon="6.59958">
        <ele>1933</ele>
        <time>2021-12-15T11:33:02Z</time>
      </trkpt>
      <trkpt lat="46.1684" lon="6.59954">
        <ele>1926</ele>
        <time>2021-12-15T11:33:15Z</time>
      </trkpt>
      <trkpt lat="46.1684" lon="6.59957">
        <ele>1937</ele>
        <time>2021-12-15T11:33:29Z</time>
      </trkpt>
      <trkpt lat="46.16844" lon="6.59952">
        <ele>1937</ele>
        <time>2021-12-15T11:33:45Z</time>
      </trkpt>
      <trkpt lat="46.16845" lon="6.59943">
        <ele>1929</ele>
        <time>2021-12-15T11:34:15Z</time>
      </trkpt>
      <trkpt lat="46.16849" lon="6.59938">
        <ele>1930</ele>
        <time>2021-12-15T11:34:32Z</time>
      </trkpt>
      <trkpt lat="46.16844" lon="6.59938">
        <ele>1927</ele>
        <time>2021-12-15T11:34:37Z</time>
      </trkpt>
      <trkpt lat="46.16842" lon="6.59934">
        <ele>1924</ele>
        <time>2021-12-15T11:34:46Z</time>
      </trkpt>
      <trkpt lat="46.16843" lon="6.59938">
        <ele>1922</ele>
        <time>2021-12-15T11:34:50Z</time>
      </trkpt>
      <trkpt lat="46.16845" lon="6.59929">
        <ele>1920.9</ele>
        <time>2021-12-15T11:34:52Z</time>
      </trkpt>
      <trkpt lat="46.16848" lon="6.59933">
        <ele>1919.3</ele>
        <time>2021-12-15T11:34:53Z</time>
      </trkpt>
      <trkpt lat="46.16861" lon="6.59929">
        <ele>1912.5</ele>
        <time>2021-12-15T11:35:01Z</time>
      </trkpt>
      <trkpt lat="46.16867" lon="6.59929">
        <ele>1912</ele>
        <time>2021-12-15T11:35:04Z</time>
      </trkpt>
      <trkpt lat="46.16866" lon="6.59924">
        <ele>1908</ele>
        <time>2021-12-15T11:35:14Z</time>
      </trkpt>
      <trkpt lat="46.16873" lon="6.59919">
        <ele>1901</ele>
        <time>2021-12-15T11:35:20Z</time>
      </trkpt>
      <trkpt lat="46.16871" lon="6.59916">
        <ele>1900</ele>
        <time>2021-12-15T11:35:22Z</time>
      </trkpt>
      <trkpt lat="46.16869" lon="6.5991">
        <ele>1899</ele>
        <time>2021-12-15T11:35:25Z</time>
      </trkpt>
      <trkpt lat="46.16875" lon="6.59903">
        <ele>1897.7</ele>
        <time>2021-12-15T11:35:29Z</time>
      </trkpt>
      <trkpt lat="46.16882" lon="6.59902">
        <ele>1893</ele>
        <time>2021-12-15T11:35:33Z</time>
      </trkpt>
      <trkpt lat="46.16886" lon="6.599">
        <ele>1892</ele>
        <time>2021-12-15T11:35:35Z</time>
      </trkpt>
      <trkpt lat="46.16889" lon="6.599">
        <ele>1890</ele>
        <time>2021-12-15T11:35:38Z</time>
      </trkpt>
      <trkpt lat="46.1689" lon="6.59895">
        <ele>1890</ele>
        <time>2021-12-15T11:35:54Z</time>
      </trkpt>
      <trkpt lat="46.16887" lon="6.59892">
        <ele>1888.1</ele>
        <time>2021-12-15T11:35:56Z</time>
      </trkpt>
      <trkpt lat="46.16884" lon="6.59888">
        <ele>1889.4</ele>
        <time>2021-12-15T11:35:57Z</time>
      </trkpt>
      <trkpt lat="46.16881" lon="6.59887">
        <ele>1887</ele>
        <time>2021-12-15T11:35:59Z</time>
      </trkpt>
      <trkpt lat="46.16879" lon="6.59883">
        <ele>1884</ele>
        <time>2021-12-15T11:36:02Z</time>
      </trkpt>
      <trkpt lat="46.16881" lon="6.59878">
        <ele>1881.1</ele>
        <time>2021-12-15T11:36:04Z</time>
      </trkpt>
      <trkpt lat="46.16885" lon="6.59878">
        <ele>1881</ele>
        <time>2021-12-15T11:36:05Z</time>
      </trkpt>
      <trkpt lat="46.16891" lon="6.59876">
        <ele>1879</ele>
        <time>2021-12-15T11:36:08Z</time>
      </trkpt>
      <trkpt lat="46.16893" lon="6.59871">
        <ele>1875.8</ele>
        <time>2021-12-15T11:36:10Z</time>
      </trkpt>
      <trkpt lat="46.16879" lon="6.59863">
        <ele>1873.2</ele>
        <time>2021-12-15T11:36:14Z</time>
      </trkpt>
      <trkpt lat="46.16877" lon="6.59859">
        <ele>1872</ele>
        <time>2021-12-15T11:36:15Z</time>
      </trkpt>
      <trkpt lat="46.16876" lon="6.59853">
        <ele>1869.9</ele>
        <time>2021-12-15T11:36:17Z</time>
      </trkpt>
      <trkpt lat="46.16883" lon="6.59854">
        <ele>1865.6</ele>
        <time>2021-12-15T11:36:18Z</time>
      </trkpt>
      <trkpt lat="46.16889" lon="6.59853">
        <ele>1865</ele>
        <time>2021-12-15T11:36:20Z</time>
      </trkpt>
      <trkpt lat="46.16889" lon="6.59849">
        <ele>1862</ele>
        <time>2021-12-15T11:36:23Z</time>
      </trkpt>
      <trkpt lat="46.16886" lon="6.59841">
        <ele>1859</ele>
        <time>2021-12-15T11:36:25Z</time>
      </trkpt>
      <trkpt lat="46.1689" lon="6.59831">
        <ele>1855.1</ele>
        <time>2021-12-15T11:36:27Z</time>
      </trkpt>
      <trkpt lat="46.16895" lon="6.59828">
        <ele>1851.4</ele>
        <time>2021-12-15T11:36:28Z</time>
      </trkpt>
      <trkpt lat="46.16903" lon="6.59829">
        <ele>1852.5</ele>
        <time>2021-12-15T11:36:28Z</time>
      </trkpt>
      <trkpt lat="46.16896" lon="6.59822">
        <ele>1853</ele>
        <time>2021-12-15T11:36:29Z</time>
      </trkpt>
      <trkpt lat="46.1691" lon="6.59823">
        <ele>1849.9</ele>
        <time>2021-12-15T11:36:32Z</time>
      </trkpt>
      <trkpt lat="46.16918" lon="6.59826">
        <ele>1845</ele>
        <time>2021-12-15T11:36:38Z</time>
      </trkpt>
      <trkpt lat="46.16917" lon="6.59815">
        <ele>1843.4</ele>
        <time>2021-12-15T11:36:46Z</time>
      </trkpt>
      <trkpt lat="46.1692" lon="6.59807">
        <ele>1840.8</ele>
        <time>2021-12-15T11:36:47Z</time>
      </trkpt>
      <trkpt lat="46.16925" lon="6.59805">
        <ele>1840.5</ele>
        <time>2021-12-15T11:36:48Z</time>
      </trkpt>
      <trkpt lat="46.16927" lon="6.5981">
        <ele>1836.4</ele>
        <time>2021-12-15T11:36:49Z</time>
      </trkpt>
      <trkpt lat="46.16929" lon="6.59806">
        <ele>1833.9</ele>
        <time>2021-12-15T11:36:50Z</time>
      </trkpt>
      <trkpt lat="46.16927" lon="6.59803">
        <ele>1832.8</ele>
        <time>2021-12-15T11:36:51Z</time>
      </trkpt>
      <trkpt lat="46.16927" lon="6.59796">
        <ele>1827</ele>
        <time>2021-12-15T11:36:53Z</time>
      </trkpt>
      <trkpt lat="46.16937" lon="6.59796">
        <ele>1827</ele>
        <time>2021-12-15T11:36:57Z</time>
      </trkpt>
      <trkpt lat="46.16942" lon="6.59798">
        <ele>1825</ele>
        <time>2021-12-15T11:37:01Z</time>
      </trkpt>
      <trkpt lat="46.16944" lon="6.598">
        <ele>1824</ele>
        <time>2021-12-15T11:37:08Z</time>
      </trkpt>
      <trkpt lat="46.1695" lon="6.59801">
        <ele>1820</ele>
        <time>2021-12-15T11:37:28Z</time>
      </trkpt>
      <trkpt lat="46.16948" lon="6.59807">
        <ele>1817</ele>
        <time>2021-12-15T11:37:32Z</time>
      </trkpt>
      <trkpt lat="46.16941" lon="6.59814">
        <ele>1814</ele>
        <time>2021-12-15T11:37:34Z</time>
      </trkpt>
      <trkpt lat="46.16932" lon="6.59835">
        <ele>1807</ele>
        <time>2021-12-15T11:37:41Z</time>
      </trkpt>
      <trkpt lat="46.16934" lon="6.59845">
        <ele>1807.5</ele>
        <time>2021-12-15T11:37:43Z</time>
      </trkpt>
      <trkpt lat="46.16937" lon="6.59847">
        <ele>1803.7</ele>
        <time>2021-12-15T11:37:44Z</time>
      </trkpt>
      <trkpt lat="46.16942" lon="6.59841">
        <ele>1801.1</ele>
        <time>2021-12-15T11:37:46Z</time>
      </trkpt>
      <trkpt lat="46.16943" lon="6.59845">
        <ele>1792.2</ele>
        <time>2021-12-15T11:37:47Z</time>
      </trkpt>
      <trkpt lat="46.16935" lon="6.59847">
        <ele>1789.8</ele>
        <time>2021-12-15T11:37:48Z</time>
      </trkpt>
      <trkpt lat="46.16939" lon="6.59848">
        <ele>1788.2</ele>
        <time>2021-12-15T11:37:49Z</time>
      </trkpt>
      <trkpt lat="46.16938" lon="6.59854">
        <ele>1789.4</ele>
        <time>2021-12-15T11:37:50Z</time>
      </trkpt>
      <trkpt lat="46.1694" lon="6.5986">
        <ele>1792.6</ele>
        <time>2021-12-15T11:37:51Z</time>
      </trkpt>
      <trkpt lat="46.16942" lon="6.59862">
        <ele>1796</ele>
        <time>2021-12-15T11:37:54Z</time>
      </trkpt>
      <trkpt lat="46.16945" lon="6.5986">
        <ele>1792</ele>
        <time>2021-12-15T11:37:58Z</time>
      </trkpt>
      <trkpt lat="46.16953" lon="6.59857">
        <ele>1779</ele>
        <time>2021-12-15T11:38:02Z</time>
      </trkpt>
      <trkpt lat="46.16963" lon="6.5986">
        <ele>1775.7</ele>
        <time>2021-12-15T11:38:03Z</time>
      </trkpt>
      <trkpt lat="46.16968" lon="6.59856">
        <ele>1772.6</ele>
        <time>2021-12-15T11:38:04Z</time>
      </trkpt>
      <trkpt lat="46.16974" lon="6.5986">
        <ele>1771.4</ele>
        <time>2021-12-15T11:38:05Z</time>
      </trkpt>
      <trkpt lat="46.1699" lon="6.59862">
        <ele>1757</ele>
        <time>2021-12-15T11:38:09Z</time>
      </trkpt>
      <trkpt lat="46.16995" lon="6.59864">
        <ele>1749.8</ele>
        <time>2021-12-15T11:38:11Z</time>
      </trkpt>
      <trkpt lat="46.17003" lon="6.59858">
        <ele>1746.8</ele>
        <time>2021-12-15T11:38:12Z</time>
      </trkpt>
      <trkpt lat="46.17009" lon="6.59862">
        <ele>1743</ele>
        <time>2021-12-15T11:38:13Z</time>
      </trkpt>
      <trkpt lat="46.17015" lon="6.59859">
        <ele>1741.1</ele>
        <time>2021-12-15T11:38:15Z</time>
      </trkpt>
      <trkpt lat="46.17023" lon="6.59861">
        <ele>1735.4</ele>
        <time>2021-12-15T11:38:16Z</time>
      </trkpt>
      <trkpt lat="46.17027" lon="6.59855">
        <ele>1733.3</ele>
        <time>2021-12-15T11:38:17Z</time>
      </trkpt>
      <trkpt lat="46.17033" lon="6.59854">
        <ele>1730.5</ele>
        <time>2021-12-15T11:38:18Z</time>
      </trkpt>
      <trkpt lat="46.17038" lon="6.5985">
        <ele>1728.1</ele>
        <time>2021-12-15T11:38:19Z</time>
      </trkpt>
      <trkpt lat="46.17042" lon="6.59844">
        <ele>1725</ele>
        <time>2021-12-15T11:38:20Z</time>
      </trkpt>
      <trkpt lat="46.17048" lon="6.59849">
        <ele>1722.7</ele>
        <time>2021-12-15T11:38:21Z</time>
      </trkpt>
      <trkpt lat="46.17052" lon="6.59845">
        <ele>1717.8</ele>
        <time>2021-12-15T11:38:22Z</time>
      </trkpt>
      <trkpt lat="46.17061" lon="6.59845">
        <ele>1712.7</ele>
        <time>2021-12-15T11:38:24Z</time>
      </trkpt>
      <trkpt lat="46.17069" lon="6.59842">
        <ele>1708.4</ele>
        <time>2021-12-15T11:38:25Z</time>
      </trkpt>
      <trkpt lat="46.17075" lon="6.59845">
        <ele>1705.2</ele>
        <time>2021-12-15T11:38:26Z</time>
      </trkpt>
      <trkpt lat="46.17079" lon="6.59841">
        <ele>1701.3</ele>
        <time>2021-12-15T11:38:27Z</time>
      </trkpt>
      <trkpt lat="46.17084" lon="6.59842">
        <ele>1695.1</ele>
        <time>2021-12-15T11:38:28Z</time>
      </trkpt>
      <trkpt lat="46.17089" lon="6.59845">
        <ele>1690.1</ele>
        <time>2021-12-15T11:38:29Z</time>
      </trkpt>
      <trkpt lat="46.17096" lon="6.59841">
        <ele>1690.1</ele>
        <time>2021-12-15T11:38:30Z</time>
      </trkpt>
      <trkpt lat="46.171" lon="6.59845">
        <ele>1688.4</ele>
        <time>2021-12-15T11:38:30Z</time>
      </trkpt>
      <trkpt lat="46.17108" lon="6.59847">
        <ele>1681.8</ele>
        <time>2021-12-15T11:38:31Z</time>
      </trkpt>
      <trkpt lat="46.17111" lon="6.59846">
        <ele>1672.9</ele>
        <time>2021-12-15T11:38:32Z</time>
      </trkpt>
      <trkpt lat="46.17115" lon="6.59854">
        <ele>1670.9</ele>
        <time>2021-12-15T11:38:33Z</time>
      </trkpt>
      <trkpt lat="46.17126" lon="6.59859">
        <ele>1664.5</ele>
        <time>2021-12-15T11:38:35Z</time>
      </trkpt>
      <trkpt lat="46.1713" lon="6.59866">
        <ele>1663.3</ele>
        <time>2021-12-15T11:38:36Z</time>
      </trkpt>
      <trkpt lat="46.17138" lon="6.59875">
        <ele>1665.7</ele>
        <time>2021-12-15T11:38:37Z</time>
      </trkpt>
      <trkpt lat="46.17144" lon="6.59877">
        <ele>1664</ele>
        <time>2021-12-15T11:38:38Z</time>
      </trkpt>
      <trkpt lat="46.17148" lon="6.59884">
        <ele>1661.8</ele>
        <time>2021-12-15T11:38:39Z</time>
      </trkpt>
      <trkpt lat="46.17151" lon="6.59888">
        <ele>1658.8</ele>
        <time>2021-12-15T11:38:40Z</time>
      </trkpt>
      <trkpt lat="46.17159" lon="6.59888">
        <ele>1661.2</ele>
        <time>2021-12-15T11:38:41Z</time>
      </trkpt>
      <trkpt lat="46.17155" lon="6.59893">
        <ele>1658.8</ele>
        <time>2021-12-15T11:38:42Z</time>
      </trkpt>
      <trkpt lat="46.17153" lon="6.59906">
        <ele>1662.3</ele>
        <time>2021-12-15T11:38:44Z</time>
      </trkpt>
      <trkpt lat="46.17155" lon="6.59909">
        <ele>1656</ele>
        <time>2021-12-15T11:38:59Z</time>
      </trkpt>
      <trkpt lat="46.17156" lon="6.59927">
        <ele>1661</ele>
        <time>2021-12-15T11:39:55Z</time>
      </trkpt>
      <trkpt lat="46.1716" lon="6.59936">
        <ele>1658.3</ele>
        <time>2021-12-15T11:39:58Z</time>
      </trkpt>
      <trkpt lat="46.17163" lon="6.5994">
        <ele>1656.9</ele>
        <time>2021-12-15T11:39:59Z</time>
      </trkpt>
      <trkpt lat="46.17168" lon="6.5994">
        <ele>1651.8</ele>
        <time>2021-12-15T11:40:00Z</time>
      </trkpt>
      <trkpt lat="46.17174" lon="6.59948">
        <ele>1645.6</ele>
        <time>2021-12-15T11:40:02Z</time>
      </trkpt>
      <trkpt lat="46.17178" lon="6.59953">
        <ele>1642.7</ele>
        <time>2021-12-15T11:40:03Z</time>
      </trkpt>
      <trkpt lat="46.17174" lon="6.59954">
        <ele>1634.8</ele>
        <time>2021-12-15T11:40:04Z</time>
      </trkpt>
      <trkpt lat="46.17179" lon="6.59961">
        <ele>1628.9</ele>
        <time>2021-12-15T11:40:05Z</time>
      </trkpt>
      <trkpt lat="46.17186" lon="6.59967">
        <ele>1624.5</ele>
        <time>2021-12-15T11:40:06Z</time>
      </trkpt>
      <trkpt lat="46.1719" lon="6.59972">
        <ele>1622.9</ele>
        <time>2021-12-15T11:40:07Z</time>
      </trkpt>
      <trkpt lat="46.17195" lon="6.59968">
        <ele>1623.2</ele>
        <time>2021-12-15T11:40:08Z</time>
      </trkpt>
      <trkpt lat="46.17207" lon="6.59973">
        <ele>1620</ele>
        <time>2021-12-15T11:40:10Z</time>
      </trkpt>
      <trkpt lat="46.17212" lon="6.59976">
        <ele>1619</ele>
        <time>2021-12-15T11:40:11Z</time>
      </trkpt>
      <trkpt lat="46.17217" lon="6.59985">
        <ele>1618</ele>
        <time>2021-12-15T11:40:13Z</time>
      </trkpt>
      <trkpt lat="46.17224" lon="6.5998">
        <ele>1613</ele>
        <time>2021-12-15T11:40:14Z</time>
      </trkpt>
      <trkpt lat="46.17268" lon="6.60005">
        <ele>1600</ele>
        <time>2021-12-15T11:40:19Z</time>
      </trkpt>
      <trkpt lat="46.17279" lon="6.60016">
        <ele>1594</ele>
        <time>2021-12-15T11:40:21Z</time>
      </trkpt>
      <trkpt lat="46.17288" lon="6.60018">
        <ele>1599.4</ele>
        <time>2021-12-15T11:40:24Z</time>
      </trkpt>
      <trkpt lat="46.17291" lon="6.60029">
        <ele>1592</ele>
        <time>2021-12-15T11:41:33Z</time>
      </trkpt>
      <trkpt lat="46.17289" lon="6.60025">
        <ele>1595</ele>
        <time>2021-12-15T11:41:41Z</time>
      </trkpt>
      <trkpt lat="46.17289" lon="6.60022">
        <ele>1591</ele>
        <time>2021-12-15T11:41:46Z</time>
      </trkpt>
      <trkpt lat="46.17286" lon="6.60017">
        <ele>1583</ele>
        <time>2021-12-15T11:42:17Z</time>
      </trkpt>
      <trkpt lat="46.17294" lon="6.60028">
        <ele>1593.9</ele>
        <time>2021-12-15T11:42:31Z</time>
      </trkpt>
      <trkpt lat="46.17298" lon="6.60032">
        <ele>1591.9</ele>
        <time>2021-12-15T11:42:32Z</time>
      </trkpt>
      <trkpt lat="46.17303" lon="6.60027">
        <ele>1590.6</ele>
        <time>2021-12-15T11:42:33Z</time>
      </trkpt>
      <trkpt lat="46.17309" lon="6.60023">
        <ele>1588.6</ele>
        <time>2021-12-15T11:42:34Z</time>
      </trkpt>
      <trkpt lat="46.17312" lon="6.6002">
        <ele>1586.8</ele>
        <time>2021-12-15T11:42:35Z</time>
      </trkpt>
      <trkpt lat="46.1732" lon="6.60012">
        <ele>1585.2</ele>
        <time>2021-12-15T11:42:37Z</time>
      </trkpt>
      <trkpt lat="46.17324" lon="6.60013">
        <ele>1583.7</ele>
        <time>2021-12-15T11:42:38Z</time>
      </trkpt>
      <trkpt lat="46.17338" lon="6.59992">
        <ele>1581.7</ele>
        <time>2021-12-15T11:42:48Z</time>
      </trkpt>
      <trkpt lat="46.17341" lon="6.5998">
        <ele>1575</ele>
        <time>2021-12-15T11:42:52Z</time>
      </trkpt>
      <trkpt lat="46.17341" lon="6.59971">
        <ele>1578.2</ele>
        <time>2021-12-15T11:42:53Z</time>
      </trkpt>
      <trkpt lat="46.1734" lon="6.59962">
        <ele>1577.1</ele>
        <time>2021-12-15T11:42:55Z</time>
      </trkpt>
      <trkpt lat="46.1734" lon="6.59955">
        <ele>1573</ele>
        <time>2021-12-15T11:42:57Z</time>
      </trkpt>
      <trkpt lat="46.17343" lon="6.59951">
        <ele>1569</ele>
        <time>2021-12-15T11:43:00Z</time>
      </trkpt>
      <trkpt lat="46.1735" lon="6.59955">
        <ele>1567</ele>
        <time>2021-12-15T11:43:01Z</time>
      </trkpt>
      <trkpt lat="46.17352" lon="6.59951">
        <ele>1566</ele>
        <time>2021-12-15T11:43:03Z</time>
      </trkpt>
      <trkpt lat="46.17361" lon="6.59976">
        <ele>1557</ele>
        <time>2021-12-15T11:43:12Z</time>
      </trkpt>
      <trkpt lat="46.17365" lon="6.5997">
        <ele>1553</ele>
        <time>2021-12-15T11:43:20Z</time>
      </trkpt>
      <trkpt lat="46.17373" lon="6.59966">
        <ele>1549.7</ele>
        <time>2021-12-15T11:43:22Z</time>
      </trkpt>
      <trkpt lat="46.17378" lon="6.5996">
        <ele>1546.9</ele>
        <time>2021-12-15T11:43:24Z</time>
      </trkpt>
      <trkpt lat="46.17389" lon="6.59965">
        <ele>1546.9</ele>
        <time>2021-12-15T11:43:30Z</time>
      </trkpt>
      <trkpt lat="46.17389" lon="6.59969">
        <ele>1542.7</ele>
        <time>2021-12-15T11:43:31Z</time>
      </trkpt>
      <trkpt lat="46.17391" lon="6.59973">
        <ele>1533</ele>
        <time>2021-12-15T11:43:33Z</time>
      </trkpt>
      <trkpt lat="46.1739" lon="6.5998">
        <ele>1528</ele>
        <time>2021-12-15T11:43:35Z</time>
      </trkpt>
      <trkpt lat="46.17394" lon="6.59982">
        <ele>1522</ele>
        <time>2021-12-15T11:43:36Z</time>
      </trkpt>
      <trkpt lat="46.17395" lon="6.59979">
        <ele>1521</ele>
        <time>2021-12-15T11:43:38Z</time>
      </trkpt>
      <trkpt lat="46.1741" lon="6.59985">
        <ele>1513.8</ele>
        <time>2021-12-15T11:43:41Z</time>
      </trkpt>
      <trkpt lat="46.17415" lon="6.59989">
        <ele>1512.1</ele>
        <time>2021-12-15T11:43:42Z</time>
      </trkpt>
      <trkpt lat="46.17443" lon="6.59998">
        <ele>1502.2</ele>
        <time>2021-12-15T11:43:44Z</time>
      </trkpt>
      <trkpt lat="46.17451" lon="6.59995">
        <ele>1500.6</ele>
        <time>2021-12-15T11:43:45Z</time>
      </trkpt>
      <trkpt lat="46.17458" lon="6.59983">
        <ele>1501.8</ele>
        <time>2021-12-15T11:43:46Z</time>
      </trkpt>
      <trkpt lat="46.17467" lon="6.5998">
        <ele>1503.8</ele>
        <time>2021-12-15T11:43:47Z</time>
      </trkpt>
      <trkpt lat="46.17478" lon="6.59979">
        <ele>1506.9</ele>
        <time>2021-12-15T11:43:48Z</time>
      </trkpt>
      <trkpt lat="46.17483" lon="6.59975">
        <ele>1505</ele>
        <time>2021-12-15T11:43:50Z</time>
      </trkpt>
      <trkpt lat="46.1748" lon="6.59963">
        <ele>1507.5</ele>
        <time>2021-12-15T11:43:51Z</time>
      </trkpt>
      <trkpt lat="46.17478" lon="6.59969">
        <ele>1500</ele>
        <time>2021-12-15T11:44:11Z</time>
      </trkpt>
      <trkpt lat="46.17481" lon="6.59973">
        <ele>1503.9</ele>
        <time>2021-12-15T11:44:28Z</time>
      </trkpt>
      <trkpt lat="46.17482" lon="6.59978">
        <ele>1503</ele>
        <time>2021-12-15T11:44:29Z</time>
      </trkpt>
      <trkpt lat="46.17481" lon="6.59994">
        <ele>1498.4</ele>
        <time>2021-12-15T11:44:32Z</time>
      </trkpt>
      <trkpt lat="46.17484" lon="6.6">
        <ele>1496.4</ele>
        <time>2021-12-15T11:44:33Z</time>
      </trkpt>
      <trkpt lat="46.17496" lon="6.60017">
        <ele>1496.6</ele>
        <time>2021-12-15T11:44:37Z</time>
      </trkpt>
      <trkpt lat="46.17499" lon="6.60024">
        <ele>1496.5</ele>
        <time>2021-12-15T11:44:39Z</time>
      </trkpt>
      <trkpt lat="46.17514" lon="6.60042">
        <ele>1495</ele>
        <time>2021-12-15T11:44:45Z</time>
      </trkpt>
      <trkpt lat="46.17515" lon="6.6005">
        <ele>1495.5</ele>
        <time>2021-12-15T11:44:46Z</time>
      </trkpt>
      <trkpt lat="46.17519" lon="6.60055">
        <ele>1495</ele>
        <time>2021-12-15T11:44:47Z</time>
      </trkpt>
      <trkpt lat="46.17522" lon="6.60058">
        <ele>1494.4</ele>
        <time>2021-12-15T11:44:49Z</time>
      </trkpt>
      <trkpt lat="46.17537" lon="6.60082">
        <ele>1491</ele>
        <time>2021-12-15T11:44:56Z</time>
      </trkpt>
      <trkpt lat="46.17545" lon="6.60094">
        <ele>1486.6</ele>
        <time>2021-12-15T11:45:00Z</time>
      </trkpt>
      <trkpt lat="46.17552" lon="6.60108">
        <ele>1487.7</ele>
        <time>2021-12-15T11:45:04Z</time>
      </trkpt>
      <trkpt lat="46.17553" lon="6.60115">
        <ele>1487</ele>
        <time>2021-12-15T11:45:07Z</time>
      </trkpt>
      <trkpt lat="46.17559" lon="6.60122">
        <ele>1489.7</ele>
        <time>2021-12-15T11:45:08Z</time>
      </trkpt>
      <trkpt lat="46.17563" lon="6.6013">
        <ele>1480</ele>
        <time>2021-12-15T11:45:45Z</time>
      </trkpt>
      <trkpt lat="46.17568" lon="6.60128">
        <ele>1484</ele>
        <time>2021-12-15T11:50:05Z</time>
      </trkpt>
      <trkpt lat="46.17563" lon="6.60131">
        <ele>1479</ele>
        <time>2021-12-15T11:50:27Z</time>
      </trkpt>
      <trkpt lat="46.17563" lon="6.60136">
        <ele>1482</ele>
        <time>2021-12-15T11:50:58Z</time>
      </trkpt>
      <trkpt lat="46.17563" lon="6.60131">
        <ele>1478</ele>
        <time>2021-12-15T11:51:35Z</time>
      </trkpt>
      <trkpt lat="46.17561" lon="6.60134">
        <ele>1482.5</ele>
        <time>2021-12-15T11:51:48Z</time>
      </trkpt>
      <trkpt lat="46.17558" lon="6.60135">
        <ele>1480</ele>
        <time>2021-12-15T11:51:53Z</time>
      </trkpt>
      <trkpt lat="46.17562" lon="6.60134">
        <ele>1482.3</ele>
        <time>2021-12-15T11:51:57Z</time>
      </trkpt>
      <trkpt lat="46.17555" lon="6.60135">
        <ele>1477</ele>
        <time>2021-12-15T11:52:04Z</time>
      </trkpt>
      <trkpt lat="46.1755" lon="6.60142">
        <ele>1477</ele>
        <time>2021-12-15T11:52:07Z</time>
      </trkpt>
      <trkpt lat="46.17556" lon="6.60139">
        <ele>1477</ele>
        <time>2021-12-15T11:52:12Z</time>
      </trkpt>
      <trkpt lat="46.17552" lon="6.60133">
        <ele>1477</ele>
        <time>2021-12-15T11:52:32Z</time>
      </trkpt>
      <trkpt lat="46.17552" lon="6.60129">
        <ele>1481</ele>
        <time>2021-12-15T11:52:48Z</time>
      </trkpt>
      <trkpt lat="46.17547" lon="6.60127">
        <ele>1480</ele>
        <time>2021-12-15T11:52:55Z</time>
      </trkpt>
      <trkpt lat="46.17552" lon="6.60126">
        <ele>1482</ele>
        <time>2021-12-15T11:52:59Z</time>
      </trkpt>
      <trkpt lat="46.17563" lon="6.60121">
        <ele>1482</ele>
        <time>2021-12-15T11:53:04Z</time>
      </trkpt>
      <trkpt lat="46.17566" lon="6.60124">
        <ele>1483</ele>
        <time>2021-12-15T11:53:07Z</time>
      </trkpt>
      <trkpt lat="46.17571" lon="6.60126">
        <ele>1486</ele>
        <time>2021-12-15T11:53:12Z</time>
      </trkpt>
      <trkpt lat="46.17574" lon="6.60123">
        <ele>1484</ele>
        <time>2021-12-15T11:53:16Z</time>
      </trkpt>
      <trkpt lat="46.17575" lon="6.60116">
        <ele>1484.1</ele>
        <time>2021-12-15T11:53:20Z</time>
      </trkpt>
      <trkpt lat="46.17575" lon="6.60106">
        <ele>1494</ele>
        <time>2021-12-15T11:53:29Z</time>
      </trkpt>
      <trkpt lat="46.17571" lon="6.60106">
        <ele>1492</ele>
        <time>2021-12-15T11:53:32Z</time>
      </trkpt>
      <trkpt lat="46.17573" lon="6.60101">
        <ele>1488</ele>
        <time>2021-12-15T11:53:37Z</time>
      </trkpt>
      <trkpt lat="46.17574" lon="6.60094">
        <ele>1488</ele>
        <time>2021-12-15T11:53:42Z</time>
      </trkpt>
      <trkpt lat="46.17571" lon="6.60088">
        <ele>1483</ele>
        <time>2021-12-15T11:53:48Z</time>
      </trkpt>
      <trkpt lat="46.17571" lon="6.60085">
        <ele>1484</ele>
        <time>2021-12-15T11:53:52Z</time>
      </trkpt>
      <trkpt lat="46.17578" lon="6.6009">
        <ele>1492</ele>
        <time>2021-12-15T11:53:59Z</time>
      </trkpt>
      <trkpt lat="46.1758" lon="6.60094">
        <ele>1490</ele>
        <time>2021-12-15T11:54:03Z</time>
      </trkpt>
      <trkpt lat="46.17586" lon="6.60094">
        <ele>1490.3</ele>
        <time>2021-12-15T11:54:10Z</time>
      </trkpt>
      <trkpt lat="46.17587" lon="6.60096">
        <ele>1493</ele>
        <time>2021-12-15T11:54:12Z</time>
      </trkpt>
      <trkpt lat="46.17594" lon="6.60092">
        <ele>1499</ele>
        <time>2021-12-15T11:54:23Z</time>
      </trkpt>
      <trkpt lat="46.17598" lon="6.60081">
        <ele>1497</ele>
        <time>2021-12-15T11:54:36Z</time>
      </trkpt>
      <trkpt lat="46.17601" lon="6.60081">
        <ele>1506</ele>
        <time>2021-12-15T11:54:43Z</time>
      </trkpt>
      <trkpt lat="46.17605" lon="6.60073">
        <ele>1506</ele>
        <time>2021-12-15T11:54:49Z</time>
      </trkpt>
      <trkpt lat="46.17597" lon="6.60063">
        <ele>1509</ele>
        <time>2021-12-15T11:55:01Z</time>
      </trkpt>
      <trkpt lat="46.17595" lon="6.60058">
        <ele>1507</ele>
        <time>2021-12-15T11:55:03Z</time>
      </trkpt>
      <trkpt lat="46.17592" lon="6.60057">
        <ele>1504</ele>
        <time>2021-12-15T11:55:07Z</time>
      </trkpt>
      <trkpt lat="46.17587" lon="6.60047">
        <ele>1506</ele>
        <time>2021-12-15T11:55:16Z</time>
      </trkpt>
      <trkpt lat="46.17589" lon="6.6004">
        <ele>1511</ele>
        <time>2021-12-15T11:55:22Z</time>
      </trkpt>
      <trkpt lat="46.17589" lon="6.60035">
        <ele>1508</ele>
        <time>2021-12-15T11:55:24Z</time>
      </trkpt>
      <trkpt lat="46.17586" lon="6.60028">
        <ele>1513</ele>
        <time>2021-12-15T11:55:30Z</time>
      </trkpt>
      <trkpt lat="46.17585" lon="6.6002">
        <ele>1512</ele>
        <time>2021-12-15T11:55:34Z</time>
      </trkpt>
      <trkpt lat="46.17587" lon="6.60011">
        <ele>1508</ele>
        <time>2021-12-15T11:55:43Z</time>
      </trkpt>
      <trkpt lat="46.17579" lon="6.60002">
        <ele>1508</ele>
        <time>2021-12-15T11:55:52Z</time>
      </trkpt>
      <trkpt lat="46.1758" lon="6.59996">
        <ele>1515</ele>
        <time>2021-12-15T11:55:58Z</time>
      </trkpt>
      <trkpt lat="46.17577" lon="6.59985">
        <ele>1524</ele>
        <time>2021-12-15T11:56:09Z</time>
      </trkpt>
      <trkpt lat="46.17578" lon="6.5998">
        <ele>1526</ele>
        <time>2021-12-15T11:56:12Z</time>
      </trkpt>
      <trkpt lat="46.17576" lon="6.59974">
        <ele>1525</ele>
        <time>2021-12-15T11:56:19Z</time>
      </trkpt>
      <trkpt lat="46.17575" lon="6.59965">
        <ele>1522</ele>
        <time>2021-12-15T11:56:26Z</time>
      </trkpt>
      <trkpt lat="46.17574" lon="6.59962">
        <ele>1520</ele>
        <time>2021-12-15T11:56:30Z</time>
      </trkpt>
      <trkpt lat="46.17575" lon="6.59959">
        <ele>1523</ele>
        <time>2021-12-15T11:56:32Z</time>
      </trkpt>
      <trkpt lat="46.17572" lon="6.59957">
        <ele>1528</ele>
        <time>2021-12-15T11:56:35Z</time>
      </trkpt>
      <trkpt lat="46.17568" lon="6.5995">
        <ele>1528</ele>
        <time>2021-12-15T11:56:39Z</time>
      </trkpt>
      <trkpt lat="46.17568" lon="6.59943">
        <ele>1530.4</ele>
        <time>2021-12-15T11:56:45Z</time>
      </trkpt>
      <trkpt lat="46.17566" lon="6.59939">
        <ele>1530</ele>
        <time>2021-12-15T11:56:47Z</time>
      </trkpt>
      <trkpt lat="46.17567" lon="6.59935">
        <ele>1533</ele>
        <time>2021-12-15T11:56:52Z</time>
      </trkpt>
      <trkpt lat="46.17565" lon="6.59932">
        <ele>1533</ele>
        <time>2021-12-15T11:56:55Z</time>
      </trkpt>
      <trkpt lat="46.17566" lon="6.59924">
        <ele>1533</ele>
        <time>2021-12-15T11:57:01Z</time>
      </trkpt>
      <trkpt lat="46.17557" lon="6.59905">
        <ele>1530</ele>
        <time>2021-12-15T11:57:21Z</time>
      </trkpt>
      <trkpt lat="46.17558" lon="6.59893">
        <ele>1522.8</ele>
        <time>2021-12-15T11:57:25Z</time>
      </trkpt>
      <trkpt lat="46.17559" lon="6.59899">
        <ele>1526</ele>
        <time>2021-12-15T11:57:28Z</time>
      </trkpt>
      <trkpt lat="46.17563" lon="6.59899">
        <ele>1529</ele>
        <time>2021-12-15T11:57:31Z</time>
      </trkpt>
      <trkpt lat="46.1757" lon="6.59903">
        <ele>1525</ele>
        <time>2021-12-15T11:57:41Z</time>
      </trkpt>
      <trkpt lat="46.17576" lon="6.59908">
        <ele>1533</ele>
        <time>2021-12-15T11:57:50Z</time>
      </trkpt>
      <trkpt lat="46.17579" lon="6.59917">
        <ele>1542</ele>
        <time>2021-12-15T11:58:01Z</time>
      </trkpt>
      <trkpt lat="46.17583" lon="6.59917">
        <ele>1536</ele>
        <time>2021-12-15T11:58:06Z</time>
      </trkpt>
      <trkpt lat="46.1759" lon="6.59926">
        <ele>1537</ele>
        <time>2021-12-15T11:58:16Z</time>
      </trkpt>
      <trkpt lat="46.17592" lon="6.59931">
        <ele>1541</ele>
        <time>2021-12-15T11:58:19Z</time>
      </trkpt>
      <trkpt lat="46.17594" lon="6.59929">
        <ele>1539</ele>
        <time>2021-12-15T11:58:22Z</time>
      </trkpt>
      <trkpt lat="46.176" lon="6.5992">
        <ele>1535</ele>
        <time>2021-12-15T11:58:34Z</time>
      </trkpt>
      <trkpt lat="46.17603" lon="6.59903">
        <ele>1522.4</ele>
        <time>2021-12-15T11:58:35Z</time>
      </trkpt>
      <trkpt lat="46.17604" lon="6.59913">
        <ele>1531</ele>
        <time>2021-12-15T11:58:39Z</time>
      </trkpt>
      <trkpt lat="46.17608" lon="6.59918">
        <ele>1539</ele>
        <time>2021-12-15T11:58:48Z</time>
      </trkpt>
      <trkpt lat="46.17611" lon="6.59919">
        <ele>1542</ele>
        <time>2021-12-15T11:58:52Z</time>
      </trkpt>
      <trkpt lat="46.17613" lon="6.59917">
        <ele>1541.1</ele>
        <time>2021-12-15T11:58:54Z</time>
      </trkpt>
      <trkpt lat="46.17618" lon="6.59922">
        <ele>1548</ele>
        <time>2021-12-15T11:58:59Z</time>
      </trkpt>
      <trkpt lat="46.17624" lon="6.59919">
        <ele>1547</ele>
        <time>2021-12-15T11:59:08Z</time>
      </trkpt>
      <trkpt lat="46.17628" lon="6.59913">
        <ele>1545</ele>
        <time>2021-12-15T11:59:14Z</time>
      </trkpt>
      <trkpt lat="46.1763" lon="6.59914">
        <ele>1548</ele>
        <time>2021-12-15T11:59:21Z</time>
      </trkpt>
      <trkpt lat="46.17632" lon="6.59904">
        <ele>1552</ele>
        <time>2021-12-15T11:59:47Z</time>
      </trkpt>
      <trkpt lat="46.17632" lon="6.599">
        <ele>1555</ele>
        <time>2021-12-15T11:59:51Z</time>
      </trkpt>
      <trkpt lat="46.17625" lon="6.59893">
        <ele>1552</ele>
        <time>2021-12-15T12:00:00Z</time>
      </trkpt>
      <trkpt lat="46.17628" lon="6.59891">
        <ele>1559</ele>
        <time>2021-12-15T12:00:03Z</time>
      </trkpt>
      <trkpt lat="46.17625" lon="6.59889">
        <ele>1559</ele>
        <time>2021-12-15T12:00:06Z</time>
      </trkpt>
      <trkpt lat="46.17625" lon="6.59886">
        <ele>1560</ele>
        <time>2021-12-15T12:00:09Z</time>
      </trkpt>
      <trkpt lat="46.17625" lon="6.59882">
        <ele>1562</ele>
        <time>2021-12-15T12:00:13Z</time>
      </trkpt>
      <trkpt lat="46.17618" lon="6.59869">
        <ele>1569</ele>
        <time>2021-12-15T12:00:27Z</time>
      </trkpt>
      <trkpt lat="46.17612" lon="6.59864">
        <ele>1569</ele>
        <time>2021-12-15T12:00:34Z</time>
      </trkpt>
      <trkpt lat="46.17619" lon="6.59861">
        <ele>1576</ele>
        <time>2021-12-15T12:00:39Z</time>
      </trkpt>
      <trkpt lat="46.17615" lon="6.59859">
        <ele>1578</ele>
        <time>2021-12-15T12:00:43Z</time>
      </trkpt>
      <trkpt lat="46.17615" lon="6.59855">
        <ele>1576</ele>
        <time>2021-12-15T12:00:47Z</time>
      </trkpt>
      <trkpt lat="46.17609" lon="6.59846">
        <ele>1571.6</ele>
        <time>2021-12-15T12:00:54Z</time>
      </trkpt>
      <trkpt lat="46.17612" lon="6.59848">
        <ele>1577</ele>
        <time>2021-12-15T12:00:56Z</time>
      </trkpt>
      <trkpt lat="46.17606" lon="6.59837">
        <ele>1569</ele>
        <time>2021-12-15T12:01:05Z</time>
      </trkpt>
      <trkpt lat="46.17607" lon="6.5983">
        <ele>1567</ele>
        <time>2021-12-15T12:01:10Z</time>
      </trkpt>
      <trkpt lat="46.17601" lon="6.59821">
        <ele>1559.1</ele>
        <time>2021-12-15T12:01:12Z</time>
      </trkpt>
      <trkpt lat="46.17605" lon="6.59825">
        <ele>1562</ele>
        <time>2021-12-15T12:01:14Z</time>
      </trkpt>
      <trkpt lat="46.17605" lon="6.59819">
        <ele>1566</ele>
        <time>2021-12-15T12:01:21Z</time>
      </trkpt>
      <trkpt lat="46.17604" lon="6.59815">
        <ele>1566</ele>
        <time>2021-12-15T12:01:25Z</time>
      </trkpt>
      <trkpt lat="46.17606" lon="6.59812">
        <ele>1566</ele>
        <time>2021-12-15T12:01:28Z</time>
      </trkpt>
      <trkpt lat="46.17601" lon="6.59804">
        <ele>1554.5</ele>
        <time>2021-12-15T12:01:30Z</time>
      </trkpt>
      <trkpt lat="46.17606" lon="6.59806">
        <ele>1559</ele>
        <time>2021-12-15T12:01:31Z</time>
      </trkpt>
      <trkpt lat="46.17611" lon="6.59804">
        <ele>1556</ele>
        <time>2021-12-15T12:01:35Z</time>
      </trkpt>
      <trkpt lat="46.17615" lon="6.5982">
        <ele>1574</ele>
        <time>2021-12-15T12:01:47Z</time>
      </trkpt>
      <trkpt lat="46.17626" lon="6.59823">
        <ele>1579.9</ele>
        <time>2021-12-15T12:02:01Z</time>
      </trkpt>
      <trkpt lat="46.17628" lon="6.59817">
        <ele>1576</ele>
        <time>2021-12-15T12:02:03Z</time>
      </trkpt>
      <trkpt lat="46.17633" lon="6.5981">
        <ele>1571</ele>
        <time>2021-12-15T12:02:09Z</time>
      </trkpt>
      <trkpt lat="46.17634" lon="6.59815">
        <ele>1578</ele>
        <time>2021-12-15T12:02:11Z</time>
      </trkpt>
      <trkpt lat="46.17637" lon="6.59816">
        <ele>1580</ele>
        <time>2021-12-15T12:02:15Z</time>
      </trkpt>
      <trkpt lat="46.17642" lon="6.59816">
        <ele>1584</ele>
        <time>2021-12-15T12:02:25Z</time>
      </trkpt>
      <trkpt lat="46.17646" lon="6.59822">
        <ele>1587</ele>
        <time>2021-12-15T12:02:29Z</time>
      </trkpt>
      <trkpt lat="46.17649" lon="6.59822">
        <ele>1588</ele>
        <time>2021-12-15T12:02:32Z</time>
      </trkpt>
      <trkpt lat="46.17653" lon="6.5982">
        <ele>1586</ele>
        <time>2021-12-15T12:02:37Z</time>
      </trkpt>
      <trkpt lat="46.17656" lon="6.5982">
        <ele>1589</ele>
        <time>2021-12-15T12:02:43Z</time>
      </trkpt>
      <trkpt lat="46.17661" lon="6.59822">
        <ele>1589</ele>
        <time>2021-12-15T12:02:50Z</time>
      </trkpt>
      <trkpt lat="46.17666" lon="6.59816">
        <ele>1590</ele>
        <time>2021-12-15T12:02:58Z</time>
      </trkpt>
      <trkpt lat="46.17667" lon="6.59813">
        <ele>1590</ele>
        <time>2021-12-15T12:03:02Z</time>
      </trkpt>
      <trkpt lat="46.17666" lon="6.59805">
        <ele>1588</ele>
        <time>2021-12-15T12:03:07Z</time>
      </trkpt>
      <trkpt lat="46.17669" lon="6.59792">
        <ele>1604</ele>
        <time>2021-12-15T12:03:21Z</time>
      </trkpt>
      <trkpt lat="46.17666" lon="6.59786">
        <ele>1594</ele>
        <time>2021-12-15T12:03:27Z</time>
      </trkpt>
      <trkpt lat="46.17665" lon="6.59775">
        <ele>1592.9</ele>
        <time>2021-12-15T12:03:34Z</time>
      </trkpt>
      <trkpt lat="46.17668" lon="6.59773">
        <ele>1590</ele>
        <time>2021-12-15T12:03:38Z</time>
      </trkpt>
      <trkpt lat="46.1767" lon="6.59781">
        <ele>1601.4</ele>
        <time>2021-12-15T12:03:45Z</time>
      </trkpt>
      <trkpt lat="46.17671" lon="6.59774">
        <ele>1597</ele>
        <time>2021-12-15T12:03:48Z</time>
      </trkpt>
      <trkpt lat="46.17675" lon="6.59774">
        <ele>1604</ele>
        <time>2021-12-15T12:03:53Z</time>
      </trkpt>
      <trkpt lat="46.17676" lon="6.5977">
        <ele>1603</ele>
        <time>2021-12-15T12:03:56Z</time>
      </trkpt>
      <trkpt lat="46.17679" lon="6.59768">
        <ele>1605</ele>
        <time>2021-12-15T12:04:00Z</time>
      </trkpt>
      <trkpt lat="46.17686" lon="6.59759">
        <ele>1607.8</ele>
        <time>2021-12-15T12:04:10Z</time>
      </trkpt>
      <trkpt lat="46.17688" lon="6.59759">
        <ele>1608</ele>
        <time>2021-12-15T12:04:13Z</time>
      </trkpt>
      <trkpt lat="46.17691" lon="6.59755">
        <ele>1606</ele>
        <time>2021-12-15T12:04:17Z</time>
      </trkpt>
      <trkpt lat="46.17693" lon="6.59758">
        <ele>1608</ele>
        <time>2021-12-15T12:04:19Z</time>
      </trkpt>
      <trkpt lat="46.17704" lon="6.59753">
        <ele>1608</ele>
        <time>2021-12-15T12:04:32Z</time>
      </trkpt>
      <trkpt lat="46.17707" lon="6.5975">
        <ele>1607</ele>
        <time>2021-12-15T12:04:37Z</time>
      </trkpt>
      <trkpt lat="46.17709" lon="6.59741">
        <ele>1608</ele>
        <time>2021-12-15T12:04:45Z</time>
      </trkpt>
      <trkpt lat="46.17711" lon="6.59739">
        <ele>1610</ele>
        <time>2021-12-15T12:04:50Z</time>
      </trkpt>
      <trkpt lat="46.17714" lon="6.59744">
        <ele>1623.2</ele>
        <time>2021-12-15T12:04:53Z</time>
      </trkpt>
      <trkpt lat="46.17716" lon="6.5973">
        <ele>1619</ele>
        <time>2021-12-15T12:05:00Z</time>
      </trkpt>
      <trkpt lat="46.17718" lon="6.59718">
        <ele>1622</ele>
        <time>2021-12-15T12:05:11Z</time>
      </trkpt>
      <trkpt lat="46.17721" lon="6.59712">
        <ele>1620</ele>
        <time>2021-12-15T12:05:17Z</time>
      </trkpt>
      <trkpt lat="46.17719" lon="6.59708">
        <ele>1619</ele>
        <time>2021-12-15T12:05:31Z</time>
      </trkpt>
      <trkpt lat="46.17724" lon="6.59706">
        <ele>1616</ele>
        <time>2021-12-15T12:05:50Z</time>
      </trkpt>
      <trkpt lat="46.17727" lon="6.59708">
        <ele>1622</ele>
        <time>2021-12-15T12:05:56Z</time>
      </trkpt>
      <trkpt lat="46.1773" lon="6.59705">
        <ele>1618</ele>
        <time>2021-12-15T12:06:00Z</time>
      </trkpt>
      <trkpt lat="46.17735" lon="6.59707">
        <ele>1624</ele>
        <time>2021-12-15T12:06:07Z</time>
      </trkpt>
      <trkpt lat="46.17738" lon="6.59714">
        <ele>1629.9</ele>
        <time>2021-12-15T12:06:13Z</time>
      </trkpt>
      <trkpt lat="46.17745" lon="6.5971">
        <ele>1633.4</ele>
        <time>2021-12-15T12:06:23Z</time>
      </trkpt>
      <trkpt lat="46.17747" lon="6.59715">
        <ele>1636</ele>
        <time>2021-12-15T12:06:25Z</time>
      </trkpt>
      <trkpt lat="46.17748" lon="6.59719">
        <ele>1636</ele>
        <time>2021-12-15T12:06:30Z</time>
      </trkpt>
      <trkpt lat="46.17747" lon="6.5971">
        <ele>1632</ele>
        <time>2021-12-15T12:06:34Z</time>
      </trkpt>
      <trkpt lat="46.17749" lon="6.59706">
        <ele>1632</ele>
        <time>2021-12-15T12:06:38Z</time>
      </trkpt>
      <trkpt lat="46.17749" lon="6.59697">
        <ele>1629</ele>
        <time>2021-12-15T12:06:44Z</time>
      </trkpt>
      <trkpt lat="46.17753" lon="6.59694">
        <ele>1632</ele>
        <time>2021-12-15T12:06:54Z</time>
      </trkpt>
      <trkpt lat="46.17756" lon="6.59698">
        <ele>1635</ele>
        <time>2021-12-15T12:07:01Z</time>
      </trkpt>
      <trkpt lat="46.17766" lon="6.59691">
        <ele>1647</ele>
        <time>2021-12-15T12:07:09Z</time>
      </trkpt>
      <trkpt lat="46.17756" lon="6.59686">
        <ele>1645</ele>
        <time>2021-12-15T12:07:13Z</time>
      </trkpt>
      <trkpt lat="46.17754" lon="6.59683">
        <ele>1644</ele>
        <time>2021-12-15T12:07:15Z</time>
      </trkpt>
      <trkpt lat="46.17751" lon="6.59675">
        <ele>1639.9</ele>
        <time>2021-12-15T12:07:20Z</time>
      </trkpt>
      <trkpt lat="46.17748" lon="6.59673">
        <ele>1637</ele>
        <time>2021-12-15T12:07:22Z</time>
      </trkpt>
      <trkpt lat="46.17746" lon="6.59661">
        <ele>1639</ele>
        <time>2021-12-15T12:07:31Z</time>
      </trkpt>
      <trkpt lat="46.17749" lon="6.59659">
        <ele>1648</ele>
        <time>2021-12-15T12:07:35Z</time>
      </trkpt>
      <trkpt lat="46.17743" lon="6.59654">
        <ele>1644</ele>
        <time>2021-12-15T12:07:41Z</time>
      </trkpt>
      <trkpt lat="46.17744" lon="6.5965">
        <ele>1640</ele>
        <time>2021-12-15T12:07:50Z</time>
      </trkpt>
      <trkpt lat="46.17747" lon="6.59654">
        <ele>1644</ele>
        <time>2021-12-15T12:07:56Z</time>
      </trkpt>
      <trkpt lat="46.1775" lon="6.59655">
        <ele>1645</ele>
        <time>2021-12-15T12:07:59Z</time>
      </trkpt>
      <trkpt lat="46.17755" lon="6.59649">
        <ele>1644</ele>
        <time>2021-12-15T12:08:07Z</time>
      </trkpt>
      <trkpt lat="46.17757" lon="6.59653">
        <ele>1650</ele>
        <time>2021-12-15T12:08:10Z</time>
      </trkpt>
      <trkpt lat="46.1776" lon="6.59649">
        <ele>1649</ele>
        <time>2021-12-15T12:08:14Z</time>
      </trkpt>
      <trkpt lat="46.17761" lon="6.59644">
        <ele>1654</ele>
        <time>2021-12-15T12:08:20Z</time>
      </trkpt>
      <trkpt lat="46.17764" lon="6.59641">
        <ele>1655</ele>
        <time>2021-12-15T12:08:23Z</time>
      </trkpt>
      <trkpt lat="46.1776" lon="6.59638">
        <ele>1652</ele>
        <time>2021-12-15T12:08:27Z</time>
      </trkpt>
      <trkpt lat="46.17756" lon="6.59637">
        <ele>1648</ele>
        <time>2021-12-15T12:08:29Z</time>
      </trkpt>
      <trkpt lat="46.17755" lon="6.59632">
        <ele>1648</ele>
        <time>2021-12-15T12:08:34Z</time>
      </trkpt>
      <trkpt lat="46.17747" lon="6.59625">
        <ele>1648</ele>
        <time>2021-12-15T12:08:43Z</time>
      </trkpt>
      <trkpt lat="46.17747" lon="6.59621">
        <ele>1648</ele>
        <time>2021-12-15T12:08:46Z</time>
      </trkpt>
      <trkpt lat="46.17741" lon="6.59611">
        <ele>1648</ele>
        <time>2021-12-15T12:08:57Z</time>
      </trkpt>
      <trkpt lat="46.17741" lon="6.59608">
        <ele>1647</ele>
        <time>2021-12-15T12:09:01Z</time>
      </trkpt>
      <trkpt lat="46.17744" lon="6.59604">
        <ele>1649</ele>
        <time>2021-12-15T12:09:05Z</time>
      </trkpt>
      <trkpt lat="46.17748" lon="6.59602">
        <ele>1658</ele>
        <time>2021-12-15T12:09:09Z</time>
      </trkpt>
      <trkpt lat="46.17743" lon="6.59592">
        <ele>1653</ele>
        <time>2021-12-15T12:09:19Z</time>
      </trkpt>
      <trkpt lat="46.17746" lon="6.59589">
        <ele>1654</ele>
        <time>2021-12-15T12:09:23Z</time>
      </trkpt>
      <trkpt lat="46.17749" lon="6.59586">
        <ele>1662</ele>
        <time>2021-12-15T12:09:30Z</time>
      </trkpt>
      <trkpt lat="46.17748" lon="6.59579">
        <ele>1657</ele>
        <time>2021-12-15T12:09:35Z</time>
      </trkpt>
      <trkpt lat="46.17747" lon="6.59582">
        <ele>1662</ele>
        <time>2021-12-15T12:09:39Z</time>
      </trkpt>
      <trkpt lat="46.17744" lon="6.59577">
        <ele>1660</ele>
        <time>2021-12-15T12:09:41Z</time>
      </trkpt>
      <trkpt lat="46.17752" lon="6.59559">
        <ele>1663.6</ele>
        <time>2021-12-15T12:09:55Z</time>
      </trkpt>
      <trkpt lat="46.17757" lon="6.59559">
        <ele>1665.8</ele>
        <time>2021-12-15T12:09:56Z</time>
      </trkpt>
      <trkpt lat="46.17757" lon="6.59556">
        <ele>1667</ele>
        <time>2021-12-15T12:09:59Z</time>
      </trkpt>
      <trkpt lat="46.17757" lon="6.59543">
        <ele>1665</ele>
        <time>2021-12-15T12:10:11Z</time>
      </trkpt>
      <trkpt lat="46.1776" lon="6.59541">
        <ele>1667</ele>
        <time>2021-12-15T12:10:15Z</time>
      </trkpt>
      <trkpt lat="46.17766" lon="6.59529">
        <ele>1662</ele>
        <time>2021-12-15T12:10:26Z</time>
      </trkpt>
      <trkpt lat="46.17767" lon="6.59532">
        <ele>1666</ele>
        <time>2021-12-15T12:10:32Z</time>
      </trkpt>
      <trkpt lat="46.17769" lon="6.59528">
        <ele>1667</ele>
        <time>2021-12-15T12:10:37Z</time>
      </trkpt>
      <trkpt lat="46.17775" lon="6.59517">
        <ele>1665</ele>
        <time>2021-12-15T12:10:43Z</time>
      </trkpt>
      <trkpt lat="46.17783" lon="6.59521">
        <ele>1669</ele>
        <time>2021-12-15T12:10:52Z</time>
      </trkpt>
      <trkpt lat="46.17798" lon="6.59519">
        <ele>1676</ele>
        <time>2021-12-15T12:11:05Z</time>
      </trkpt>
      <trkpt lat="46.17801" lon="6.59521">
        <ele>1676</ele>
        <time>2021-12-15T12:11:07Z</time>
      </trkpt>
      <trkpt lat="46.17805" lon="6.59521">
        <ele>1675</ele>
        <time>2021-12-15T12:11:11Z</time>
      </trkpt>
      <trkpt lat="46.17812" lon="6.5952">
        <ele>1678</ele>
        <time>2021-12-15T12:11:18Z</time>
      </trkpt>
      <trkpt lat="46.17818" lon="6.59512">
        <ele>1680</ele>
        <time>2021-12-15T12:11:25Z</time>
      </trkpt>
      <trkpt lat="46.17826" lon="6.59508">
        <ele>1680</ele>
        <time>2021-12-15T12:11:34Z</time>
      </trkpt>
      <trkpt lat="46.17829" lon="6.59506">
        <ele>1682</ele>
        <time>2021-12-15T12:11:37Z</time>
      </trkpt>
      <trkpt lat="46.17831" lon="6.59498">
        <ele>1683.4</ele>
        <time>2021-12-15T12:11:41Z</time>
      </trkpt>
      <trkpt lat="46.17834" lon="6.595">
        <ele>1685</ele>
        <time>2021-12-15T12:11:43Z</time>
      </trkpt>
      <trkpt lat="46.17845" lon="6.59496">
        <ele>1687</ele>
        <time>2021-12-15T12:11:55Z</time>
      </trkpt>
      <trkpt lat="46.17851" lon="6.5949">
        <ele>1680</ele>
        <time>2021-12-15T12:12:01Z</time>
      </trkpt>
      <trkpt lat="46.17859" lon="6.59488">
        <ele>1682</ele>
        <time>2021-12-15T12:12:09Z</time>
      </trkpt>
      <trkpt lat="46.17864" lon="6.59481">
        <ele>1683</ele>
        <time>2021-12-15T12:12:14Z</time>
      </trkpt>
      <trkpt lat="46.17876" lon="6.59474">
        <ele>1686</ele>
        <time>2021-12-15T12:12:23Z</time>
      </trkpt>
      <trkpt lat="46.17878" lon="6.59477">
        <ele>1687</ele>
        <time>2021-12-15T12:12:26Z</time>
      </trkpt>
      <trkpt lat="46.17884" lon="6.59475">
        <ele>1687</ele>
        <time>2021-12-15T12:12:30Z</time>
      </trkpt>
      <trkpt lat="46.17887" lon="6.59471">
        <ele>1681</ele>
        <time>2021-12-15T12:12:33Z</time>
      </trkpt>
      <trkpt lat="46.17889" lon="6.59465">
        <ele>1682.4</ele>
        <time>2021-12-15T12:12:36Z</time>
      </trkpt>
      <trkpt lat="46.17895" lon="6.59457">
        <ele>1686</ele>
        <time>2021-12-15T12:12:46Z</time>
      </trkpt>
      <trkpt lat="46.17898" lon="6.59454">
        <ele>1688</ele>
        <time>2021-12-15T12:12:54Z</time>
      </trkpt>
      <trkpt lat="46.17902" lon="6.5944">
        <ele>1687.1</ele>
        <time>2021-12-15T12:13:07Z</time>
      </trkpt>
      <trkpt lat="46.17903" lon="6.59445">
        <ele>1690.9</ele>
        <time>2021-12-15T12:13:08Z</time>
      </trkpt>
      <trkpt lat="46.17904" lon="6.5944">
        <ele>1686</ele>
        <time>2021-12-15T12:13:10Z</time>
      </trkpt>
      <trkpt lat="46.17907" lon="6.5944">
        <ele>1689</ele>
        <time>2021-12-15T12:13:14Z</time>
      </trkpt>
      <trkpt lat="46.17911" lon="6.59436">
        <ele>1688</ele>
        <time>2021-12-15T12:13:20Z</time>
      </trkpt>
      <trkpt lat="46.17911" lon="6.59441">
        <ele>1689</ele>
        <time>2021-12-15T12:13:33Z</time>
      </trkpt>
      <trkpt lat="46.17914" lon="6.59433">
        <ele>1693</ele>
        <time>2021-12-15T12:13:41Z</time>
      </trkpt>
      <trkpt lat="46.17918" lon="6.59432">
        <ele>1694</ele>
        <time>2021-12-15T12:13:43Z</time>
      </trkpt>
      <trkpt lat="46.17921" lon="6.59428">
        <ele>1695</ele>
        <time>2021-12-15T12:13:46Z</time>
      </trkpt>
      <trkpt lat="46.17923" lon="6.59418">
        <ele>1696</ele>
        <time>2021-12-15T12:13:58Z</time>
      </trkpt>
      <trkpt lat="46.17928" lon="6.5941">
        <ele>1703</ele>
        <time>2021-12-15T12:14:06Z</time>
      </trkpt>
      <trkpt lat="46.17928" lon="6.59407">
        <ele>1701</ele>
        <time>2021-12-15T12:14:09Z</time>
      </trkpt>
      <trkpt lat="46.17932" lon="6.59399">
        <ele>1702</ele>
        <time>2021-12-15T12:14:16Z</time>
      </trkpt>
      <trkpt lat="46.17934" lon="6.59393">
        <ele>1701</ele>
        <time>2021-12-15T12:14:19Z</time>
      </trkpt>
      <trkpt lat="46.17936" lon="6.59389">
        <ele>1702</ele>
        <time>2021-12-15T12:14:23Z</time>
      </trkpt>
      <trkpt lat="46.17938" lon="6.59387">
        <ele>1706</ele>
        <time>2021-12-15T12:14:28Z</time>
      </trkpt>
      <trkpt lat="46.17938" lon="6.59383">
        <ele>1705</ele>
        <time>2021-12-15T12:14:31Z</time>
      </trkpt>
      <trkpt lat="46.17939" lon="6.59401">
        <ele>1721</ele>
        <time>2021-12-15T12:14:39Z</time>
      </trkpt>
      <trkpt lat="46.17949" lon="6.59369">
        <ele>1710.1</ele>
        <time>2021-12-15T12:14:53Z</time>
      </trkpt>
      <trkpt lat="46.17948" lon="6.59374">
        <ele>1711.2</ele>
        <time>2021-12-15T12:14:54Z</time>
      </trkpt>
      <trkpt lat="46.17952" lon="6.59368">
        <ele>1709</ele>
        <time>2021-12-15T12:15:00Z</time>
      </trkpt>
      <trkpt lat="46.17964" lon="6.59367">
        <ele>1723.1</ele>
        <time>2021-12-15T12:15:07Z</time>
      </trkpt>
      <trkpt lat="46.17959" lon="6.59363">
        <ele>1719</ele>
        <time>2021-12-15T12:15:11Z</time>
      </trkpt>
      <trkpt lat="46.17959" lon="6.59358">
        <ele>1720</ele>
        <time>2021-12-15T12:15:14Z</time>
      </trkpt>
      <trkpt lat="46.17958" lon="6.59354">
        <ele>1719</ele>
        <time>2021-12-15T12:15:17Z</time>
      </trkpt>
      <trkpt lat="46.17961" lon="6.59346">
        <ele>1721.6</ele>
        <time>2021-12-15T12:15:22Z</time>
      </trkpt>
      <trkpt lat="46.17958" lon="6.59341">
        <ele>1713</ele>
        <time>2021-12-15T12:15:24Z</time>
      </trkpt>
      <trkpt lat="46.17961" lon="6.59339">
        <ele>1714</ele>
        <time>2021-12-15T12:15:27Z</time>
      </trkpt>
      <trkpt lat="46.17954" lon="6.59333">
        <ele>1715</ele>
        <time>2021-12-15T12:15:39Z</time>
      </trkpt>
      <trkpt lat="46.17953" lon="6.5933">
        <ele>1718</ele>
        <time>2021-12-15T12:15:44Z</time>
      </trkpt>
      <trkpt lat="46.17954" lon="6.59326">
        <ele>1721</ele>
        <time>2021-12-15T12:15:48Z</time>
      </trkpt>
      <trkpt lat="46.17958" lon="6.59319">
        <ele>1727</ele>
        <time>2021-12-15T12:15:54Z</time>
      </trkpt>
      <trkpt lat="46.17958" lon="6.59315">
        <ele>1728</ele>
        <time>2021-12-15T12:15:57Z</time>
      </trkpt>
      <trkpt lat="46.17952" lon="6.59303">
        <ele>1722</ele>
        <time>2021-12-15T12:16:06Z</time>
      </trkpt>
      <trkpt lat="46.17951" lon="6.59296">
        <ele>1725</ele>
        <time>2021-12-15T12:16:14Z</time>
      </trkpt>
      <trkpt lat="46.17946" lon="6.59286">
        <ele>1724</ele>
        <time>2021-12-15T12:16:22Z</time>
      </trkpt>
      <trkpt lat="46.1794" lon="6.59271">
        <ele>1730</ele>
        <time>2021-12-15T12:16:40Z</time>
      </trkpt>
      <trkpt lat="46.17941" lon="6.59263">
        <ele>1730</ele>
        <time>2021-12-15T12:16:45Z</time>
      </trkpt>
      <trkpt lat="46.17945" lon="6.59265">
        <ele>1739.4</ele>
        <time>2021-12-15T12:16:47Z</time>
      </trkpt>
      <trkpt lat="46.1795" lon="6.59257">
        <ele>1736</ele>
        <time>2021-12-15T12:16:53Z</time>
      </trkpt>
      <trkpt lat="46.1795" lon="6.59253">
        <ele>1737</ele>
        <time>2021-12-15T12:16:56Z</time>
      </trkpt>
      <trkpt lat="46.17948" lon="6.59249">
        <ele>1736</ele>
        <time>2021-12-15T12:17:00Z</time>
      </trkpt>
      <trkpt lat="46.17947" lon="6.59245">
        <ele>1737</ele>
        <time>2021-12-15T12:17:03Z</time>
      </trkpt>
      <trkpt lat="46.17941" lon="6.59234">
        <ele>1736</ele>
        <time>2021-12-15T12:17:12Z</time>
      </trkpt>
      <trkpt lat="46.17941" lon="6.59225">
        <ele>1735</ele>
        <time>2021-12-15T12:17:18Z</time>
      </trkpt>
      <trkpt lat="46.17942" lon="6.59222">
        <ele>1737</ele>
        <time>2021-12-15T12:17:20Z</time>
      </trkpt>
      <trkpt lat="46.17941" lon="6.59214">
        <ele>1737</ele>
        <time>2021-12-15T12:17:26Z</time>
      </trkpt>
      <trkpt lat="46.17947" lon="6.59186">
        <ele>1742</ele>
        <time>2021-12-15T12:17:41Z</time>
      </trkpt>
      <trkpt lat="46.17945" lon="6.59175">
        <ele>1742</ele>
        <time>2021-12-15T12:17:46Z</time>
      </trkpt>
      <trkpt lat="46.17944" lon="6.59162">
        <ele>1742</ele>
        <time>2021-12-15T12:17:55Z</time>
      </trkpt>
      <trkpt lat="46.17943" lon="6.59159">
        <ele>1743</ele>
        <time>2021-12-15T12:17:57Z</time>
      </trkpt>
      <trkpt lat="46.17943" lon="6.59156">
        <ele>1743</ele>
        <time>2021-12-15T12:17:59Z</time>
      </trkpt>
      <trkpt lat="46.17942" lon="6.59147">
        <ele>1743</ele>
        <time>2021-12-15T12:18:04Z</time>
      </trkpt>
      <trkpt lat="46.17939" lon="6.59138">
        <ele>1746</ele>
        <time>2021-12-15T12:18:13Z</time>
      </trkpt>
      <trkpt lat="46.1794" lon="6.59125">
        <ele>1741</ele>
        <time>2021-12-15T12:18:29Z</time>
      </trkpt>
      <trkpt lat="46.17944" lon="6.59117">
        <ele>1743</ele>
        <time>2021-12-15T12:18:35Z</time>
      </trkpt>
      <trkpt lat="46.17945" lon="6.59111">
        <ele>1742</ele>
        <time>2021-12-15T12:18:41Z</time>
      </trkpt>
      <trkpt lat="46.17949" lon="6.59109">
        <ele>1747</ele>
        <time>2021-12-15T12:18:50Z</time>
      </trkpt>
      <trkpt lat="46.17954" lon="6.59104">
        <ele>1743</ele>
        <time>2021-12-15T12:18:57Z</time>
      </trkpt>
      <trkpt lat="46.17955" lon="6.59091">
        <ele>1751</ele>
        <time>2021-12-15T12:19:11Z</time>
      </trkpt>
      <trkpt lat="46.17954" lon="6.59087">
        <ele>1753</ele>
        <time>2021-12-15T12:19:15Z</time>
      </trkpt>
      <trkpt lat="46.17959" lon="6.59085">
        <ele>1761</ele>
        <time>2021-12-15T12:19:21Z</time>
      </trkpt>
      <trkpt lat="46.17962" lon="6.59082">
        <ele>1763</ele>
        <time>2021-12-15T12:19:24Z</time>
      </trkpt>
      <trkpt lat="46.17961" lon="6.59078">
        <ele>1761</ele>
        <time>2021-12-15T12:19:31Z</time>
      </trkpt>
      <trkpt lat="46.17968" lon="6.59067">
        <ele>1758</ele>
        <time>2021-12-15T12:19:40Z</time>
      </trkpt>
      <trkpt lat="46.17974" lon="6.59078">
        <ele>1760</ele>
        <time>2021-12-15T12:19:50Z</time>
      </trkpt>
      <trkpt lat="46.17977" lon="6.59077">
        <ele>1763</ele>
        <time>2021-12-15T12:19:54Z</time>
      </trkpt>
      <trkpt lat="46.1798" lon="6.59072">
        <ele>1765</ele>
        <time>2021-12-15T12:20:01Z</time>
      </trkpt>
      <trkpt lat="46.17983" lon="6.59063">
        <ele>1767</ele>
        <time>2021-12-15T12:20:10Z</time>
      </trkpt>
      <trkpt lat="46.17979" lon="6.59058">
        <ele>1765</ele>
        <time>2021-12-15T12:20:13Z</time>
      </trkpt>
      <trkpt lat="46.17982" lon="6.59056">
        <ele>1765</ele>
        <time>2021-12-15T12:20:17Z</time>
      </trkpt>
      <trkpt lat="46.17984" lon="6.59047">
        <ele>1764.9</ele>
        <time>2021-12-15T12:20:22Z</time>
      </trkpt>
      <trkpt lat="46.17986" lon="6.59054">
        <ele>1769</ele>
        <time>2021-12-15T12:20:26Z</time>
      </trkpt>
      <trkpt lat="46.1798" lon="6.59038">
        <ele>1775</ele>
        <time>2021-12-15T12:20:45Z</time>
      </trkpt>
      <trkpt lat="46.17971" lon="6.5903">
        <ele>1772</ele>
        <time>2021-12-15T12:20:53Z</time>
      </trkpt>
      <trkpt lat="46.1797" lon="6.59027">
        <ele>1770</ele>
        <time>2021-12-15T12:21:00Z</time>
      </trkpt>
      <trkpt lat="46.17966" lon="6.59023">
        <ele>1767</ele>
        <time>2021-12-15T12:21:06Z</time>
      </trkpt>
      <trkpt lat="46.17968" lon="6.5902">
        <ele>1772</ele>
        <time>2021-12-15T12:21:12Z</time>
      </trkpt>
      <trkpt lat="46.17963" lon="6.59018">
        <ele>1774</ele>
        <time>2021-12-15T12:21:15Z</time>
      </trkpt>
      <trkpt lat="46.17967" lon="6.59013">
        <ele>1781</ele>
        <time>2021-12-15T12:21:20Z</time>
      </trkpt>
      <trkpt lat="46.17959" lon="6.59005">
        <ele>1789</ele>
        <time>2021-12-15T12:21:32Z</time>
      </trkpt>
      <trkpt lat="46.1796" lon="6.59001">
        <ele>1792</ele>
        <time>2021-12-15T12:21:38Z</time>
      </trkpt>
      <trkpt lat="46.17963" lon="6.59003">
        <ele>1792</ele>
        <time>2021-12-15T12:21:40Z</time>
      </trkpt>
      <trkpt lat="46.17964" lon="6.59006">
        <ele>1795.8</ele>
        <time>2021-12-15T12:21:42Z</time>
      </trkpt>
      <trkpt lat="46.17963" lon="6.59003">
        <ele>1793.4</ele>
        <time>2021-12-15T12:21:46Z</time>
      </trkpt>
      <trkpt lat="46.17964" lon="6.58998">
        <ele>1791</ele>
        <time>2021-12-15T12:21:50Z</time>
      </trkpt>
      <trkpt lat="46.17964" lon="6.58989">
        <ele>1788</ele>
        <time>2021-12-15T12:21:59Z</time>
      </trkpt>
      <trkpt lat="46.17963" lon="6.58984">
        <ele>1791</ele>
        <time>2021-12-15T12:22:03Z</time>
      </trkpt>
      <trkpt lat="46.17959" lon="6.58983">
        <ele>1789</ele>
        <time>2021-12-15T12:22:06Z</time>
      </trkpt>
      <trkpt lat="46.17956" lon="6.58975">
        <ele>1784</ele>
        <time>2021-12-15T12:22:20Z</time>
      </trkpt>
      <trkpt lat="46.17959" lon="6.58971">
        <ele>1792</ele>
        <time>2021-12-15T12:22:32Z</time>
      </trkpt>
      <trkpt lat="46.17958" lon="6.58968">
        <ele>1793</ele>
        <time>2021-12-15T12:22:35Z</time>
      </trkpt>
      <trkpt lat="46.17956" lon="6.58965">
        <ele>1793</ele>
        <time>2021-12-15T12:22:37Z</time>
      </trkpt>
      <trkpt lat="46.17952" lon="6.58964">
        <ele>1792</ele>
        <time>2021-12-15T12:22:40Z</time>
      </trkpt>
      <trkpt lat="46.17946" lon="6.5896">
        <ele>1792</ele>
        <time>2021-12-15T12:22:45Z</time>
      </trkpt>
      <trkpt lat="46.17945" lon="6.58948">
        <ele>1803</ele>
        <time>2021-12-15T12:22:55Z</time>
      </trkpt>
      <trkpt lat="46.17941" lon="6.58945">
        <ele>1801.4</ele>
        <time>2021-12-15T12:22:58Z</time>
      </trkpt>
      <trkpt lat="46.17945" lon="6.58946">
        <ele>1802.8</ele>
        <time>2021-12-15T12:22:59Z</time>
      </trkpt>
      <trkpt lat="46.17943" lon="6.58943">
        <ele>1802</ele>
        <time>2021-12-15T12:23:01Z</time>
      </trkpt>
      <trkpt lat="46.1794" lon="6.58942">
        <ele>1797</ele>
        <time>2021-12-15T12:23:04Z</time>
      </trkpt>
      <trkpt lat="46.17943" lon="6.58941">
        <ele>1806</ele>
        <time>2021-12-15T12:23:07Z</time>
      </trkpt>
      <trkpt lat="46.1794" lon="6.58934">
        <ele>1809</ele>
        <time>2021-12-15T12:23:19Z</time>
      </trkpt>
      <trkpt lat="46.1794" lon="6.58931">
        <ele>1810</ele>
        <time>2021-12-15T12:23:23Z</time>
      </trkpt>
      <trkpt lat="46.17934" lon="6.58923">
        <ele>1815</ele>
        <time>2021-12-15T12:23:35Z</time>
      </trkpt>
      <trkpt lat="46.1793" lon="6.5892">
        <ele>1820</ele>
        <time>2021-12-15T12:23:41Z</time>
      </trkpt>
      <trkpt lat="46.17924" lon="6.58909">
        <ele>1817</ele>
        <time>2021-12-15T12:23:52Z</time>
      </trkpt>
      <trkpt lat="46.17919" lon="6.58909">
        <ele>1823</ele>
        <time>2021-12-15T12:23:57Z</time>
      </trkpt>
      <trkpt lat="46.17919" lon="6.58906">
        <ele>1826</ele>
        <time>2021-12-15T12:24:00Z</time>
      </trkpt>
      <trkpt lat="46.17914" lon="6.58901">
        <ele>1824</ele>
        <time>2021-12-15T12:24:04Z</time>
      </trkpt>
      <trkpt lat="46.17916" lon="6.58904">
        <ele>1818</ele>
        <time>2021-12-15T12:24:10Z</time>
      </trkpt>
      <trkpt lat="46.17919" lon="6.58905">
        <ele>1820.6</ele>
        <time>2021-12-15T12:24:13Z</time>
      </trkpt>
      <trkpt lat="46.17917" lon="6.58906">
        <ele>1816</ele>
        <time>2021-12-15T12:24:18Z</time>
      </trkpt>
      <trkpt lat="46.17913" lon="6.5891">
        <ele>1815</ele>
        <time>2021-12-15T12:25:17Z</time>
      </trkpt>
      <trkpt lat="46.17919" lon="6.58909">
        <ele>1811</ele>
        <time>2021-12-15T12:25:23Z</time>
      </trkpt>
      <trkpt lat="46.17921" lon="6.58905">
        <ele>1814.8</ele>
        <time>2021-12-15T12:25:31Z</time>
      </trkpt>
      <trkpt lat="46.17916" lon="6.58904">
        <ele>1814</ele>
        <time>2021-12-15T12:25:39Z</time>
      </trkpt>
      <trkpt lat="46.1792" lon="6.58906">
        <ele>1817</ele>
        <time>2021-12-15T12:25:49Z</time>
      </trkpt>
      <trkpt lat="46.17923" lon="6.58905">
        <ele>1815</ele>
        <time>2021-12-15T12:26:07Z</time>
      </trkpt>
      <trkpt lat="46.17919" lon="6.58908">
        <ele>1806</ele>
        <time>2021-12-15T12:26:21Z</time>
      </trkpt>
      <trkpt lat="46.17924" lon="6.58905">
        <ele>1818</ele>
        <time>2021-12-15T12:26:41Z</time>
      </trkpt>
      <trkpt lat="46.17916" lon="6.58903">
        <ele>1794</ele>
        <time>2021-12-15T12:26:57Z</time>
      </trkpt>
      <trkpt lat="46.1792" lon="6.58902">
        <ele>1815</ele>
        <time>2021-12-15T12:27:19Z</time>
      </trkpt>
      <trkpt lat="46.17919" lon="6.589">
        <ele>1816</ele>
        <time>2021-12-15T12:27:25Z</time>
      </trkpt>
      <trkpt lat="46.17919" lon="6.58904">
        <ele>1818</ele>
        <time>2021-12-15T12:27:27Z</time>
      </trkpt>
      <trkpt lat="46.17917" lon="6.58901">
        <ele>1815</ele>
        <time>2021-12-15T12:27:29Z</time>
      </trkpt>
      <trkpt lat="46.17916" lon="6.58907">
        <ele>1817.9</ele>
        <time>2021-12-15T12:27:30Z</time>
      </trkpt>
      <trkpt lat="46.17917" lon="6.589">
        <ele>1815.2</ele>
        <time>2021-12-15T12:27:33Z</time>
      </trkpt>
      <trkpt lat="46.17917" lon="6.58905">
        <ele>1816.5</ele>
        <time>2021-12-15T12:27:34Z</time>
      </trkpt>
      <trkpt lat="46.17918" lon="6.58901">
        <ele>1811</ele>
        <time>2021-12-15T12:27:37Z</time>
      </trkpt>
      <trkpt lat="46.17925" lon="6.58895">
        <ele>1818</ele>
        <time>2021-12-15T12:27:53Z</time>
      </trkpt>
      <trkpt lat="46.17927" lon="6.5889">
        <ele>1821</ele>
        <time>2021-12-15T12:28:00Z</time>
      </trkpt>
      <trkpt lat="46.17931" lon="6.58887">
        <ele>1816</ele>
        <time>2021-12-15T12:28:06Z</time>
      </trkpt>
      <trkpt lat="46.1793" lon="6.58884">
        <ele>1825</ele>
        <time>2021-12-15T12:28:14Z</time>
      </trkpt>
      <trkpt lat="46.17931" lon="6.5888">
        <ele>1830</ele>
        <time>2021-12-15T12:28:19Z</time>
      </trkpt>
      <trkpt lat="46.17929" lon="6.58878">
        <ele>1834</ele>
        <time>2021-12-15T12:28:22Z</time>
      </trkpt>
      <trkpt lat="46.17934" lon="6.58877">
        <ele>1842</ele>
        <time>2021-12-15T12:28:25Z</time>
      </trkpt>
      <trkpt lat="46.17932" lon="6.58874">
        <ele>1834</ele>
        <time>2021-12-15T12:28:32Z</time>
      </trkpt>
      <trkpt lat="46.17935" lon="6.5887">
        <ele>1833</ele>
        <time>2021-12-15T12:28:39Z</time>
      </trkpt>
      <trkpt lat="46.17938" lon="6.58874">
        <ele>1838</ele>
        <time>2021-12-15T12:28:44Z</time>
      </trkpt>
      <trkpt lat="46.17939" lon="6.58859">
        <ele>1830</ele>
        <time>2021-12-15T12:29:07Z</time>
      </trkpt>
      <trkpt lat="46.17935" lon="6.5885">
        <ele>1828</ele>
        <time>2021-12-15T12:29:11Z</time>
      </trkpt>
      <trkpt lat="46.17937" lon="6.5885">
        <ele>1830</ele>
        <time>2021-12-15T12:29:14Z</time>
      </trkpt>
      <trkpt lat="46.17933" lon="6.58849">
        <ele>1832</ele>
        <time>2021-12-15T12:29:17Z</time>
      </trkpt>
      <trkpt lat="46.17932" lon="6.58846">
        <ele>1832</ele>
        <time>2021-12-15T12:29:19Z</time>
      </trkpt>
      <trkpt lat="46.17938" lon="6.58847">
        <ele>1838</ele>
        <time>2021-12-15T12:29:22Z</time>
      </trkpt>
      <trkpt lat="46.17935" lon="6.58845">
        <ele>1840</ele>
        <time>2021-12-15T12:29:26Z</time>
      </trkpt>
      <trkpt lat="46.17931" lon="6.58847">
        <ele>1840</ele>
        <time>2021-12-15T12:29:31Z</time>
      </trkpt>
      <trkpt lat="46.17931" lon="6.58844">
        <ele>1838</ele>
        <time>2021-12-15T12:29:36Z</time>
      </trkpt>
      <trkpt lat="46.17934" lon="6.5884">
        <ele>1836</ele>
        <time>2021-12-15T12:29:43Z</time>
      </trkpt>
      <trkpt lat="46.17933" lon="6.58835">
        <ele>1845</ele>
        <time>2021-12-15T12:29:53Z</time>
      </trkpt>
      <trkpt lat="46.17936" lon="6.58833">
        <ele>1851</ele>
        <time>2021-12-15T12:29:56Z</time>
      </trkpt>
      <trkpt lat="46.17929" lon="6.58832">
        <ele>1855</ele>
        <time>2021-12-15T12:30:00Z</time>
      </trkpt>
      <trkpt lat="46.17931" lon="6.58829">
        <ele>1855</ele>
        <time>2021-12-15T12:30:04Z</time>
      </trkpt>
      <trkpt lat="46.17928" lon="6.58826">
        <ele>1855</ele>
        <time>2021-12-15T12:30:11Z</time>
      </trkpt>
      <trkpt lat="46.17926" lon="6.58822">
        <ele>1856</ele>
        <time>2021-12-15T12:30:15Z</time>
      </trkpt>
      <trkpt lat="46.17922" lon="6.5882">
        <ele>1856</ele>
        <time>2021-12-15T12:30:19Z</time>
      </trkpt>
      <trkpt lat="46.1792" lon="6.58825">
        <ele>1848</ele>
        <time>2021-12-15T12:30:27Z</time>
      </trkpt>
      <trkpt lat="46.17921" lon="6.58829">
        <ele>1851</ele>
        <time>2021-12-15T12:30:34Z</time>
      </trkpt>
      <trkpt lat="46.17918" lon="6.58825">
        <ele>1848</ele>
        <time>2021-12-15T12:30:38Z</time>
      </trkpt>
      <trkpt lat="46.17919" lon="6.58816">
        <ele>1846</ele>
        <time>2021-12-15T12:30:45Z</time>
      </trkpt>
      <trkpt lat="46.17922" lon="6.58815">
        <ele>1849</ele>
        <time>2021-12-15T12:30:50Z</time>
      </trkpt>
      <trkpt lat="46.17923" lon="6.5881">
        <ele>1851.4</ele>
        <time>2021-12-15T12:30:55Z</time>
      </trkpt>
      <trkpt lat="46.17929" lon="6.58805">
        <ele>1855</ele>
        <time>2021-12-15T12:31:07Z</time>
      </trkpt>
      <trkpt lat="46.17931" lon="6.58814">
        <ele>1864</ele>
        <time>2021-12-15T12:31:12Z</time>
      </trkpt>
      <trkpt lat="46.17933" lon="6.58808">
        <ele>1864</ele>
        <time>2021-12-15T12:31:15Z</time>
      </trkpt>
      <trkpt lat="46.17934" lon="6.58815">
        <ele>1868</ele>
        <time>2021-12-15T12:31:18Z</time>
      </trkpt>
      <trkpt lat="46.17937" lon="6.58811">
        <ele>1867.8</ele>
        <time>2021-12-15T12:31:20Z</time>
      </trkpt>
      <trkpt lat="46.17941" lon="6.58799">
        <ele>1866</ele>
        <time>2021-12-15T12:31:29Z</time>
      </trkpt>
      <trkpt lat="46.17939" lon="6.58784">
        <ele>1869.2</ele>
        <time>2021-12-15T12:31:41Z</time>
      </trkpt>
      <trkpt lat="46.17941" lon="6.58781">
        <ele>1872</ele>
        <time>2021-12-15T12:31:45Z</time>
      </trkpt>
      <trkpt lat="46.1794" lon="6.58785">
        <ele>1877.9</ele>
        <time>2021-12-15T12:31:47Z</time>
      </trkpt>
      <trkpt lat="46.17939" lon="6.58778">
        <ele>1872</ele>
        <time>2021-12-15T12:31:51Z</time>
      </trkpt>
      <trkpt lat="46.17936" lon="6.58779">
        <ele>1875.5</ele>
        <time>2021-12-15T12:31:53Z</time>
      </trkpt>
      <trkpt lat="46.17928" lon="6.58773">
        <ele>1874.2</ele>
        <time>2021-12-15T12:32:17Z</time>
      </trkpt>
      <trkpt lat="46.17915" lon="6.5877">
        <ele>1863</ele>
        <time>2021-12-15T12:32:25Z</time>
      </trkpt>
      <trkpt lat="46.1792" lon="6.58766">
        <ele>1876</ele>
        <time>2021-12-15T12:32:34Z</time>
      </trkpt>
      <trkpt lat="46.17918" lon="6.5877">
        <ele>1874</ele>
        <time>2021-12-15T12:32:40Z</time>
      </trkpt>
      <trkpt lat="46.17918" lon="6.58762">
        <ele>1869</ele>
        <time>2021-12-15T12:32:48Z</time>
      </trkpt>
      <trkpt lat="46.17921" lon="6.58762">
        <ele>1873</ele>
        <time>2021-12-15T12:32:55Z</time>
      </trkpt>
      <trkpt lat="46.17924" lon="6.5876">
        <ele>1876</ele>
        <time>2021-12-15T12:32:59Z</time>
      </trkpt>
      <trkpt lat="46.17926" lon="6.58755">
        <ele>1875</ele>
        <time>2021-12-15T12:33:04Z</time>
      </trkpt>
      <trkpt lat="46.17928" lon="6.5876">
        <ele>1882</ele>
        <time>2021-12-15T12:33:09Z</time>
      </trkpt>
      <trkpt lat="46.17927" lon="6.58756">
        <ele>1883</ele>
        <time>2021-12-15T12:33:15Z</time>
      </trkpt>
      <trkpt lat="46.17926" lon="6.58752">
        <ele>1885</ele>
        <time>2021-12-15T12:33:18Z</time>
      </trkpt>
      <trkpt lat="46.17923" lon="6.58753">
        <ele>1891</ele>
        <time>2021-12-15T12:33:21Z</time>
      </trkpt>
      <trkpt lat="46.1792" lon="6.58756">
        <ele>1892</ele>
        <time>2021-12-15T12:33:23Z</time>
      </trkpt>
      <trkpt lat="46.1792" lon="6.58759">
        <ele>1900.9</ele>
        <time>2021-12-15T12:33:26Z</time>
      </trkpt>
      <trkpt lat="46.1792" lon="6.58755">
        <ele>1900</ele>
        <time>2021-12-15T12:33:28Z</time>
      </trkpt>
      <trkpt lat="46.17914" lon="6.58748">
        <ele>1915</ele>
        <time>2021-12-15T12:33:33Z</time>
      </trkpt>
      <trkpt lat="46.17913" lon="6.58742">
        <ele>1913.8</ele>
        <time>2021-12-15T12:33:34Z</time>
      </trkpt>
      <trkpt lat="46.1791" lon="6.58739">
        <ele>1912</ele>
        <time>2021-12-15T12:33:37Z</time>
      </trkpt>
      <trkpt lat="46.17908" lon="6.58746">
        <ele>1914</ele>
        <time>2021-12-15T12:33:41Z</time>
      </trkpt>
      <trkpt lat="46.17905" lon="6.58743">
        <ele>1912</ele>
        <time>2021-12-15T12:33:45Z</time>
      </trkpt>
      <trkpt lat="46.17902" lon="6.58748">
        <ele>1892</ele>
        <time>2021-12-15T12:33:55Z</time>
      </trkpt>
      <trkpt lat="46.17895" lon="6.58745">
        <ele>1894</ele>
        <time>2021-12-15T12:34:10Z</time>
      </trkpt>
      <trkpt lat="46.17893" lon="6.5875">
        <ele>1890</ele>
        <time>2021-12-15T12:34:26Z</time>
      </trkpt>
      <trkpt lat="46.17893" lon="6.58752">
        <ele>1889</ele>
        <time>2021-12-15T12:36:01Z</time>
      </trkpt>
      <trkpt lat="46.17899" lon="6.58756">
        <ele>1894</ele>
        <time>2021-12-15T12:37:22Z</time>
      </trkpt>
      <trkpt lat="46.17893" lon="6.58745">
        <ele>1892.4</ele>
        <time>2021-12-15T12:38:23Z</time>
      </trkpt>
      <trkpt lat="46.17902" lon="6.58729">
        <ele>1896</ele>
        <time>2021-12-15T12:38:43Z</time>
      </trkpt>
      <trkpt lat="46.17905" lon="6.58727">
        <ele>1896</ele>
        <time>2021-12-15T12:38:46Z</time>
      </trkpt>
      <trkpt lat="46.17907" lon="6.58717">
        <ele>1899</ele>
        <time>2021-12-15T12:38:55Z</time>
      </trkpt>
      <trkpt lat="46.17912" lon="6.58711">
        <ele>1901</ele>
        <time>2021-12-15T12:39:04Z</time>
      </trkpt>
      <trkpt lat="46.17914" lon="6.58695">
        <ele>1902</ele>
        <time>2021-12-15T12:39:19Z</time>
      </trkpt>
      <trkpt lat="46.17917" lon="6.587">
        <ele>1905</ele>
        <time>2021-12-15T12:39:25Z</time>
      </trkpt>
      <trkpt lat="46.17921" lon="6.58702">
        <ele>1908</ele>
        <time>2021-12-15T12:39:30Z</time>
      </trkpt>
      <trkpt lat="46.17924" lon="6.58702">
        <ele>1909</ele>
        <time>2021-12-15T12:39:35Z</time>
      </trkpt>
      <trkpt lat="46.17927" lon="6.58705">
        <ele>1910</ele>
        <time>2021-12-15T12:39:39Z</time>
      </trkpt>
      <trkpt lat="46.17934" lon="6.58714">
        <ele>1915</ele>
        <time>2021-12-15T12:39:50Z</time>
      </trkpt>
      <trkpt lat="46.17937" lon="6.58715">
        <ele>1916</ele>
        <time>2021-12-15T12:39:54Z</time>
      </trkpt>
      <trkpt lat="46.17943" lon="6.58718">
        <ele>1916</ele>
        <time>2021-12-15T12:40:04Z</time>
      </trkpt>
      <trkpt lat="46.17946" lon="6.58717">
        <ele>1917</ele>
        <time>2021-12-15T12:40:07Z</time>
      </trkpt>
      <trkpt lat="46.17948" lon="6.58715">
        <ele>1917</ele>
        <time>2021-12-15T12:40:10Z</time>
      </trkpt>
      <trkpt lat="46.17951" lon="6.58704">
        <ele>1917</ele>
        <time>2021-12-15T12:40:20Z</time>
      </trkpt>
      <trkpt lat="46.17956" lon="6.58696">
        <ele>1919</ele>
        <time>2021-12-15T12:40:29Z</time>
      </trkpt>
      <trkpt lat="46.17957" lon="6.58689">
        <ele>1920</ele>
        <time>2021-12-15T12:40:36Z</time>
      </trkpt>
      <trkpt lat="46.17961" lon="6.58692">
        <ele>1923</ele>
        <time>2021-12-15T12:40:44Z</time>
      </trkpt>
      <trkpt lat="46.17963" lon="6.58682">
        <ele>1924</ele>
        <time>2021-12-15T12:40:54Z</time>
      </trkpt>
      <trkpt lat="46.17961" lon="6.58679">
        <ele>1925</ele>
        <time>2021-12-15T12:40:58Z</time>
      </trkpt>
      <trkpt lat="46.17965" lon="6.58674">
        <ele>1926</ele>
        <time>2021-12-15T12:41:03Z</time>
      </trkpt>
      <trkpt lat="46.17968" lon="6.58668">
        <ele>1927</ele>
        <time>2021-12-15T12:41:11Z</time>
      </trkpt>
      <trkpt lat="46.17969" lon="6.58659">
        <ele>1935</ele>
        <time>2021-12-15T12:41:37Z</time>
      </trkpt>
      <trkpt lat="46.17972" lon="6.58658">
        <ele>1936</ele>
        <time>2021-12-15T12:41:50Z</time>
      </trkpt>
      <trkpt lat="46.1798" lon="6.58665">
        <ele>1938</ele>
        <time>2021-12-15T12:42:00Z</time>
      </trkpt>
      <trkpt lat="46.17992" lon="6.58669">
        <ele>1941</ele>
        <time>2021-12-15T12:42:17Z</time>
      </trkpt>
      <trkpt lat="46.17996" lon="6.58668">
        <ele>1944</ele>
        <time>2021-12-15T12:42:21Z</time>
      </trkpt>
      <trkpt lat="46.17996" lon="6.58671">
        <ele>1946.3</ele>
        <time>2021-12-15T12:42:23Z</time>
      </trkpt>
      <trkpt lat="46.17999" lon="6.5867">
        <ele>1946.7</ele>
        <time>2021-12-15T12:42:27Z</time>
      </trkpt>
      <trkpt lat="46.17999" lon="6.58664">
        <ele>1944</ele>
        <time>2021-12-15T12:42:30Z</time>
      </trkpt>
      <trkpt lat="46.18" lon="6.5866">
        <ele>1944</ele>
        <time>2021-12-15T12:42:34Z</time>
      </trkpt>
      <trkpt lat="46.17999" lon="6.58654">
        <ele>1944</ele>
        <time>2021-12-15T12:42:40Z</time>
      </trkpt>
      <trkpt lat="46.18002" lon="6.58641">
        <ele>1946</ele>
        <time>2021-12-15T12:42:54Z</time>
      </trkpt>
      <trkpt lat="46.18013" lon="6.58649">
        <ele>1952</ele>
        <time>2021-12-15T12:43:12Z</time>
      </trkpt>
      <trkpt lat="46.18029" lon="6.58657">
        <ele>1960</ele>
        <time>2021-12-15T12:43:35Z</time>
      </trkpt>
      <trkpt lat="46.18034" lon="6.58663">
        <ele>1960</ele>
        <time>2021-12-15T12:43:42Z</time>
      </trkpt>
      <trkpt lat="46.18038" lon="6.58662">
        <ele>1960</ele>
        <time>2021-12-15T12:43:47Z</time>
      </trkpt>
      <trkpt lat="46.18042" lon="6.58663">
        <ele>1962</ele>
        <time>2021-12-15T12:43:54Z</time>
      </trkpt>
      <trkpt lat="46.18048" lon="6.58657">
        <ele>1966</ele>
        <time>2021-12-15T12:44:05Z</time>
      </trkpt>
      <trkpt lat="46.18048" lon="6.58642">
        <ele>1969</ele>
        <time>2021-12-15T12:44:32Z</time>
      </trkpt>
      <trkpt lat="46.18051" lon="6.58641">
        <ele>1972</ele>
        <time>2021-12-15T12:44:34Z</time>
      </trkpt>
      <trkpt lat="46.1805" lon="6.58638">
        <ele>1975</ele>
        <time>2021-12-15T12:44:36Z</time>
      </trkpt>
      <trkpt lat="46.18051" lon="6.58634">
        <ele>1976</ele>
        <time>2021-12-15T12:44:40Z</time>
      </trkpt>
      <trkpt lat="46.18049" lon="6.58623">
        <ele>1972</ele>
        <time>2021-12-15T12:44:50Z</time>
      </trkpt>
      <trkpt lat="46.18043" lon="6.58612">
        <ele>1975</ele>
        <time>2021-12-15T12:45:00Z</time>
      </trkpt>
      <trkpt lat="46.18043" lon="6.58608">
        <ele>1977</ele>
        <time>2021-12-15T12:45:03Z</time>
      </trkpt>
      <trkpt lat="46.18036" lon="6.58597">
        <ele>1974</ele>
        <time>2021-12-15T12:45:13Z</time>
      </trkpt>
      <trkpt lat="46.18035" lon="6.5859">
        <ele>1977</ele>
        <time>2021-12-15T12:45:20Z</time>
      </trkpt>
      <trkpt lat="46.18035" lon="6.58583">
        <ele>1977</ele>
        <time>2021-12-15T12:45:26Z</time>
      </trkpt>
      <trkpt lat="46.18033" lon="6.5858">
        <ele>1978</ele>
        <time>2021-12-15T12:45:29Z</time>
      </trkpt>
      <trkpt lat="46.18033" lon="6.58576">
        <ele>1980</ele>
        <time>2021-12-15T12:45:34Z</time>
      </trkpt>
      <trkpt lat="46.18028" lon="6.58568">
        <ele>1984</ele>
        <time>2021-12-15T12:45:43Z</time>
      </trkpt>
      <trkpt lat="46.18026" lon="6.58562">
        <ele>1982</ele>
        <time>2021-12-15T12:45:57Z</time>
      </trkpt>
      <trkpt lat="46.18031" lon="6.58564">
        <ele>1985</ele>
        <time>2021-12-15T12:46:06Z</time>
      </trkpt>
      <trkpt lat="46.18037" lon="6.58564">
        <ele>1988</ele>
        <time>2021-12-15T12:46:14Z</time>
      </trkpt>
      <trkpt lat="46.1804" lon="6.58561">
        <ele>1990</ele>
        <time>2021-12-15T12:46:21Z</time>
      </trkpt>
      <trkpt lat="46.18037" lon="6.58557">
        <ele>1994</ele>
        <time>2021-12-15T12:46:27Z</time>
      </trkpt>
      <trkpt lat="46.18034" lon="6.5855">
        <ele>1992</ele>
        <time>2021-12-15T12:46:32Z</time>
      </trkpt>
      <trkpt lat="46.18022" lon="6.58534">
        <ele>1995</ele>
        <time>2021-12-15T12:46:51Z</time>
      </trkpt>
      <trkpt lat="46.18017" lon="6.58525">
        <ele>1995</ele>
        <time>2021-12-15T12:47:04Z</time>
      </trkpt>
      <trkpt lat="46.18014" lon="6.58514">
        <ele>1996</ele>
        <time>2021-12-15T12:47:15Z</time>
      </trkpt>
      <trkpt lat="46.18014" lon="6.58516">
        <ele>1998</ele>
        <time>2021-12-15T12:47:24Z</time>
      </trkpt>
      <trkpt lat="46.18015" lon="6.58517">
        <ele>2001</ele>
        <time>2021-12-15T12:47:27Z</time>
      </trkpt>
      <trkpt lat="46.18023" lon="6.58514">
        <ele>1998</ele>
        <time>2021-12-15T12:47:37Z</time>
      </trkpt>
      <trkpt lat="46.18021" lon="6.58511">
        <ele>2001</ele>
        <time>2021-12-15T12:47:54Z</time>
      </trkpt>
      <trkpt lat="46.18017" lon="6.5851">
        <ele>2002</ele>
        <time>2021-12-15T12:48:19Z</time>
      </trkpt>
      <trkpt lat="46.18016" lon="6.58505">
        <ele>2007</ele>
        <time>2021-12-15T12:48:39Z</time>
      </trkpt>
      <trkpt lat="46.18013" lon="6.585">
        <ele>2006</ele>
        <time>2021-12-15T12:48:45Z</time>
      </trkpt>
      <trkpt lat="46.1801" lon="6.58488">
        <ele>2005</ele>
        <time>2021-12-15T12:48:57Z</time>
      </trkpt>
      <trkpt lat="46.18007" lon="6.58485">
        <ele>2009</ele>
        <time>2021-12-15T12:49:02Z</time>
      </trkpt>
      <trkpt lat="46.18003" lon="6.58475">
        <ele>2009</ele>
        <time>2021-12-15T12:49:14Z</time>
      </trkpt>
      <trkpt lat="46.18" lon="6.58472">
        <ele>2008</ele>
        <time>2021-12-15T12:49:17Z</time>
      </trkpt>
      <trkpt lat="46.17998" lon="6.58461">
        <ele>2011</ele>
        <time>2021-12-15T12:49:27Z</time>
      </trkpt>
      <trkpt lat="46.17994" lon="6.58453">
        <ele>2012</ele>
        <time>2021-12-15T12:49:35Z</time>
      </trkpt>
      <trkpt lat="46.17994" lon="6.5845">
        <ele>2010</ele>
        <time>2021-12-15T12:49:38Z</time>
      </trkpt>
      <trkpt lat="46.17993" lon="6.58441">
        <ele>2010</ele>
        <time>2021-12-15T12:49:46Z</time>
      </trkpt>
      <trkpt lat="46.17986" lon="6.58428">
        <ele>2019.1</ele>
        <time>2021-12-15T12:49:57Z</time>
      </trkpt>
      <trkpt lat="46.17984" lon="6.58426">
        <ele>2016</ele>
        <time>2021-12-15T12:50:01Z</time>
      </trkpt>
      <trkpt lat="46.17984" lon="6.58423">
        <ele>2020</ele>
        <time>2021-12-15T12:50:05Z</time>
      </trkpt>
      <trkpt lat="46.17981" lon="6.58419">
        <ele>2022</ele>
        <time>2021-12-15T12:50:07Z</time>
      </trkpt>
      <trkpt lat="46.1798" lon="6.58413">
        <ele>2022</ele>
        <time>2021-12-15T12:50:15Z</time>
      </trkpt>
      <trkpt lat="46.17973" lon="6.58401">
        <ele>2025</ele>
        <time>2021-12-15T12:50:31Z</time>
      </trkpt>
      <trkpt lat="46.17976" lon="6.58397">
        <ele>2029</ele>
        <time>2021-12-15T12:50:40Z</time>
      </trkpt>
      <trkpt lat="46.17979" lon="6.58403">
        <ele>2034.4</ele>
        <time>2021-12-15T12:50:47Z</time>
      </trkpt>
      <trkpt lat="46.1798" lon="6.58407">
        <ele>2035</ele>
        <time>2021-12-15T12:50:50Z</time>
      </trkpt>
      <trkpt lat="46.17993" lon="6.58411">
        <ele>2035</ele>
        <time>2021-12-15T12:51:08Z</time>
      </trkpt>
      <trkpt lat="46.17999" lon="6.58414">
        <ele>2037</ele>
        <time>2021-12-15T12:51:14Z</time>
      </trkpt>
      <trkpt lat="46.18003" lon="6.58415">
        <ele>2037</ele>
        <time>2021-12-15T12:51:20Z</time>
      </trkpt>
      <trkpt lat="46.18002" lon="6.58401">
        <ele>2042</ele>
        <time>2021-12-15T12:51:35Z</time>
      </trkpt>
      <trkpt lat="46.17995" lon="6.58381">
        <ele>2042</ele>
        <time>2021-12-15T12:51:52Z</time>
      </trkpt>
      <trkpt lat="46.17996" lon="6.58366">
        <ele>2046</ele>
        <time>2021-12-15T12:52:06Z</time>
      </trkpt>
      <trkpt lat="46.17995" lon="6.58362">
        <ele>2046</ele>
        <time>2021-12-15T12:52:13Z</time>
      </trkpt>
      <trkpt lat="46.17993" lon="6.58359">
        <ele>2052</ele>
        <time>2021-12-15T12:52:19Z</time>
      </trkpt>
      <trkpt lat="46.17993" lon="6.58353">
        <ele>2050</ele>
        <time>2021-12-15T12:52:22Z</time>
      </trkpt>
      <trkpt lat="46.17998" lon="6.58346">
        <ele>2049</ele>
        <time>2021-12-15T12:52:27Z</time>
      </trkpt>
      <trkpt lat="46.17997" lon="6.58338">
        <ele>2046</ele>
        <time>2021-12-15T12:52:34Z</time>
      </trkpt>
      <trkpt lat="46.17992" lon="6.58333">
        <ele>2049</ele>
        <time>2021-12-15T12:52:40Z</time>
      </trkpt>
      <trkpt lat="46.17995" lon="6.58334">
        <ele>2050</ele>
        <time>2021-12-15T12:52:45Z</time>
      </trkpt>
      <trkpt lat="46.17999" lon="6.58338">
        <ele>2056</ele>
        <time>2021-12-15T12:52:53Z</time>
      </trkpt>
      <trkpt lat="46.17999" lon="6.58332">
        <ele>2060</ele>
        <time>2021-12-15T12:52:58Z</time>
      </trkpt>
      <trkpt lat="46.18002" lon="6.58312">
        <ele>2065</ele>
        <time>2021-12-15T12:53:18Z</time>
      </trkpt>
      <trkpt lat="46.17995" lon="6.58297">
        <ele>2065</ele>
        <time>2021-12-15T12:53:31Z</time>
      </trkpt>
      <trkpt lat="46.17996" lon="6.5829">
        <ele>2064</ele>
        <time>2021-12-15T12:53:38Z</time>
      </trkpt>
      <trkpt lat="46.18003" lon="6.58283">
        <ele>2070</ele>
        <time>2021-12-15T12:54:04Z</time>
      </trkpt>
      <trkpt lat="46.18004" lon="6.58265">
        <ele>2070</ele>
        <time>2021-12-15T12:54:32Z</time>
      </trkpt>
      <trkpt lat="46.18001" lon="6.58259">
        <ele>2071</ele>
        <time>2021-12-15T12:54:41Z</time>
      </trkpt>
      <trkpt lat="46.17998" lon="6.58248">
        <ele>2077</ele>
        <time>2021-12-15T12:54:53Z</time>
      </trkpt>
      <trkpt lat="46.18" lon="6.58245">
        <ele>2078</ele>
        <time>2021-12-15T12:54:56Z</time>
      </trkpt>
      <trkpt lat="46.17999" lon="6.5824">
        <ele>2075</ele>
        <time>2021-12-15T12:55:01Z</time>
      </trkpt>
      <trkpt lat="46.17997" lon="6.58234">
        <ele>2078</ele>
        <time>2021-12-15T12:55:08Z</time>
      </trkpt>
      <trkpt lat="46.17997" lon="6.5823">
        <ele>2078</ele>
        <time>2021-12-15T12:55:12Z</time>
      </trkpt>
      <trkpt lat="46.17999" lon="6.58226">
        <ele>2080</ele>
        <time>2021-12-15T12:55:19Z</time>
      </trkpt>
      <trkpt lat="46.18001" lon="6.58217">
        <ele>2085</ele>
        <time>2021-12-15T12:55:32Z</time>
      </trkpt>
      <trkpt lat="46.18" lon="6.58213">
        <ele>2084</ele>
        <time>2021-12-15T12:55:35Z</time>
      </trkpt>
      <trkpt lat="46.1801" lon="6.5821">
        <ele>2089</ele>
        <time>2021-12-15T12:55:53Z</time>
      </trkpt>
      <trkpt lat="46.18014" lon="6.58202">
        <ele>2088</ele>
        <time>2021-12-15T12:56:14Z</time>
      </trkpt>
      <trkpt lat="46.18013" lon="6.58196">
        <ele>2091</ele>
        <time>2021-12-15T12:56:33Z</time>
      </trkpt>
      <trkpt lat="46.18009" lon="6.58192">
        <ele>2090</ele>
        <time>2021-12-15T12:56:37Z</time>
      </trkpt>
      <trkpt lat="46.18005" lon="6.5819">
        <ele>2087</ele>
        <time>2021-12-15T12:56:41Z</time>
      </trkpt>
      <trkpt lat="46.18004" lon="6.58186">
        <ele>2088</ele>
        <time>2021-12-15T12:56:48Z</time>
      </trkpt>
      <trkpt lat="46.18001" lon="6.58184">
        <ele>2097</ele>
        <time>2021-12-15T12:56:55Z</time>
      </trkpt>
      <trkpt lat="46.17994" lon="6.58175">
        <ele>2096</ele>
        <time>2021-12-15T12:57:11Z</time>
      </trkpt>
      <trkpt lat="46.18" lon="6.5817">
        <ele>2100</ele>
        <time>2021-12-15T12:57:24Z</time>
      </trkpt>
      <trkpt lat="46.18002" lon="6.58165">
        <ele>2096</ele>
        <time>2021-12-15T12:57:38Z</time>
      </trkpt>
      <trkpt lat="46.17997" lon="6.58163">
        <ele>2105</ele>
        <time>2021-12-15T12:57:53Z</time>
      </trkpt>
      <trkpt lat="46.17993" lon="6.58155">
        <ele>2106</ele>
        <time>2021-12-15T12:58:05Z</time>
      </trkpt>
      <trkpt lat="46.17995" lon="6.58151">
        <ele>2109</ele>
        <time>2021-12-15T12:58:17Z</time>
      </trkpt>
      <trkpt lat="46.17998" lon="6.58151">
        <ele>2101</ele>
        <time>2021-12-15T12:59:05Z</time>
      </trkpt>
      <trkpt lat="46.17997" lon="6.58154">
        <ele>2112</ele>
        <time>2021-12-15T12:59:53Z</time>
      </trkpt>
      <trkpt lat="46.17997" lon="6.58152">
        <ele>2112</ele>
        <time>2021-12-15T13:00:04Z</time>
      </trkpt>
      <trkpt lat="46.17998" lon="6.58154">
        <ele>2108</ele>
        <time>2021-12-15T13:00:21Z</time>
      </trkpt>
      <trkpt lat="46.17995" lon="6.58158">
        <ele>2105</ele>
        <time>2021-12-15T13:00:27Z</time>
      </trkpt>
      <trkpt lat="46.17998" lon="6.58151">
        <ele>2109</ele>
        <time>2021-12-15T13:00:34Z</time>
      </trkpt>
      <trkpt lat="46.17999" lon="6.58156">
        <ele>2110</ele>
        <time>2021-12-15T13:00:42Z</time>
      </trkpt>
      <trkpt lat="46.17999" lon="6.58159">
        <ele>2101</ele>
        <time>2021-12-15T13:00:57Z</time>
      </trkpt>
      <trkpt lat="46.17998" lon="6.58151">
        <ele>2109</ele>
        <time>2021-12-15T13:01:48Z</time>
      </trkpt>
      <trkpt lat="46.17999" lon="6.58153">
        <ele>2108</ele>
        <time>2021-12-15T13:10:50Z</time>
      </trkpt>
      <trkpt lat="46.18002" lon="6.58151">
        <ele>2106</ele>
        <time>2021-12-15T13:11:44Z</time>
      </trkpt>
      <trkpt lat="46.18001" lon="6.58156">
        <ele>2107</ele>
        <time>2021-12-15T13:12:02Z</time>
      </trkpt>
      <trkpt lat="46.18004" lon="6.5816">
        <ele>2107</ele>
        <time>2021-12-15T13:12:05Z</time>
      </trkpt>
      <trkpt lat="46.18001" lon="6.58166">
        <ele>2104</ele>
        <time>2021-12-15T13:12:12Z</time>
      </trkpt>
      <trkpt lat="46.18006" lon="6.58167">
        <ele>2103</ele>
        <time>2021-12-15T13:12:15Z</time>
      </trkpt>
      <trkpt lat="46.18008" lon="6.58171">
        <ele>2103.4</ele>
        <time>2021-12-15T13:12:17Z</time>
      </trkpt>
      <trkpt lat="46.18009" lon="6.58177">
        <ele>2100</ele>
        <time>2021-12-15T13:12:19Z</time>
      </trkpt>
      <trkpt lat="46.18012" lon="6.58177">
        <ele>2101.7</ele>
        <time>2021-12-15T13:12:21Z</time>
      </trkpt>
      <trkpt lat="46.18013" lon="6.58182">
        <ele>2098.6</ele>
        <time>2021-12-15T13:12:22Z</time>
      </trkpt>
      <trkpt lat="46.18011" lon="6.58191">
        <ele>2094.2</ele>
        <time>2021-12-15T13:12:23Z</time>
      </trkpt>
      <trkpt lat="46.18015" lon="6.58193">
        <ele>2090</ele>
        <time>2021-12-15T13:12:24Z</time>
      </trkpt>
      <trkpt lat="46.18014" lon="6.58199">
        <ele>2092.7</ele>
        <time>2021-12-15T13:12:26Z</time>
      </trkpt>
      <trkpt lat="46.1801" lon="6.58201">
        <ele>2091.8</ele>
        <time>2021-12-15T13:12:27Z</time>
      </trkpt>
      <trkpt lat="46.18005" lon="6.58199">
        <ele>2090</ele>
        <time>2021-12-15T13:12:28Z</time>
      </trkpt>
      <trkpt lat="46.18002" lon="6.58203">
        <ele>2087.8</ele>
        <time>2021-12-15T13:12:30Z</time>
      </trkpt>
      <trkpt lat="46.18005" lon="6.58207">
        <ele>2082.8</ele>
        <time>2021-12-15T13:12:31Z</time>
      </trkpt>
      <trkpt lat="46.18007" lon="6.58218">
        <ele>2086.7</ele>
        <time>2021-12-15T13:12:33Z</time>
      </trkpt>
      <trkpt lat="46.18003" lon="6.58221">
        <ele>2085.4</ele>
        <time>2021-12-15T13:12:34Z</time>
      </trkpt>
      <trkpt lat="46.17997" lon="6.58226">
        <ele>2081.2</ele>
        <time>2021-12-15T13:12:35Z</time>
      </trkpt>
      <trkpt lat="46.17997" lon="6.58234">
        <ele>2078.8</ele>
        <time>2021-12-15T13:12:36Z</time>
      </trkpt>
      <trkpt lat="46.18" lon="6.5824">
        <ele>2075.9</ele>
        <time>2021-12-15T13:12:37Z</time>
      </trkpt>
      <trkpt lat="46.18004" lon="6.58245">
        <ele>2072.1</ele>
        <time>2021-12-15T13:12:38Z</time>
      </trkpt>
      <trkpt lat="46.18008" lon="6.58258">
        <ele>2071.2</ele>
        <time>2021-12-15T13:12:40Z</time>
      </trkpt>
      <trkpt lat="46.18003" lon="6.58263">
        <ele>2070.3</ele>
        <time>2021-12-15T13:12:41Z</time>
      </trkpt>
      <trkpt lat="46.17996" lon="6.58266">
        <ele>2071</ele>
        <time>2021-12-15T13:12:42Z</time>
      </trkpt>
      <trkpt lat="46.17994" lon="6.58273">
        <ele>2071.9</ele>
        <time>2021-12-15T13:12:43Z</time>
      </trkpt>
      <trkpt lat="46.18002" lon="6.58292">
        <ele>2070</ele>
        <time>2021-12-15T13:12:46Z</time>
      </trkpt>
      <trkpt lat="46.18005" lon="6.58292">
        <ele>2067</ele>
        <time>2021-12-15T13:12:48Z</time>
      </trkpt>
      <trkpt lat="46.18003" lon="6.58298">
        <ele>2065.7</ele>
        <time>2021-12-15T13:12:50Z</time>
      </trkpt>
      <trkpt lat="46.18001" lon="6.583">
        <ele>2063.5</ele>
        <time>2021-12-15T13:12:51Z</time>
      </trkpt>
      <trkpt lat="46.18003" lon="6.58313">
        <ele>2062.7</ele>
        <time>2021-12-15T13:12:53Z</time>
      </trkpt>
      <trkpt lat="46.18005" lon="6.58319">
        <ele>2061.5</ele>
        <time>2021-12-15T13:12:54Z</time>
      </trkpt>
      <trkpt lat="46.18002" lon="6.58328">
        <ele>2062.1</ele>
        <time>2021-12-15T13:12:55Z</time>
      </trkpt>
      <trkpt lat="46.17997" lon="6.58327">
        <ele>2059.8</ele>
        <time>2021-12-15T13:12:56Z</time>
      </trkpt>
      <trkpt lat="46.17996" lon="6.58333">
        <ele>2056</ele>
        <time>2021-12-15T13:12:57Z</time>
      </trkpt>
      <trkpt lat="46.17999" lon="6.58345">
        <ele>2051.5</ele>
        <time>2021-12-15T13:13:00Z</time>
      </trkpt>
      <trkpt lat="46.17999" lon="6.5835">
        <ele>2049.8</ele>
        <time>2021-12-15T13:13:01Z</time>
      </trkpt>
      <trkpt lat="46.17995" lon="6.58352">
        <ele>2049.1</ele>
        <time>2021-12-15T13:13:02Z</time>
      </trkpt>
      <trkpt lat="46.17991" lon="6.58355">
        <ele>2047.4</ele>
        <time>2021-12-15T13:13:03Z</time>
      </trkpt>
      <trkpt lat="46.17991" lon="6.5836">
        <ele>2045.6</ele>
        <time>2021-12-15T13:13:03Z</time>
      </trkpt>
      <trkpt lat="46.17993" lon="6.58365">
        <ele>2043.8</ele>
        <time>2021-12-15T13:13:04Z</time>
      </trkpt>
      <trkpt lat="46.17996" lon="6.58377">
        <ele>2045.5</ele>
        <time>2021-12-15T13:13:06Z</time>
      </trkpt>
      <trkpt lat="46.18001" lon="6.58383">
        <ele>2044.7</ele>
        <time>2021-12-15T13:13:07Z</time>
      </trkpt>
      <trkpt lat="46.18005" lon="6.58391">
        <ele>2045.4</ele>
        <time>2021-12-15T13:13:10Z</time>
      </trkpt>
      <trkpt lat="46.18006" lon="6.58397">
        <ele>2043.1</ele>
        <time>2021-12-15T13:13:11Z</time>
      </trkpt>
      <trkpt lat="46.17999" lon="6.58407">
        <ele>2040</ele>
        <time>2021-12-15T13:13:13Z</time>
      </trkpt>
      <trkpt lat="46.18001" lon="6.58418">
        <ele>2034.1</ele>
        <time>2021-12-15T13:13:15Z</time>
      </trkpt>
      <trkpt lat="46.18007" lon="6.58427">
        <ele>2035</ele>
        <time>2021-12-15T13:13:27Z</time>
      </trkpt>
      <trkpt lat="46.18004" lon="6.5843">
        <ele>2027</ele>
        <time>2021-12-15T13:13:52Z</time>
      </trkpt>
      <trkpt lat="46.18005" lon="6.58425">
        <ele>2029.1</ele>
        <time>2021-12-15T13:13:56Z</time>
      </trkpt>
      <trkpt lat="46.18006" lon="6.58429">
        <ele>2031</ele>
        <time>2021-12-15T13:13:58Z</time>
      </trkpt>
      <trkpt lat="46.18007" lon="6.58425">
        <ele>2032</ele>
        <time>2021-12-15T13:14:00Z</time>
      </trkpt>
      <trkpt lat="46.18004" lon="6.58417">
        <ele>2028</ele>
        <time>2021-12-15T13:14:05Z</time>
      </trkpt>
      <trkpt lat="46.17997" lon="6.58414">
        <ele>2026.2</ele>
        <time>2021-12-15T13:14:06Z</time>
      </trkpt>
      <trkpt lat="46.17993" lon="6.58414">
        <ele>2025.2</ele>
        <time>2021-12-15T13:14:07Z</time>
      </trkpt>
      <trkpt lat="46.17994" lon="6.58419">
        <ele>2020.7</ele>
        <time>2021-12-15T13:14:08Z</time>
      </trkpt>
      <trkpt lat="46.17997" lon="6.58425">
        <ele>2015.9</ele>
        <time>2021-12-15T13:14:09Z</time>
      </trkpt>
      <trkpt lat="46.17997" lon="6.58434">
        <ele>2016.6</ele>
        <time>2021-12-15T13:14:10Z</time>
      </trkpt>
      <trkpt lat="46.18004" lon="6.58453">
        <ele>2021.2</ele>
        <time>2021-12-15T13:14:14Z</time>
      </trkpt>
      <trkpt lat="46.18002" lon="6.5845">
        <ele>2019</ele>
        <time>2021-12-15T13:14:16Z</time>
      </trkpt>
      <trkpt lat="46.18002" lon="6.58458">
        <ele>2011.2</ele>
        <time>2021-12-15T13:14:18Z</time>
      </trkpt>
      <trkpt lat="46.18004" lon="6.5847">
        <ele>2011.1</ele>
        <time>2021-12-15T13:14:19Z</time>
      </trkpt>
      <trkpt lat="46.18007" lon="6.58477">
        <ele>2011.5</ele>
        <time>2021-12-15T13:14:21Z</time>
      </trkpt>
      <trkpt lat="46.18011" lon="6.58478">
        <ele>2005.2</ele>
        <time>2021-12-15T13:14:22Z</time>
      </trkpt>
      <trkpt lat="46.18014" lon="6.58485">
        <ele>2006.6</ele>
        <time>2021-12-15T13:14:23Z</time>
      </trkpt>
      <trkpt lat="46.18017" lon="6.58489">
        <ele>2002</ele>
        <time>2021-12-15T13:14:28Z</time>
      </trkpt>
      <trkpt lat="46.18015" lon="6.58492">
        <ele>2003</ele>
        <time>2021-12-15T13:14:40Z</time>
      </trkpt>
      <trkpt lat="46.18017" lon="6.58489">
        <ele>2009</ele>
        <time>2021-12-15T13:14:47Z</time>
      </trkpt>
      <trkpt lat="46.18015" lon="6.58482">
        <ele>2010</ele>
        <time>2021-12-15T13:14:50Z</time>
      </trkpt>
      <trkpt lat="46.18014" lon="6.58489">
        <ele>2008</ele>
        <time>2021-12-15T13:15:15Z</time>
      </trkpt>
      <trkpt lat="46.18013" lon="6.58485">
        <ele>2011.8</ele>
        <time>2021-12-15T13:15:16Z</time>
      </trkpt>
      <trkpt lat="46.18016" lon="6.58488">
        <ele>2006</ele>
        <time>2021-12-15T13:15:25Z</time>
      </trkpt>
      <trkpt lat="46.18019" lon="6.58484">
        <ele>2006</ele>
        <time>2021-12-15T13:15:52Z</time>
      </trkpt>
      <trkpt lat="46.18018" lon="6.58481">
        <ele>2009.4</ele>
        <time>2021-12-15T13:16:01Z</time>
      </trkpt>
      <trkpt lat="46.18018" lon="6.58485">
        <ele>2007.2</ele>
        <time>2021-12-15T13:16:02Z</time>
      </trkpt>
      <trkpt lat="46.18024" lon="6.58463">
        <ele>2003.3</ele>
        <time>2021-12-15T13:16:08Z</time>
      </trkpt>
      <trkpt lat="46.18025" lon="6.58467">
        <ele>2002.3</ele>
        <time>2021-12-15T13:16:09Z</time>
      </trkpt>
      <trkpt lat="46.1803" lon="6.58454">
        <ele>2002</ele>
        <time>2021-12-15T13:16:16Z</time>
      </trkpt>
      <trkpt lat="46.18036" lon="6.58451">
        <ele>1998</ele>
        <time>2021-12-15T13:16:29Z</time>
      </trkpt>
      <trkpt lat="46.18038" lon="6.58448">
        <ele>1998.6</ele>
        <time>2021-12-15T13:16:32Z</time>
      </trkpt>
      <trkpt lat="46.1804" lon="6.58439">
        <ele>1996</ele>
        <time>2021-12-15T13:16:40Z</time>
      </trkpt>
      <trkpt lat="46.18039" lon="6.58434">
        <ele>1995</ele>
        <time>2021-12-15T13:16:51Z</time>
      </trkpt>
      <trkpt lat="46.18041" lon="6.58422">
        <ele>2001</ele>
        <time>2021-12-15T13:17:13Z</time>
      </trkpt>
      <trkpt lat="46.18037" lon="6.58431">
        <ele>1996.9</ele>
        <time>2021-12-15T13:17:30Z</time>
      </trkpt>
      <trkpt lat="46.1804" lon="6.58425">
        <ele>2001.8</ele>
        <time>2021-12-15T13:17:32Z</time>
      </trkpt>
      <trkpt lat="46.18039" lon="6.58428">
        <ele>2000.9</ele>
        <time>2021-12-15T13:17:33Z</time>
      </trkpt>
      <trkpt lat="46.1804" lon="6.58423">
        <ele>2002.7</ele>
        <time>2021-12-15T13:17:35Z</time>
      </trkpt>
      <trkpt lat="46.18044" lon="6.58416">
        <ele>2007</ele>
        <time>2021-12-15T13:17:39Z</time>
      </trkpt>
      <trkpt lat="46.18039" lon="6.58424">
        <ele>2004</ele>
        <time>2021-12-15T13:17:46Z</time>
      </trkpt>
      <trkpt lat="46.18037" lon="6.5843">
        <ele>2000.1</ele>
        <time>2021-12-15T13:17:48Z</time>
      </trkpt>
      <trkpt lat="46.1804" lon="6.58423">
        <ele>2010</ele>
        <time>2021-12-15T13:17:56Z</time>
      </trkpt>
      <trkpt lat="46.18033" lon="6.58442">
        <ele>2008</ele>
        <time>2021-12-15T13:18:23Z</time>
      </trkpt>
      <trkpt lat="46.18034" lon="6.58437">
        <ele>1998</ele>
        <time>2021-12-15T13:18:28Z</time>
      </trkpt>
      <trkpt lat="46.18034" lon="6.58444">
        <ele>2002</ele>
        <time>2021-12-15T13:18:40Z</time>
      </trkpt>
      <trkpt lat="46.18035" lon="6.58436">
        <ele>1994</ele>
        <time>2021-12-15T13:18:50Z</time>
      </trkpt>
      <trkpt lat="46.18029" lon="6.58447">
        <ele>2004</ele>
        <time>2021-12-15T13:19:22Z</time>
      </trkpt>
      <trkpt lat="46.18027" lon="6.58453">
        <ele>2005</ele>
        <time>2021-12-15T13:19:30Z</time>
      </trkpt>
      <trkpt lat="46.18027" lon="6.58449">
        <ele>2005</ele>
        <time>2021-12-15T13:19:35Z</time>
      </trkpt>
      <trkpt lat="46.18027" lon="6.58455">
        <ele>2010</ele>
        <time>2021-12-15T13:19:40Z</time>
      </trkpt>
      <trkpt lat="46.18027" lon="6.58449">
        <ele>2005</ele>
        <time>2021-12-15T13:19:48Z</time>
      </trkpt>
      <trkpt lat="46.18028" lon="6.58452">
        <ele>2007</ele>
        <time>2021-12-15T13:20:01Z</time>
      </trkpt>
      <trkpt lat="46.18027" lon="6.58451">
        <ele>2007</ele>
        <time>2021-12-15T13:20:10Z</time>
      </trkpt>
      <trkpt lat="46.18024" lon="6.58455">
        <ele>2004</ele>
        <time>2021-12-15T13:20:25Z</time>
      </trkpt>
      <trkpt lat="46.18024" lon="6.5844">
        <ele>1993</ele>
        <time>2021-12-15T13:20:40Z</time>
      </trkpt>
      <trkpt lat="46.18018" lon="6.58482">
        <ele>2024</ele>
        <time>2021-12-15T13:21:10Z</time>
      </trkpt>
      <trkpt lat="46.18018" lon="6.58489">
        <ele>2028.1</ele>
        <time>2021-12-15T13:21:14Z</time>
      </trkpt>
      <trkpt lat="46.18017" lon="6.58479">
        <ele>2016</ele>
        <time>2021-12-15T13:21:19Z</time>
      </trkpt>
      <trkpt lat="46.18018" lon="6.58467">
        <ele>2008</ele>
        <time>2021-12-15T13:21:39Z</time>
      </trkpt>
      <trkpt lat="46.18016" lon="6.58472">
        <ele>2004</ele>
        <time>2021-12-15T13:21:45Z</time>
      </trkpt>
      <trkpt lat="46.18021" lon="6.58456">
        <ele>2017</ele>
        <time>2021-12-15T13:21:51Z</time>
      </trkpt>
      <trkpt lat="46.18025" lon="6.58441">
        <ele>2026.7</ele>
        <time>2021-12-15T13:21:54Z</time>
      </trkpt>
      <trkpt lat="46.18021" lon="6.58458">
        <ele>2012.4</ele>
        <time>2021-12-15T13:22:02Z</time>
      </trkpt>
      <trkpt lat="46.18023" lon="6.58453">
        <ele>2015</ele>
        <time>2021-12-15T13:22:04Z</time>
      </trkpt>
      <trkpt lat="46.18027" lon="6.58437">
        <ele>2019</ele>
        <time>2021-12-15T13:22:30Z</time>
      </trkpt>
      <trkpt lat="46.18025" lon="6.58433">
        <ele>2013</ele>
        <time>2021-12-15T13:22:36Z</time>
      </trkpt>
      <trkpt lat="46.18029" lon="6.58425">
        <ele>2014</ele>
        <time>2021-12-15T13:22:43Z</time>
      </trkpt>
      <trkpt lat="46.18032" lon="6.58423">
        <ele>2017.1</ele>
        <time>2021-12-15T13:22:45Z</time>
      </trkpt>
      <trkpt lat="46.18039" lon="6.58405">
        <ele>2026</ele>
        <time>2021-12-15T13:22:50Z</time>
      </trkpt>
      <trkpt lat="46.1804" lon="6.58399">
        <ele>2024.3</ele>
        <time>2021-12-15T13:22:52Z</time>
      </trkpt>
      <trkpt lat="46.18043" lon="6.58395">
        <ele>2023</ele>
        <time>2021-12-15T13:22:53Z</time>
      </trkpt>
      <trkpt lat="46.18043" lon="6.58398">
        <ele>2018.4</ele>
        <time>2021-12-15T13:22:55Z</time>
      </trkpt>
      <trkpt lat="46.1804" lon="6.584">
        <ele>2016</ele>
        <time>2021-12-15T13:22:57Z</time>
      </trkpt>
      <trkpt lat="46.18042" lon="6.58397">
        <ele>2016</ele>
        <time>2021-12-15T13:23:04Z</time>
      </trkpt>
      <trkpt lat="46.18039" lon="6.584">
        <ele>2016</ele>
        <time>2021-12-15T13:23:20Z</time>
      </trkpt>
      <trkpt lat="46.18041" lon="6.58403">
        <ele>2016</ele>
        <time>2021-12-15T13:23:30Z</time>
      </trkpt>
      <trkpt lat="46.1804" lon="6.58408">
        <ele>2011.6</ele>
        <time>2021-12-15T13:23:34Z</time>
      </trkpt>
      <trkpt lat="46.18036" lon="6.58409">
        <ele>2012.3</ele>
        <time>2021-12-15T13:23:35Z</time>
      </trkpt>
      <trkpt lat="46.18037" lon="6.58405">
        <ele>2015.6</ele>
        <time>2021-12-15T13:23:36Z</time>
      </trkpt>
      <trkpt lat="46.18037" lon="6.5841">
        <ele>2006</ele>
        <time>2021-12-15T13:23:45Z</time>
      </trkpt>
      <trkpt lat="46.18035" lon="6.58405">
        <ele>2014.7</ele>
        <time>2021-12-15T13:23:54Z</time>
      </trkpt>
      <trkpt lat="46.18038" lon="6.58401">
        <ele>2012.8</ele>
        <time>2021-12-15T13:23:55Z</time>
      </trkpt>
      <trkpt lat="46.18039" lon="6.58392">
        <ele>2012.5</ele>
        <time>2021-12-15T13:23:56Z</time>
      </trkpt>
      <trkpt lat="46.18042" lon="6.58383">
        <ele>2007.4</ele>
        <time>2021-12-15T13:23:58Z</time>
      </trkpt>
      <trkpt lat="46.18041" lon="6.58374">
        <ele>2006</ele>
        <time>2021-12-15T13:24:01Z</time>
      </trkpt>
      <trkpt lat="46.1805" lon="6.58344">
        <ele>1996.2</ele>
        <time>2021-12-15T13:24:08Z</time>
      </trkpt>
      <trkpt lat="46.18046" lon="6.58346">
        <ele>1991.9</ele>
        <time>2021-12-15T13:24:09Z</time>
      </trkpt>
      <trkpt lat="46.18048" lon="6.58343">
        <ele>1994.4</ele>
        <time>2021-12-15T13:24:10Z</time>
      </trkpt>
      <trkpt lat="46.18045" lon="6.58333">
        <ele>1989</ele>
        <time>2021-12-15T13:24:15Z</time>
      </trkpt>
      <trkpt lat="46.18044" lon="6.58322">
        <ele>1993.9</ele>
        <time>2021-12-15T13:24:16Z</time>
      </trkpt>
      <trkpt lat="46.18045" lon="6.58315">
        <ele>1997.4</ele>
        <time>2021-12-15T13:24:17Z</time>
      </trkpt>
      <trkpt lat="46.18049" lon="6.58317">
        <ele>1998</ele>
        <time>2021-12-15T13:24:19Z</time>
      </trkpt>
      <trkpt lat="46.18052" lon="6.58315">
        <ele>1998</ele>
        <time>2021-12-15T13:24:21Z</time>
      </trkpt>
      <trkpt lat="46.18059" lon="6.58314">
        <ele>2002.1</ele>
        <time>2021-12-15T13:24:22Z</time>
      </trkpt>
      <trkpt lat="46.18063" lon="6.58314">
        <ele>2003</ele>
        <time>2021-12-15T13:24:23Z</time>
      </trkpt>
      <trkpt lat="46.18065" lon="6.58317">
        <ele>1995</ele>
        <time>2021-12-15T13:24:26Z</time>
      </trkpt>
      <trkpt lat="46.18071" lon="6.58316">
        <ele>1994.3</ele>
        <time>2021-12-15T13:24:29Z</time>
      </trkpt>
      <trkpt lat="46.18073" lon="6.5832">
        <ele>1991</ele>
        <time>2021-12-15T13:24:32Z</time>
      </trkpt>
      <trkpt lat="46.18067" lon="6.5832">
        <ele>1979</ele>
        <time>2021-12-15T13:24:34Z</time>
      </trkpt>
      <trkpt lat="46.18063" lon="6.58348">
        <ele>1976</ele>
        <time>2021-12-15T13:24:40Z</time>
      </trkpt>
      <trkpt lat="46.18062" lon="6.58353">
        <ele>1979</ele>
        <time>2021-12-15T13:24:43Z</time>
      </trkpt>
      <trkpt lat="46.18061" lon="6.58366">
        <ele>1995</ele>
        <time>2021-12-15T13:24:49Z</time>
      </trkpt>
      <trkpt lat="46.1806" lon="6.58363">
        <ele>1991.6</ele>
        <time>2021-12-15T13:25:00Z</time>
      </trkpt>
      <trkpt lat="46.18061" lon="6.58357">
        <ele>1985</ele>
        <time>2021-12-15T13:25:05Z</time>
      </trkpt>
      <trkpt lat="46.18063" lon="6.58361">
        <ele>1984</ele>
        <time>2021-12-15T13:25:09Z</time>
      </trkpt>
      <trkpt lat="46.18066" lon="6.58376">
        <ele>1978.1</ele>
        <time>2021-12-15T13:25:12Z</time>
      </trkpt>
      <trkpt lat="46.18064" lon="6.58394">
        <ele>1964</ele>
        <time>2021-12-15T13:25:22Z</time>
      </trkpt>
      <trkpt lat="46.18072" lon="6.58392">
        <ele>1958</ele>
        <time>2021-12-15T13:25:23Z</time>
      </trkpt>
      <trkpt lat="46.18079" lon="6.58396">
        <ele>1954.3</ele>
        <time>2021-12-15T13:25:25Z</time>
      </trkpt>
      <trkpt lat="46.18125" lon="6.58462">
        <ele>1902.8</ele>
        <time>2021-12-15T13:25:37Z</time>
      </trkpt>
      <trkpt lat="46.18123" lon="6.58456">
        <ele>1903.8</ele>
        <time>2021-12-15T13:25:37Z</time>
      </trkpt>
      <trkpt lat="46.18129" lon="6.58468">
        <ele>1904</ele>
        <time>2021-12-15T13:25:49Z</time>
      </trkpt>
      <trkpt lat="46.18125" lon="6.58469">
        <ele>1901</ele>
        <time>2021-12-15T13:25:54Z</time>
      </trkpt>
      <trkpt lat="46.1813" lon="6.58466">
        <ele>1905</ele>
        <time>2021-12-15T13:25:56Z</time>
      </trkpt>
      <trkpt lat="46.18131" lon="6.58462">
        <ele>1904</ele>
        <time>2021-12-15T13:25:58Z</time>
      </trkpt>
      <trkpt lat="46.18134" lon="6.58458">
        <ele>1897.3</ele>
        <time>2021-12-15T13:26:00Z</time>
      </trkpt>
      <trkpt lat="46.18136" lon="6.58461">
        <ele>1891.9</ele>
        <time>2021-12-15T13:26:01Z</time>
      </trkpt>
      <trkpt lat="46.18137" lon="6.58471">
        <ele>1888.7</ele>
        <time>2021-12-15T13:26:02Z</time>
      </trkpt>
      <trkpt lat="46.1814" lon="6.58476">
        <ele>1886</ele>
        <time>2021-12-15T13:26:04Z</time>
      </trkpt>
      <trkpt lat="46.1816" lon="6.58493">
        <ele>1886.4</ele>
        <time>2021-12-15T13:26:05Z</time>
      </trkpt>
      <trkpt lat="46.18176" lon="6.5852">
        <ele>1883.5</ele>
        <time>2021-12-15T13:26:06Z</time>
      </trkpt>
      <trkpt lat="46.18182" lon="6.58543">
        <ele>1888.8</ele>
        <time>2021-12-15T13:26:07Z</time>
      </trkpt>
      <trkpt lat="46.18189" lon="6.58559">
        <ele>1888.2</ele>
        <time>2021-12-15T13:26:08Z</time>
      </trkpt>
      <trkpt lat="46.18196" lon="6.58568">
        <ele>1885.7</ele>
        <time>2021-12-15T13:26:09Z</time>
      </trkpt>
      <trkpt lat="46.18197" lon="6.58584">
        <ele>1893.9</ele>
        <time>2021-12-15T13:26:10Z</time>
      </trkpt>
      <trkpt lat="46.18194" lon="6.58592">
        <ele>1896.5</ele>
        <time>2021-12-15T13:26:11Z</time>
      </trkpt>
      <trkpt lat="46.18197" lon="6.58591">
        <ele>1892.3</ele>
        <time>2021-12-15T13:26:12Z</time>
      </trkpt>
      <trkpt lat="46.18199" lon="6.58601">
        <ele>1893.1</ele>
        <time>2021-12-15T13:26:13Z</time>
      </trkpt>
      <trkpt lat="46.18202" lon="6.58603">
        <ele>1889.5</ele>
        <time>2021-12-15T13:26:14Z</time>
      </trkpt>
      <trkpt lat="46.18203" lon="6.5861">
        <ele>1890.2</ele>
        <time>2021-12-15T13:26:15Z</time>
      </trkpt>
      <trkpt lat="46.18212" lon="6.58623">
        <ele>1888.8</ele>
        <time>2021-12-15T13:26:17Z</time>
      </trkpt>
      <trkpt lat="46.18206" lon="6.5863">
        <ele>1887.8</ele>
        <time>2021-12-15T13:26:18Z</time>
      </trkpt>
      <trkpt lat="46.18203" lon="6.58639">
        <ele>1888.6</ele>
        <time>2021-12-15T13:26:20Z</time>
      </trkpt>
      <trkpt lat="46.18208" lon="6.5866">
        <ele>1883</ele>
        <time>2021-12-15T13:26:27Z</time>
      </trkpt>
      <trkpt lat="46.18209" lon="6.58669">
        <ele>1886.2</ele>
        <time>2021-12-15T13:26:28Z</time>
      </trkpt>
      <trkpt lat="46.1821" lon="6.58676">
        <ele>1880</ele>
        <time>2021-12-15T13:26:32Z</time>
      </trkpt>
      <trkpt lat="46.18213" lon="6.5867">
        <ele>1881</ele>
        <time>2021-12-15T13:26:39Z</time>
      </trkpt>
      <trkpt lat="46.18214" lon="6.58672">
        <ele>1888.4</ele>
        <time>2021-12-15T13:26:47Z</time>
      </trkpt>
      <trkpt lat="46.18214" lon="6.58669">
        <ele>1875</ele>
        <time>2021-12-15T13:26:56Z</time>
      </trkpt>
      <trkpt lat="46.18213" lon="6.58674">
        <ele>1884</ele>
        <time>2021-12-15T13:27:07Z</time>
      </trkpt>
      <trkpt lat="46.18218" lon="6.58667">
        <ele>1892</ele>
        <time>2021-12-15T13:27:12Z</time>
      </trkpt>
      <trkpt lat="46.18221" lon="6.58672">
        <ele>1893.7</ele>
        <time>2021-12-15T13:27:14Z</time>
      </trkpt>
      <trkpt lat="46.18219" lon="6.58676">
        <ele>1886</ele>
        <time>2021-12-15T13:27:15Z</time>
      </trkpt>
      <trkpt lat="46.18221" lon="6.58679">
        <ele>1885</ele>
        <time>2021-12-15T13:27:17Z</time>
      </trkpt>
      <trkpt lat="46.18223" lon="6.58687">
        <ele>1881.3</ele>
        <time>2021-12-15T13:27:20Z</time>
      </trkpt>
      <trkpt lat="46.18228" lon="6.58699">
        <ele>1881.5</ele>
        <time>2021-12-15T13:27:21Z</time>
      </trkpt>
      <trkpt lat="46.18224" lon="6.58704">
        <ele>1880.8</ele>
        <time>2021-12-15T13:27:22Z</time>
      </trkpt>
      <trkpt lat="46.18223" lon="6.58714">
        <ele>1880.4</ele>
        <time>2021-12-15T13:27:23Z</time>
      </trkpt>
      <trkpt lat="46.18226" lon="6.58742">
        <ele>1879</ele>
        <time>2021-12-15T13:27:33Z</time>
      </trkpt>
      <trkpt lat="46.18224" lon="6.58746">
        <ele>1875</ele>
        <time>2021-12-15T13:27:39Z</time>
      </trkpt>
      <trkpt lat="46.18224" lon="6.58749">
        <ele>1874.6</ele>
        <time>2021-12-15T13:27:42Z</time>
      </trkpt>
      <trkpt lat="46.18222" lon="6.58751">
        <ele>1875.2</ele>
        <time>2021-12-15T13:27:43Z</time>
      </trkpt>
      <trkpt lat="46.1822" lon="6.58756">
        <ele>1874.6</ele>
        <time>2021-12-15T13:27:44Z</time>
      </trkpt>
      <trkpt lat="46.18221" lon="6.58762">
        <ele>1873.9</ele>
        <time>2021-12-15T13:27:45Z</time>
      </trkpt>
      <trkpt lat="46.18222" lon="6.58765">
        <ele>1873.7</ele>
        <time>2021-12-15T13:27:46Z</time>
      </trkpt>
      <trkpt lat="46.18227" lon="6.58769">
        <ele>1873.5</ele>
        <time>2021-12-15T13:27:47Z</time>
      </trkpt>
      <trkpt lat="46.18232" lon="6.58789">
        <ele>1869.2</ele>
        <time>2021-12-15T13:27:52Z</time>
      </trkpt>
      <trkpt lat="46.18243" lon="6.58807">
        <ele>1868</ele>
        <time>2021-12-15T13:27:56Z</time>
      </trkpt>
      <trkpt lat="46.18247" lon="6.58821">
        <ele>1866.8</ele>
        <time>2021-12-15T13:27:58Z</time>
      </trkpt>
      <trkpt lat="46.18244" lon="6.58834">
        <ele>1865</ele>
        <time>2021-12-15T13:28:01Z</time>
      </trkpt>
      <trkpt lat="46.18238" lon="6.58842">
        <ele>1865</ele>
        <time>2021-12-15T13:28:08Z</time>
      </trkpt>
      <trkpt lat="46.18235" lon="6.58842">
        <ele>1864</ele>
        <time>2021-12-15T13:28:17Z</time>
      </trkpt>
      <trkpt lat="46.18235" lon="6.58838">
        <ele>1863</ele>
        <time>2021-12-15T13:28:30Z</time>
      </trkpt>
      <trkpt lat="46.18236" lon="6.58841">
        <ele>1866</ele>
        <time>2021-12-15T13:28:37Z</time>
      </trkpt>
      <trkpt lat="46.18248" lon="6.58836">
        <ele>1858.7</ele>
        <time>2021-12-15T13:28:43Z</time>
      </trkpt>
      <trkpt lat="46.1825" lon="6.58831">
        <ele>1855.7</ele>
        <time>2021-12-15T13:28:44Z</time>
      </trkpt>
      <trkpt lat="46.18256" lon="6.58827">
        <ele>1853</ele>
        <time>2021-12-15T13:28:46Z</time>
      </trkpt>
      <trkpt lat="46.18258" lon="6.58822">
        <ele>1855</ele>
        <time>2021-12-15T13:28:51Z</time>
      </trkpt>
      <trkpt lat="46.1827" lon="6.58823">
        <ele>1855.6</ele>
        <time>2021-12-15T13:28:56Z</time>
      </trkpt>
      <trkpt lat="46.18277" lon="6.58819">
        <ele>1854.6</ele>
        <time>2021-12-15T13:28:57Z</time>
      </trkpt>
      <trkpt lat="46.18277" lon="6.58811">
        <ele>1854.4</ele>
        <time>2021-12-15T13:28:58Z</time>
      </trkpt>
      <trkpt lat="46.18275" lon="6.58821">
        <ele>1854</ele>
        <time>2021-12-15T13:29:02Z</time>
      </trkpt>
      <trkpt lat="46.18272" lon="6.58836">
        <ele>1855.4</ele>
        <time>2021-12-15T13:29:05Z</time>
      </trkpt>
      <trkpt lat="46.18274" lon="6.58845">
        <ele>1850</ele>
        <time>2021-12-15T13:29:06Z</time>
      </trkpt>
      <trkpt lat="46.1828" lon="6.58854">
        <ele>1842.3</ele>
        <time>2021-12-15T13:29:08Z</time>
      </trkpt>
      <trkpt lat="46.18288" lon="6.58858">
        <ele>1837.1</ele>
        <time>2021-12-15T13:29:10Z</time>
      </trkpt>
      <trkpt lat="46.18295" lon="6.58861">
        <ele>1834.4</ele>
        <time>2021-12-15T13:29:11Z</time>
      </trkpt>
      <trkpt lat="46.18295" lon="6.58869">
        <ele>1831.3</ele>
        <time>2021-12-15T13:29:12Z</time>
      </trkpt>
      <trkpt lat="46.18289" lon="6.58873">
        <ele>1830.2</ele>
        <time>2021-12-15T13:29:13Z</time>
      </trkpt>
      <trkpt lat="46.1829" lon="6.58878">
        <ele>1827.4</ele>
        <time>2021-12-15T13:29:14Z</time>
      </trkpt>
      <trkpt lat="46.18295" lon="6.5888">
        <ele>1826.1</ele>
        <time>2021-12-15T13:29:15Z</time>
      </trkpt>
      <trkpt lat="46.18296" lon="6.58886">
        <ele>1823</ele>
        <time>2021-12-15T13:29:16Z</time>
      </trkpt>
      <trkpt lat="46.18293" lon="6.58887">
        <ele>1822</ele>
        <time>2021-12-15T13:29:18Z</time>
      </trkpt>
      <trkpt lat="46.18283" lon="6.58905">
        <ele>1832</ele>
        <time>2021-12-15T13:29:24Z</time>
      </trkpt>
      <trkpt lat="46.18286" lon="6.58896">
        <ele>1826</ele>
        <time>2021-12-15T13:29:32Z</time>
      </trkpt>
      <trkpt lat="46.18284" lon="6.58899">
        <ele>1822</ele>
        <time>2021-12-15T13:29:38Z</time>
      </trkpt>
      <trkpt lat="46.18281" lon="6.58909">
        <ele>1822</ele>
        <time>2021-12-15T13:29:42Z</time>
      </trkpt>
      <trkpt lat="46.18282" lon="6.58916">
        <ele>1816.4</ele>
        <time>2021-12-15T13:29:44Z</time>
      </trkpt>
      <trkpt lat="46.18286" lon="6.58921">
        <ele>1812.5</ele>
        <time>2021-12-15T13:29:45Z</time>
      </trkpt>
      <trkpt lat="46.18288" lon="6.58929">
        <ele>1810.8</ele>
        <time>2021-12-15T13:29:46Z</time>
      </trkpt>
      <trkpt lat="46.18283" lon="6.5894">
        <ele>1806.2</ele>
        <time>2021-12-15T13:29:47Z</time>
      </trkpt>
      <trkpt lat="46.18273" lon="6.58942">
        <ele>1802.7</ele>
        <time>2021-12-15T13:29:48Z</time>
      </trkpt>
      <trkpt lat="46.18265" lon="6.58941">
        <ele>1801.1</ele>
        <time>2021-12-15T13:29:48Z</time>
      </trkpt>
      <trkpt lat="46.1826" lon="6.58942">
        <ele>1800</ele>
        <time>2021-12-15T13:29:49Z</time>
      </trkpt>
      <trkpt lat="46.18255" lon="6.5894">
        <ele>1795.7</ele>
        <time>2021-12-15T13:29:50Z</time>
      </trkpt>
      <trkpt lat="46.18248" lon="6.58945">
        <ele>1792.8</ele>
        <time>2021-12-15T13:29:51Z</time>
      </trkpt>
      <trkpt lat="46.18244" lon="6.58944">
        <ele>1788.1</ele>
        <time>2021-12-15T13:29:52Z</time>
      </trkpt>
      <trkpt lat="46.18236" lon="6.58944">
        <ele>1785.2</ele>
        <time>2021-12-15T13:29:53Z</time>
      </trkpt>
      <trkpt lat="46.18222" lon="6.58953">
        <ele>1787.5</ele>
        <time>2021-12-15T13:29:56Z</time>
      </trkpt>
      <trkpt lat="46.18209" lon="6.58965">
        <ele>1784.8</ele>
        <time>2021-12-15T13:29:59Z</time>
      </trkpt>
      <trkpt lat="46.1821" lon="6.5897">
        <ele>1781.3</ele>
        <time>2021-12-15T13:30:00Z</time>
      </trkpt>
      <trkpt lat="46.18214" lon="6.58979">
        <ele>1776.2</ele>
        <time>2021-12-15T13:30:02Z</time>
      </trkpt>
      <trkpt lat="46.18214" lon="6.58989">
        <ele>1775.7</ele>
        <time>2021-12-15T13:30:03Z</time>
      </trkpt>
      <trkpt lat="46.18224" lon="6.59004">
        <ele>1772.8</ele>
        <time>2021-12-15T13:30:04Z</time>
      </trkpt>
      <trkpt lat="46.18227" lon="6.59024">
        <ele>1774.4</ele>
        <time>2021-12-15T13:30:05Z</time>
      </trkpt>
      <trkpt lat="46.18228" lon="6.5904">
        <ele>1772.7</ele>
        <time>2021-12-15T13:30:06Z</time>
      </trkpt>
      <trkpt lat="46.18234" lon="6.59053">
        <ele>1771.8</ele>
        <time>2021-12-15T13:30:07Z</time>
      </trkpt>
      <trkpt lat="46.1823" lon="6.59056">
        <ele>1772.5</ele>
        <time>2021-12-15T13:30:08Z</time>
      </trkpt>
      <trkpt lat="46.18229" lon="6.5905">
        <ele>1764</ele>
        <time>2021-12-15T13:30:12Z</time>
      </trkpt>
      <trkpt lat="46.1823" lon="6.5906">
        <ele>1764</ele>
        <time>2021-12-15T13:30:26Z</time>
      </trkpt>
      <trkpt lat="46.1823" lon="6.59056">
        <ele>1761.3</ele>
        <time>2021-12-15T13:30:27Z</time>
      </trkpt>
      <trkpt lat="46.18229" lon="6.5906">
        <ele>1763</ele>
        <time>2021-12-15T13:30:29Z</time>
      </trkpt>
      <trkpt lat="46.18232" lon="6.59057">
        <ele>1760</ele>
        <time>2021-12-15T13:30:38Z</time>
      </trkpt>
      <trkpt lat="46.18231" lon="6.59058">
        <ele>1761</ele>
        <time>2021-12-15T13:30:49Z</time>
      </trkpt>
      <trkpt lat="46.1823" lon="6.59065">
        <ele>1761</ele>
        <time>2021-12-15T13:30:55Z</time>
      </trkpt>
      <trkpt lat="46.18228" lon="6.5906">
        <ele>1766.4</ele>
        <time>2021-12-15T13:31:02Z</time>
      </trkpt>
      <trkpt lat="46.18229" lon="6.5905">
        <ele>1756</ele>
        <time>2021-12-15T13:31:11Z</time>
      </trkpt>
      <trkpt lat="46.18233" lon="6.59057">
        <ele>1756.5</ele>
        <time>2021-12-15T13:31:20Z</time>
      </trkpt>
      <trkpt lat="46.18238" lon="6.59056">
        <ele>1752</ele>
        <time>2021-12-15T13:31:24Z</time>
      </trkpt>
      <trkpt lat="46.18233" lon="6.59049">
        <ele>1756.4</ele>
        <time>2021-12-15T13:31:44Z</time>
      </trkpt>
      <trkpt lat="46.18234" lon="6.59045">
        <ele>1753</ele>
        <time>2021-12-15T13:31:46Z</time>
      </trkpt>
      <trkpt lat="46.18233" lon="6.59048">
        <ele>1757</ele>
        <time>2021-12-15T13:31:57Z</time>
      </trkpt>
      <trkpt lat="46.18235" lon="6.59045">
        <ele>1756</ele>
        <time>2021-12-15T13:32:08Z</time>
      </trkpt>
      <trkpt lat="46.1823" lon="6.59045">
        <ele>1758</ele>
        <time>2021-12-15T13:32:27Z</time>
      </trkpt>
      <trkpt lat="46.18233" lon="6.59049">
        <ele>1758</ele>
        <time>2021-12-15T13:32:29Z</time>
      </trkpt>
      <trkpt lat="46.18225" lon="6.59052">
        <ele>1758</ele>
        <time>2021-12-15T13:32:38Z</time>
      </trkpt>
      <trkpt lat="46.18231" lon="6.59054">
        <ele>1765</ele>
        <time>2021-12-15T13:32:56Z</time>
      </trkpt>
      <trkpt lat="46.18233" lon="6.5906">
        <ele>1765.1</ele>
        <time>2021-12-15T13:33:10Z</time>
      </trkpt>
      <trkpt lat="46.18236" lon="6.59059">
        <ele>1761</ele>
        <time>2021-12-15T13:33:13Z</time>
      </trkpt>
      <trkpt lat="46.18236" lon="6.5905">
        <ele>1755</ele>
        <time>2021-12-15T13:33:21Z</time>
      </trkpt>
      <trkpt lat="46.18232" lon="6.59047">
        <ele>1748</ele>
        <time>2021-12-15T13:33:29Z</time>
      </trkpt>
      <trkpt lat="46.18234" lon="6.59044">
        <ele>1744</ele>
        <time>2021-12-15T13:33:40Z</time>
      </trkpt>
      <trkpt lat="46.18239" lon="6.59048">
        <ele>1749</ele>
        <time>2021-12-15T13:33:51Z</time>
      </trkpt>
      <trkpt lat="46.18235" lon="6.59054">
        <ele>1758.4</ele>
        <time>2021-12-15T13:33:58Z</time>
      </trkpt>
      <trkpt lat="46.18236" lon="6.59068">
        <ele>1755</ele>
        <time>2021-12-15T13:34:02Z</time>
      </trkpt>
      <trkpt lat="46.18236" lon="6.59063">
        <ele>1758</ele>
        <time>2021-12-15T13:34:05Z</time>
      </trkpt>
      <trkpt lat="46.18233" lon="6.59061">
        <ele>1753.9</ele>
        <time>2021-12-15T13:34:09Z</time>
      </trkpt>
      <trkpt lat="46.18237" lon="6.59059">
        <ele>1756</ele>
        <time>2021-12-15T13:34:10Z</time>
      </trkpt>
      <trkpt lat="46.18236" lon="6.59055">
        <ele>1755</ele>
        <time>2021-12-15T13:34:16Z</time>
      </trkpt>
      <trkpt lat="46.18236" lon="6.59058">
        <ele>1757.5</ele>
        <time>2021-12-15T13:34:18Z</time>
      </trkpt>
      <trkpt lat="46.18242" lon="6.59059">
        <ele>1756</ele>
        <time>2021-12-15T13:34:20Z</time>
      </trkpt>
      <trkpt lat="46.1824" lon="6.59054">
        <ele>1760</ele>
        <time>2021-12-15T13:34:23Z</time>
      </trkpt>
      <trkpt lat="46.1824" lon="6.59046">
        <ele>1759.2</ele>
        <time>2021-12-15T13:34:25Z</time>
      </trkpt>
      <trkpt lat="46.18233" lon="6.59043">
        <ele>1757</ele>
        <time>2021-12-15T13:34:43Z</time>
      </trkpt>
      <trkpt lat="46.18229" lon="6.59047">
        <ele>1756</ele>
        <time>2021-12-15T13:34:53Z</time>
      </trkpt>
      <trkpt lat="46.18232" lon="6.59041">
        <ele>1751</ele>
        <time>2021-12-15T13:35:14Z</time>
      </trkpt>
      <trkpt lat="46.18234" lon="6.59045">
        <ele>1756</ele>
        <time>2021-12-15T13:35:24Z</time>
      </trkpt>
      <trkpt lat="46.18233" lon="6.59042">
        <ele>1752</ele>
        <time>2021-12-15T13:35:27Z</time>
      </trkpt>
      <trkpt lat="46.1824" lon="6.59045">
        <ele>1751</ele>
        <time>2021-12-15T13:35:36Z</time>
      </trkpt>
      <trkpt lat="46.18242" lon="6.59047">
        <ele>1752.5</ele>
        <time>2021-12-15T13:35:37Z</time>
      </trkpt>
      <trkpt lat="46.18242" lon="6.59043">
        <ele>1750</ele>
        <time>2021-12-15T13:35:40Z</time>
      </trkpt>
      <trkpt lat="46.1824" lon="6.5904">
        <ele>1753.4</ele>
        <time>2021-12-15T13:35:43Z</time>
      </trkpt>
      <trkpt lat="46.18236" lon="6.59038">
        <ele>1753.9</ele>
        <time>2021-12-15T13:35:44Z</time>
      </trkpt>
      <trkpt lat="46.18237" lon="6.59044">
        <ele>1755</ele>
        <time>2021-12-15T13:36:40Z</time>
      </trkpt>
      <trkpt lat="46.18231" lon="6.59046">
        <ele>1755</ele>
        <time>2021-12-15T13:36:50Z</time>
      </trkpt>
      <trkpt lat="46.18218" lon="6.59046">
        <ele>1758</ele>
        <time>2021-12-15T13:37:10Z</time>
      </trkpt>
      <trkpt lat="46.18212" lon="6.59031">
        <ele>1762</ele>
        <time>2021-12-15T13:37:23Z</time>
      </trkpt>
      <trkpt lat="46.18211" lon="6.59023">
        <ele>1765</ele>
        <time>2021-12-15T13:37:30Z</time>
      </trkpt>
      <trkpt lat="46.18211" lon="6.59003">
        <ele>1768</ele>
        <time>2021-12-15T13:37:50Z</time>
      </trkpt>
      <trkpt lat="46.18203" lon="6.59006">
        <ele>1772</ele>
        <time>2021-12-15T13:38:00Z</time>
      </trkpt>
      <trkpt lat="46.18196" lon="6.59013">
        <ele>1775</ele>
        <time>2021-12-15T13:38:12Z</time>
      </trkpt>
      <trkpt lat="46.18188" lon="6.59017">
        <ele>1775</ele>
        <time>2021-12-15T13:38:23Z</time>
      </trkpt>
      <trkpt lat="46.18188" lon="6.58981">
        <ele>1783</ele>
        <time>2021-12-15T13:39:01Z</time>
      </trkpt>
      <trkpt lat="46.18183" lon="6.58987">
        <ele>1788</ele>
        <time>2021-12-15T13:39:10Z</time>
      </trkpt>
      <trkpt lat="46.18172" lon="6.58995">
        <ele>1792</ele>
        <time>2021-12-15T13:39:25Z</time>
      </trkpt>
      <trkpt lat="46.18171" lon="6.58984">
        <ele>1794</ele>
        <time>2021-12-15T13:39:40Z</time>
      </trkpt>
      <trkpt lat="46.18172" lon="6.58981">
        <ele>1797</ele>
        <time>2021-12-15T13:39:43Z</time>
      </trkpt>
      <trkpt lat="46.18166" lon="6.58986">
        <ele>1799</ele>
        <time>2021-12-15T13:39:55Z</time>
      </trkpt>
      <trkpt lat="46.18164" lon="6.58993">
        <ele>1800</ele>
        <time>2021-12-15T13:40:00Z</time>
      </trkpt>
      <trkpt lat="46.18161" lon="6.58999">
        <ele>1800</ele>
        <time>2021-12-15T13:40:06Z</time>
      </trkpt>
      <trkpt lat="46.18158" lon="6.59">
        <ele>1800</ele>
        <time>2021-12-15T13:40:12Z</time>
      </trkpt>
      <trkpt lat="46.18158" lon="6.58995">
        <ele>1802</ele>
        <time>2021-12-15T13:40:18Z</time>
      </trkpt>
      <trkpt lat="46.18155" lon="6.58987">
        <ele>1803</ele>
        <time>2021-12-15T13:40:25Z</time>
      </trkpt>
      <trkpt lat="46.18156" lon="6.58983">
        <ele>1803</ele>
        <time>2021-12-15T13:40:32Z</time>
      </trkpt>
      <trkpt lat="46.18151" lon="6.58988">
        <ele>1806</ele>
        <time>2021-12-15T13:40:44Z</time>
      </trkpt>
      <trkpt lat="46.18148" lon="6.58993">
        <ele>1808</ele>
        <time>2021-12-15T13:40:49Z</time>
      </trkpt>
      <trkpt lat="46.18144" lon="6.58996">
        <ele>1807</ele>
        <time>2021-12-15T13:40:56Z</time>
      </trkpt>
      <trkpt lat="46.18142" lon="6.58982">
        <ele>1806</ele>
        <time>2021-12-15T13:41:12Z</time>
      </trkpt>
      <trkpt lat="46.18139" lon="6.58989">
        <ele>1812</ele>
        <time>2021-12-15T13:41:20Z</time>
      </trkpt>
      <trkpt lat="46.18138" lon="6.58993">
        <ele>1812</ele>
        <time>2021-12-15T13:41:25Z</time>
      </trkpt>
      <trkpt lat="46.18134" lon="6.58984">
        <ele>1815</ele>
        <time>2021-12-15T13:41:39Z</time>
      </trkpt>
      <trkpt lat="46.18131" lon="6.58993">
        <ele>1818</ele>
        <time>2021-12-15T13:41:50Z</time>
      </trkpt>
      <trkpt lat="46.18128" lon="6.58983">
        <ele>1820</ele>
        <time>2021-12-15T13:42:03Z</time>
      </trkpt>
      <trkpt lat="46.18122" lon="6.58986">
        <ele>1820</ele>
        <time>2021-12-15T13:42:13Z</time>
      </trkpt>
      <trkpt lat="46.18118" lon="6.58986">
        <ele>1821</ele>
        <time>2021-12-15T13:42:19Z</time>
      </trkpt>
      <trkpt lat="46.18117" lon="6.5899">
        <ele>1825</ele>
        <time>2021-12-15T13:42:25Z</time>
      </trkpt>
      <trkpt lat="46.18108" lon="6.58988">
        <ele>1830</ele>
        <time>2021-12-15T13:42:39Z</time>
      </trkpt>
      <trkpt lat="46.18106" lon="6.58991">
        <ele>1828</ele>
        <time>2021-12-15T13:48:27Z</time>
      </trkpt>
      <trkpt lat="46.18103" lon="6.58988">
        <ele>1830</ele>
        <time>2021-12-15T13:49:07Z</time>
      </trkpt>
      <trkpt lat="46.18103" lon="6.58983">
        <ele>1827.2</ele>
        <time>2021-12-15T13:49:44Z</time>
      </trkpt>
      <trkpt lat="46.18101" lon="6.58986">
        <ele>1828</ele>
        <time>2021-12-15T13:50:04Z</time>
      </trkpt>
      <trkpt lat="46.18087" lon="6.58983">
        <ele>1827.8</ele>
        <time>2021-12-15T13:50:14Z</time>
      </trkpt>
      <trkpt lat="46.18078" lon="6.58978">
        <ele>1825</ele>
        <time>2021-12-15T13:50:26Z</time>
      </trkpt>
      <trkpt lat="46.1807" lon="6.58977">
        <ele>1827</ele>
        <time>2021-12-15T13:50:31Z</time>
      </trkpt>
      <trkpt lat="46.18052" lon="6.58968">
        <ele>1826</ele>
        <time>2021-12-15T13:50:39Z</time>
      </trkpt>
      <trkpt lat="46.18042" lon="6.58964">
        <ele>1825.1</ele>
        <time>2021-12-15T13:50:43Z</time>
      </trkpt>
      <trkpt lat="46.18025" lon="6.5896">
        <ele>1826</ele>
        <time>2021-12-15T13:50:50Z</time>
      </trkpt>
      <trkpt lat="46.18009" lon="6.58952">
        <ele>1828</ele>
        <time>2021-12-15T13:51:06Z</time>
      </trkpt>
      <trkpt lat="46.17997" lon="6.58951">
        <ele>1824</ele>
        <time>2021-12-15T13:51:11Z</time>
      </trkpt>
      <trkpt lat="46.17994" lon="6.58948">
        <ele>1824</ele>
        <time>2021-12-15T13:51:13Z</time>
      </trkpt>
      <trkpt lat="46.17994" lon="6.58939">
        <ele>1820</ele>
        <time>2021-12-15T13:51:28Z</time>
      </trkpt>
      <trkpt lat="46.17991" lon="6.58926">
        <ele>1824</ele>
        <time>2021-12-15T13:51:39Z</time>
      </trkpt>
      <trkpt lat="46.17984" lon="6.58916">
        <ele>1821</ele>
        <time>2021-12-15T13:51:46Z</time>
      </trkpt>
      <trkpt lat="46.17977" lon="6.58914">
        <ele>1824</ele>
        <time>2021-12-15T13:51:48Z</time>
      </trkpt>
      <trkpt lat="46.1794" lon="6.58914">
        <ele>1820.4</ele>
        <time>2021-12-15T13:51:55Z</time>
      </trkpt>
      <trkpt lat="46.17927" lon="6.58916">
        <ele>1814</ele>
        <time>2021-12-15T13:51:59Z</time>
      </trkpt>
      <trkpt lat="46.17922" lon="6.58915">
        <ele>1814.2</ele>
        <time>2021-12-15T13:52:01Z</time>
      </trkpt>
      <trkpt lat="46.17909" lon="6.5892">
        <ele>1812</ele>
        <time>2021-12-15T13:52:03Z</time>
      </trkpt>
      <trkpt lat="46.17903" lon="6.58921">
        <ele>1812.1</ele>
        <time>2021-12-15T13:52:04Z</time>
      </trkpt>
      <trkpt lat="46.17897" lon="6.58928">
        <ele>1811</ele>
        <time>2021-12-15T13:52:07Z</time>
      </trkpt>
      <trkpt lat="46.17892" lon="6.58927">
        <ele>1809</ele>
        <time>2021-12-15T13:52:09Z</time>
      </trkpt>
      <trkpt lat="46.17888" lon="6.58929">
        <ele>1809.9</ele>
        <time>2021-12-15T13:52:10Z</time>
      </trkpt>
      <trkpt lat="46.17882" lon="6.58934">
        <ele>1810</ele>
        <time>2021-12-15T13:52:30Z</time>
      </trkpt>
      <trkpt lat="46.1787" lon="6.58937">
        <ele>1812.2</ele>
        <time>2021-12-15T13:52:34Z</time>
      </trkpt>
      <trkpt lat="46.17859" lon="6.58947">
        <ele>1810</ele>
        <time>2021-12-15T13:52:39Z</time>
      </trkpt>
      <trkpt lat="46.1785" lon="6.58952">
        <ele>1807.3</ele>
        <time>2021-12-15T13:52:43Z</time>
      </trkpt>
      <trkpt lat="46.17843" lon="6.58958">
        <ele>1807.4</ele>
        <time>2021-12-15T13:52:45Z</time>
      </trkpt>
      <trkpt lat="46.17839" lon="6.5896">
        <ele>1807.2</ele>
        <time>2021-12-15T13:52:46Z</time>
      </trkpt>
      <trkpt lat="46.17836" lon="6.5896">
        <ele>1804.9</ele>
        <time>2021-12-15T13:52:47Z</time>
      </trkpt>
      <trkpt lat="46.17831" lon="6.58966">
        <ele>1802.9</ele>
        <time>2021-12-15T13:52:48Z</time>
      </trkpt>
      <trkpt lat="46.17825" lon="6.58969">
        <ele>1800.5</ele>
        <time>2021-12-15T13:52:49Z</time>
      </trkpt>
      <trkpt lat="46.17821" lon="6.58973">
        <ele>1798.3</ele>
        <time>2021-12-15T13:52:50Z</time>
      </trkpt>
      <trkpt lat="46.17823" lon="6.58978">
        <ele>1794.2</ele>
        <time>2021-12-15T13:52:51Z</time>
      </trkpt>
      <trkpt lat="46.17822" lon="6.58989">
        <ele>1786.8</ele>
        <time>2021-12-15T13:52:53Z</time>
      </trkpt>
      <trkpt lat="46.17831" lon="6.58994">
        <ele>1783.8</ele>
        <time>2021-12-15T13:52:55Z</time>
      </trkpt>
      <trkpt lat="46.17836" lon="6.58998">
        <ele>1784</ele>
        <time>2021-12-15T13:52:56Z</time>
      </trkpt>
      <trkpt lat="46.17835" lon="6.59006">
        <ele>1781.4</ele>
        <time>2021-12-15T13:52:58Z</time>
      </trkpt>
      <trkpt lat="46.17806" lon="6.59029">
        <ele>1774.9</ele>
        <time>2021-12-15T13:53:01Z</time>
      </trkpt>
      <trkpt lat="46.17797" lon="6.59042">
        <ele>1769.9</ele>
        <time>2021-12-15T13:53:03Z</time>
      </trkpt>
      <trkpt lat="46.17787" lon="6.59055">
        <ele>1770.4</ele>
        <time>2021-12-15T13:53:05Z</time>
      </trkpt>
      <trkpt lat="46.17773" lon="6.59056">
        <ele>1767.7</ele>
        <time>2021-12-15T13:53:08Z</time>
      </trkpt>
      <trkpt lat="46.17769" lon="6.59061">
        <ele>1767.3</ele>
        <time>2021-12-15T13:53:09Z</time>
      </trkpt>
      <trkpt lat="46.17759" lon="6.59065">
        <ele>1764.6</ele>
        <time>2021-12-15T13:53:11Z</time>
      </trkpt>
      <trkpt lat="46.17751" lon="6.59073">
        <ele>1762</ele>
        <time>2021-12-15T13:53:13Z</time>
      </trkpt>
      <trkpt lat="46.17747" lon="6.59082">
        <ele>1762.3</ele>
        <time>2021-12-15T13:53:14Z</time>
      </trkpt>
      <trkpt lat="46.17749" lon="6.59086">
        <ele>1755</ele>
        <time>2021-12-15T13:53:16Z</time>
      </trkpt>
      <trkpt lat="46.1775" lon="6.59098">
        <ele>1755.6</ele>
        <time>2021-12-15T13:53:17Z</time>
      </trkpt>
      <trkpt lat="46.17756" lon="6.59108">
        <ele>1751.6</ele>
        <time>2021-12-15T13:53:18Z</time>
      </trkpt>
      <trkpt lat="46.17765" lon="6.59131">
        <ele>1743.3</ele>
        <time>2021-12-15T13:53:20Z</time>
      </trkpt>
      <trkpt lat="46.17771" lon="6.59141">
        <ele>1740</ele>
        <time>2021-12-15T13:53:21Z</time>
      </trkpt>
      <trkpt lat="46.17777" lon="6.59162">
        <ele>1733.8</ele>
        <time>2021-12-15T13:53:23Z</time>
      </trkpt>
      <trkpt lat="46.17775" lon="6.59172">
        <ele>1731.3</ele>
        <time>2021-12-15T13:53:24Z</time>
      </trkpt>
      <trkpt lat="46.17776" lon="6.59186">
        <ele>1731.2</ele>
        <time>2021-12-15T13:53:25Z</time>
      </trkpt>
      <trkpt lat="46.17779" lon="6.59197">
        <ele>1732.5</ele>
        <time>2021-12-15T13:53:26Z</time>
      </trkpt>
      <trkpt lat="46.17782" lon="6.59203">
        <ele>1731.4</ele>
        <time>2021-12-15T13:53:27Z</time>
      </trkpt>
      <trkpt lat="46.17782" lon="6.59209">
        <ele>1731.4</ele>
        <time>2021-12-15T13:53:28Z</time>
      </trkpt>
      <trkpt lat="46.1778" lon="6.59231">
        <ele>1728</ele>
        <time>2021-12-15T13:53:34Z</time>
      </trkpt>
      <trkpt lat="46.1778" lon="6.59241">
        <ele>1727.6</ele>
        <time>2021-12-15T13:53:35Z</time>
      </trkpt>
      <trkpt lat="46.17779" lon="6.59263">
        <ele>1723.6</ele>
        <time>2021-12-15T13:53:38Z</time>
      </trkpt>
      <trkpt lat="46.17779" lon="6.59274">
        <ele>1724</ele>
        <time>2021-12-15T13:53:41Z</time>
      </trkpt>
      <trkpt lat="46.17776" lon="6.59282">
        <ele>1724</ele>
        <time>2021-12-15T13:53:44Z</time>
      </trkpt>
      <trkpt lat="46.17771" lon="6.59282">
        <ele>1722</ele>
        <time>2021-12-15T13:53:47Z</time>
      </trkpt>
      <trkpt lat="46.1775" lon="6.59289">
        <ele>1719</ele>
        <time>2021-12-15T13:53:51Z</time>
      </trkpt>
      <trkpt lat="46.17746" lon="6.59297">
        <ele>1717.5</ele>
        <time>2021-12-15T13:53:52Z</time>
      </trkpt>
      <trkpt lat="46.17751" lon="6.59314">
        <ele>1712</ele>
        <time>2021-12-15T13:53:55Z</time>
      </trkpt>
      <trkpt lat="46.17756" lon="6.59314">
        <ele>1710.3</ele>
        <time>2021-12-15T13:53:56Z</time>
      </trkpt>
      <trkpt lat="46.1776" lon="6.59322">
        <ele>1709.2</ele>
        <time>2021-12-15T13:53:57Z</time>
      </trkpt>
      <trkpt lat="46.1776" lon="6.59327">
        <ele>1708.5</ele>
        <time>2021-12-15T13:53:58Z</time>
      </trkpt>
      <trkpt lat="46.17753" lon="6.59349">
        <ele>1703.1</ele>
        <time>2021-12-15T13:54:02Z</time>
      </trkpt>
      <trkpt lat="46.17755" lon="6.59355">
        <ele>1697.1</ele>
        <time>2021-12-15T13:54:03Z</time>
      </trkpt>
      <trkpt lat="46.17755" lon="6.59364">
        <ele>1693.2</ele>
        <time>2021-12-15T13:54:04Z</time>
      </trkpt>
      <trkpt lat="46.17751" lon="6.59377">
        <ele>1693.8</ele>
        <time>2021-12-15T13:54:05Z</time>
      </trkpt>
      <trkpt lat="46.17734" lon="6.59402">
        <ele>1695</ele>
        <time>2021-12-15T13:54:09Z</time>
      </trkpt>
      <trkpt lat="46.1773" lon="6.59404">
        <ele>1695.8</ele>
        <time>2021-12-15T13:54:11Z</time>
      </trkpt>
      <trkpt lat="46.17725" lon="6.59404">
        <ele>1695.4</ele>
        <time>2021-12-15T13:54:13Z</time>
      </trkpt>
      <trkpt lat="46.17705" lon="6.59395">
        <ele>1681.4</ele>
        <time>2021-12-15T13:54:22Z</time>
      </trkpt>
      <trkpt lat="46.17683" lon="6.59392">
        <ele>1678.1</ele>
        <time>2021-12-15T13:54:25Z</time>
      </trkpt>
      <trkpt lat="46.17677" lon="6.59393">
        <ele>1680</ele>
        <time>2021-12-15T13:54:26Z</time>
      </trkpt>
      <trkpt lat="46.17669" lon="6.59398">
        <ele>1678.6</ele>
        <time>2021-12-15T13:54:28Z</time>
      </trkpt>
      <trkpt lat="46.17654" lon="6.59408">
        <ele>1677</ele>
        <time>2021-12-15T13:54:33Z</time>
      </trkpt>
      <trkpt lat="46.1765" lon="6.59408">
        <ele>1675.9</ele>
        <time>2021-12-15T13:54:35Z</time>
      </trkpt>
      <trkpt lat="46.17647" lon="6.59407">
        <ele>1676.1</ele>
        <time>2021-12-15T13:54:36Z</time>
      </trkpt>
      <trkpt lat="46.17644" lon="6.59404">
        <ele>1675.3</ele>
        <time>2021-12-15T13:54:37Z</time>
      </trkpt>
      <trkpt lat="46.17639" lon="6.59395">
        <ele>1673.4</ele>
        <time>2021-12-15T13:54:40Z</time>
      </trkpt>
      <trkpt lat="46.17627" lon="6.59391">
        <ele>1672.8</ele>
        <time>2021-12-15T13:54:42Z</time>
      </trkpt>
      <trkpt lat="46.17621" lon="6.59391">
        <ele>1668.2</ele>
        <time>2021-12-15T13:54:43Z</time>
      </trkpt>
      <trkpt lat="46.17608" lon="6.59398">
        <ele>1667.5</ele>
        <time>2021-12-15T13:54:45Z</time>
      </trkpt>
      <trkpt lat="46.176" lon="6.59407">
        <ele>1666.7</ele>
        <time>2021-12-15T13:54:47Z</time>
      </trkpt>
      <trkpt lat="46.17599" lon="6.59414">
        <ele>1664.7</ele>
        <time>2021-12-15T13:54:48Z</time>
      </trkpt>
      <trkpt lat="46.17602" lon="6.59423">
        <ele>1662.5</ele>
        <time>2021-12-15T13:54:49Z</time>
      </trkpt>
      <trkpt lat="46.17603" lon="6.59434">
        <ele>1658.8</ele>
        <time>2021-12-15T13:54:50Z</time>
      </trkpt>
      <trkpt lat="46.17608" lon="6.59441">
        <ele>1655.1</ele>
        <time>2021-12-15T13:54:51Z</time>
      </trkpt>
      <trkpt lat="46.17609" lon="6.5945">
        <ele>1651.5</ele>
        <time>2021-12-15T13:54:52Z</time>
      </trkpt>
      <trkpt lat="46.17614" lon="6.59457">
        <ele>1643</ele>
        <time>2021-12-15T13:54:53Z</time>
      </trkpt>
      <trkpt lat="46.17615" lon="6.59466">
        <ele>1639.9</ele>
        <time>2021-12-15T13:54:54Z</time>
      </trkpt>
      <trkpt lat="46.17624" lon="6.59485">
        <ele>1632.6</ele>
        <time>2021-12-15T13:54:56Z</time>
      </trkpt>
      <trkpt lat="46.17623" lon="6.59491">
        <ele>1629.7</ele>
        <time>2021-12-15T13:54:57Z</time>
      </trkpt>
      <trkpt lat="46.17625" lon="6.59497">
        <ele>1626</ele>
        <time>2021-12-15T13:54:58Z</time>
      </trkpt>
      <trkpt lat="46.17625" lon="6.59509">
        <ele>1623.2</ele>
        <time>2021-12-15T13:54:59Z</time>
      </trkpt>
      <trkpt lat="46.17627" lon="6.59514">
        <ele>1618.6</ele>
        <time>2021-12-15T13:55:00Z</time>
      </trkpt>
      <trkpt lat="46.17629" lon="6.59539">
        <ele>1616.9</ele>
        <time>2021-12-15T13:55:02Z</time>
      </trkpt>
      <trkpt lat="46.17618" lon="6.59555">
        <ele>1615.2</ele>
        <time>2021-12-15T13:55:04Z</time>
      </trkpt>
      <trkpt lat="46.17612" lon="6.5956">
        <ele>1614.5</ele>
        <time>2021-12-15T13:55:05Z</time>
      </trkpt>
      <trkpt lat="46.17605" lon="6.59573">
        <ele>1621</ele>
        <time>2021-12-15T13:55:06Z</time>
      </trkpt>
      <trkpt lat="46.17601" lon="6.59575">
        <ele>1619.9</ele>
        <time>2021-12-15T13:55:07Z</time>
      </trkpt>
      <trkpt lat="46.17596" lon="6.59581">
        <ele>1619.6</ele>
        <time>2021-12-15T13:55:08Z</time>
      </trkpt>
      <trkpt lat="46.17591" lon="6.59583">
        <ele>1618.1</ele>
        <time>2021-12-15T13:55:09Z</time>
      </trkpt>
      <trkpt lat="46.17582" lon="6.59594">
        <ele>1614.8</ele>
        <time>2021-12-15T13:55:11Z</time>
      </trkpt>
      <trkpt lat="46.17565" lon="6.59616">
        <ele>1609</ele>
        <time>2021-12-15T13:55:14Z</time>
      </trkpt>
      <trkpt lat="46.17554" lon="6.59636">
        <ele>1612.5</ele>
        <time>2021-12-15T13:55:16Z</time>
      </trkpt>
      <trkpt lat="46.17544" lon="6.59641">
        <ele>1613</ele>
        <time>2021-12-15T13:55:18Z</time>
      </trkpt>
      <trkpt lat="46.17539" lon="6.59641">
        <ele>1612</ele>
        <time>2021-12-15T13:55:20Z</time>
      </trkpt>
      <trkpt lat="46.1752" lon="6.59639">
        <ele>1607.6</ele>
        <time>2021-12-15T13:55:26Z</time>
      </trkpt>
      <trkpt lat="46.17507" lon="6.59639">
        <ele>1608</ele>
        <time>2021-12-15T13:55:29Z</time>
      </trkpt>
      <trkpt lat="46.17503" lon="6.59638">
        <ele>1608.7</ele>
        <time>2021-12-15T13:55:30Z</time>
      </trkpt>
      <trkpt lat="46.17499" lon="6.59635">
        <ele>1608</ele>
        <time>2021-12-15T13:55:34Z</time>
      </trkpt>
      <trkpt lat="46.17497" lon="6.59622">
        <ele>1605</ele>
        <time>2021-12-15T13:55:55Z</time>
      </trkpt>
      <trkpt lat="46.17493" lon="6.59616">
        <ele>1608</ele>
        <time>2021-12-15T13:56:02Z</time>
      </trkpt>
      <trkpt lat="46.17484" lon="6.59606">
        <ele>1604.5</ele>
        <time>2021-12-15T13:56:08Z</time>
      </trkpt>
      <trkpt lat="46.1748" lon="6.59605">
        <ele>1602.7</ele>
        <time>2021-12-15T13:56:09Z</time>
      </trkpt>
      <trkpt lat="46.17476" lon="6.59607">
        <ele>1599.8</ele>
        <time>2021-12-15T13:56:10Z</time>
      </trkpt>
      <trkpt lat="46.17463" lon="6.596">
        <ele>1595.6</ele>
        <time>2021-12-15T13:56:12Z</time>
      </trkpt>
      <trkpt lat="46.17449" lon="6.59597">
        <ele>1593.6</ele>
        <time>2021-12-15T13:56:14Z</time>
      </trkpt>
      <trkpt lat="46.1744" lon="6.59596">
        <ele>1590</ele>
        <time>2021-12-15T13:56:19Z</time>
      </trkpt>
      <trkpt lat="46.17432" lon="6.596">
        <ele>1590.7</ele>
        <time>2021-12-15T13:56:25Z</time>
      </trkpt>
      <trkpt lat="46.17426" lon="6.59606">
        <ele>1589.8</ele>
        <time>2021-12-15T13:56:26Z</time>
      </trkpt>
      <trkpt lat="46.17425" lon="6.59611">
        <ele>1586.5</ele>
        <time>2021-12-15T13:56:27Z</time>
      </trkpt>
      <trkpt lat="46.17426" lon="6.59618">
        <ele>1582.2</ele>
        <time>2021-12-15T13:56:28Z</time>
      </trkpt>
      <trkpt lat="46.17422" lon="6.59623">
        <ele>1581.3</ele>
        <time>2021-12-15T13:56:29Z</time>
      </trkpt>
      <trkpt lat="46.17429" lon="6.59644">
        <ele>1562.1</ele>
        <time>2021-12-15T13:56:32Z</time>
      </trkpt>
      <trkpt lat="46.17431" lon="6.59648">
        <ele>1554.2</ele>
        <time>2021-12-15T13:56:33Z</time>
      </trkpt>
      <trkpt lat="46.17444" lon="6.59698">
        <ele>1544.8</ele>
        <time>2021-12-15T13:56:37Z</time>
      </trkpt>
      <trkpt lat="46.1745" lon="6.59708">
        <ele>1545.3</ele>
        <time>2021-12-15T13:56:38Z</time>
      </trkpt>
      <trkpt lat="46.17461" lon="6.59723">
        <ele>1547.5</ele>
        <time>2021-12-15T13:56:40Z</time>
      </trkpt>
      <trkpt lat="46.17475" lon="6.59738">
        <ele>1548.2</ele>
        <time>2021-12-15T13:56:43Z</time>
      </trkpt>
      <trkpt lat="46.17479" lon="6.59744">
        <ele>1548.1</ele>
        <time>2021-12-15T13:56:44Z</time>
      </trkpt>
      <trkpt lat="46.17481" lon="6.59757">
        <ele>1545.8</ele>
        <time>2021-12-15T13:56:46Z</time>
      </trkpt>
      <trkpt lat="46.17484" lon="6.59765">
        <ele>1543.5</ele>
        <time>2021-12-15T13:56:47Z</time>
      </trkpt>
      <trkpt lat="46.17488" lon="6.59771">
        <ele>1539.1</ele>
        <time>2021-12-15T13:56:48Z</time>
      </trkpt>
      <trkpt lat="46.17493" lon="6.59785">
        <ele>1531.1</ele>
        <time>2021-12-15T13:56:50Z</time>
      </trkpt>
      <trkpt lat="46.17495" lon="6.59801">
        <ele>1534.1</ele>
        <time>2021-12-15T13:56:51Z</time>
      </trkpt>
      <trkpt lat="46.17494" lon="6.59819">
        <ele>1537.1</ele>
        <time>2021-12-15T13:56:53Z</time>
      </trkpt>
      <trkpt lat="46.17492" lon="6.59826">
        <ele>1538</ele>
        <time>2021-12-15T13:56:56Z</time>
      </trkpt>
      <trkpt lat="46.17487" lon="6.59829">
        <ele>1536.3</ele>
        <time>2021-12-15T13:56:58Z</time>
      </trkpt>
      <trkpt lat="46.17481" lon="6.5983">
        <ele>1530.1</ele>
        <time>2021-12-15T13:56:59Z</time>
      </trkpt>
      <trkpt lat="46.17464" lon="6.59839">
        <ele>1523.5</ele>
        <time>2021-12-15T13:57:01Z</time>
      </trkpt>
      <trkpt lat="46.17458" lon="6.59849">
        <ele>1523.6</ele>
        <time>2021-12-15T13:57:02Z</time>
      </trkpt>
      <trkpt lat="46.17457" lon="6.59862">
        <ele>1522.7</ele>
        <time>2021-12-15T13:57:03Z</time>
      </trkpt>
      <trkpt lat="46.17458" lon="6.59874">
        <ele>1518.8</ele>
        <time>2021-12-15T13:57:04Z</time>
      </trkpt>
      <trkpt lat="46.17462" lon="6.59881">
        <ele>1515.3</ele>
        <time>2021-12-15T13:57:05Z</time>
      </trkpt>
      <trkpt lat="46.17469" lon="6.59904">
        <ele>1508</ele>
        <time>2021-12-15T13:57:07Z</time>
      </trkpt>
      <trkpt lat="46.17466" lon="6.59917">
        <ele>1508.3</ele>
        <time>2021-12-15T13:57:08Z</time>
      </trkpt>
      <trkpt lat="46.17462" lon="6.59928">
        <ele>1505.8</ele>
        <time>2021-12-15T13:57:09Z</time>
      </trkpt>
      <trkpt lat="46.1746" lon="6.59943">
        <ele>1507.8</ele>
        <time>2021-12-15T13:57:10Z</time>
      </trkpt>
      <trkpt lat="46.1746" lon="6.59964">
        <ele>1501.4</ele>
        <time>2021-12-15T13:57:11Z</time>
      </trkpt>
      <trkpt lat="46.17463" lon="6.59971">
        <ele>1497.5</ele>
        <time>2021-12-15T13:57:12Z</time>
      </trkpt>
      <trkpt lat="46.17468" lon="6.60001">
        <ele>1496.1</ele>
        <time>2021-12-15T13:57:15Z</time>
      </trkpt>
      <trkpt lat="46.1747" lon="6.60032">
        <ele>1496.9</ele>
        <time>2021-12-15T13:57:18Z</time>
      </trkpt>
      <trkpt lat="46.17471" lon="6.60042">
        <ele>1497.8</ele>
        <time>2021-12-15T13:57:19Z</time>
      </trkpt>
      <trkpt lat="46.17471" lon="6.60056">
        <ele>1496</ele>
        <time>2021-12-15T13:57:21Z</time>
      </trkpt>
      <trkpt lat="46.17477" lon="6.60121">
        <ele>1492</ele>
        <time>2021-12-15T13:57:29Z</time>
      </trkpt>
      <trkpt lat="46.17475" lon="6.60136">
        <ele>1491.4</ele>
        <time>2021-12-15T13:57:33Z</time>
      </trkpt>
      <trkpt lat="46.17479" lon="6.60217">
        <ele>1480.6</ele>
        <time>2021-12-15T13:57:43Z</time>
      </trkpt>
      <trkpt lat="46.17478" lon="6.60246">
        <ele>1476</ele>
        <time>2021-12-15T13:57:47Z</time>
      </trkpt>
      <trkpt lat="46.17479" lon="6.6026">
        <ele>1466</ele>
        <time>2021-12-15T13:57:50Z</time>
      </trkpt>
      <trkpt lat="46.17487" lon="6.60291">
        <ele>1460.3</ele>
        <time>2021-12-15T13:57:52Z</time>
      </trkpt>
      <trkpt lat="46.17486" lon="6.60317">
        <ele>1456.2</ele>
        <time>2021-12-15T13:57:54Z</time>
      </trkpt>
      <trkpt lat="46.17484" lon="6.60347">
        <ele>1458.6</ele>
        <time>2021-12-15T13:57:57Z</time>
      </trkpt>
      <trkpt lat="46.17485" lon="6.60356">
        <ele>1456.7</ele>
        <time>2021-12-15T13:57:58Z</time>
      </trkpt>
      <trkpt lat="46.17485" lon="6.60372">
        <ele>1456</ele>
        <time>2021-12-15T13:58:00Z</time>
      </trkpt>
      <trkpt lat="46.17483" lon="6.60387">
        <ele>1453</ele>
        <time>2021-12-15T13:58:02Z</time>
      </trkpt>
      <trkpt lat="46.17483" lon="6.60398">
        <ele>1455</ele>
        <time>2021-12-15T13:58:03Z</time>
      </trkpt>
      <trkpt lat="46.17486" lon="6.6041">
        <ele>1451.2</ele>
        <time>2021-12-15T13:58:05Z</time>
      </trkpt>
      <trkpt lat="46.17487" lon="6.60461">
        <ele>1446.5</ele>
        <time>2021-12-15T13:58:14Z</time>
      </trkpt>
      <trkpt lat="46.17484" lon="6.6048">
        <ele>1445.6</ele>
        <time>2021-12-15T13:58:17Z</time>
      </trkpt>
      <trkpt lat="46.17479" lon="6.60497">
        <ele>1443.2</ele>
        <time>2021-12-15T13:58:20Z</time>
      </trkpt>
      <trkpt lat="46.17472" lon="6.6055">
        <ele>1438.8</ele>
        <time>2021-12-15T13:58:28Z</time>
      </trkpt>
      <trkpt lat="46.17471" lon="6.60569">
        <ele>1438.4</ele>
        <time>2021-12-15T13:58:30Z</time>
      </trkpt>
      <trkpt lat="46.17471" lon="6.60608">
        <ele>1433.6</ele>
        <time>2021-12-15T13:58:34Z</time>
      </trkpt>
      <trkpt lat="46.17467" lon="6.60635">
        <ele>1430.2</ele>
        <time>2021-12-15T13:58:38Z</time>
      </trkpt>
      <trkpt lat="46.17469" lon="6.60652">
        <ele>1429.3</ele>
        <time>2021-12-15T13:58:40Z</time>
      </trkpt>
      <trkpt lat="46.17474" lon="6.60663">
        <ele>1424.7</ele>
        <time>2021-12-15T13:58:42Z</time>
      </trkpt>
      <trkpt lat="46.17478" lon="6.60669">
        <ele>1423.7</ele>
        <time>2021-12-15T13:58:43Z</time>
      </trkpt>
      <trkpt lat="46.17484" lon="6.60674">
        <ele>1417</ele>
        <time>2021-12-15T13:58:44Z</time>
      </trkpt>
      <trkpt lat="46.17488" lon="6.60679">
        <ele>1414.3</ele>
        <time>2021-12-15T13:58:46Z</time>
      </trkpt>
      <trkpt lat="46.17488" lon="6.60688">
        <ele>1412.6</ele>
        <time>2021-12-15T13:58:47Z</time>
      </trkpt>
      <trkpt lat="46.1749" lon="6.60695">
        <ele>1412.9</ele>
        <time>2021-12-15T13:58:48Z</time>
      </trkpt>
      <trkpt lat="46.17489" lon="6.60711">
        <ele>1408.9</ele>
        <time>2021-12-15T13:58:50Z</time>
      </trkpt>
      <trkpt lat="46.1748" lon="6.60743">
        <ele>1401.5</ele>
        <time>2021-12-15T13:58:54Z</time>
      </trkpt>
      <trkpt lat="46.17477" lon="6.60779">
        <ele>1388.4</ele>
        <time>2021-12-15T13:58:59Z</time>
      </trkpt>
      <trkpt lat="46.17475" lon="6.60781">
        <ele>1384</ele>
        <time>2021-12-15T13:59:00Z</time>
      </trkpt>
      <trkpt lat="46.17472" lon="6.6079">
        <ele>1383.1</ele>
        <time>2021-12-15T13:59:01Z</time>
      </trkpt>
      <trkpt lat="46.17466" lon="6.60801">
        <ele>1384.8</ele>
        <time>2021-12-15T13:59:03Z</time>
      </trkpt>
      <trkpt lat="46.17462" lon="6.60819">
        <ele>1377.2</ele>
        <time>2021-12-15T13:59:05Z</time>
      </trkpt>
      <trkpt lat="46.1745" lon="6.60841">
        <ele>1372.2</ele>
        <time>2021-12-15T13:59:07Z</time>
      </trkpt>
      <trkpt lat="46.17443" lon="6.60852">
        <ele>1371.1</ele>
        <time>2021-12-15T13:59:09Z</time>
      </trkpt>
      <trkpt lat="46.17441" lon="6.6086">
        <ele>1374.4</ele>
        <time>2021-12-15T13:59:10Z</time>
      </trkpt>
      <trkpt lat="46.1744" lon="6.60871">
        <ele>1376.1</ele>
        <time>2021-12-15T13:59:11Z</time>
      </trkpt>
      <trkpt lat="46.17436" lon="6.60885">
        <ele>1367.6</ele>
        <time>2021-12-15T13:59:13Z</time>
      </trkpt>
      <trkpt lat="46.17432" lon="6.60893">
        <ele>1365.8</ele>
        <time>2021-12-15T13:59:14Z</time>
      </trkpt>
      <trkpt lat="46.17428" lon="6.60906">
        <ele>1365.8</ele>
        <time>2021-12-15T13:59:15Z</time>
      </trkpt>
      <trkpt lat="46.17419" lon="6.60942">
        <ele>1363.8</ele>
        <time>2021-12-15T13:59:17Z</time>
      </trkpt>
      <trkpt lat="46.17407" lon="6.60971">
        <ele>1361.1</ele>
        <time>2021-12-15T13:59:20Z</time>
      </trkpt>
      <trkpt lat="46.17397" lon="6.61007">
        <ele>1365.8</ele>
        <time>2021-12-15T13:59:23Z</time>
      </trkpt>
      <trkpt lat="46.17391" lon="6.6105">
        <ele>1369.2</ele>
        <time>2021-12-15T13:59:27Z</time>
      </trkpt>
      <trkpt lat="46.17385" lon="6.61073">
        <ele>1365.4</ele>
        <time>2021-12-15T13:59:30Z</time>
      </trkpt>
      <trkpt lat="46.17384" lon="6.61086">
        <ele>1366.6</ele>
        <time>2021-12-15T13:59:31Z</time>
      </trkpt>
      <trkpt lat="46.17385" lon="6.61102">
        <ele>1358.8</ele>
        <time>2021-12-15T13:59:33Z</time>
      </trkpt>
      <trkpt lat="46.17383" lon="6.61124">
        <ele>1360</ele>
        <time>2021-12-15T13:59:35Z</time>
      </trkpt>
      <trkpt lat="46.17381" lon="6.61134">
        <ele>1356.8</ele>
        <time>2021-12-15T13:59:36Z</time>
      </trkpt>
      <trkpt lat="46.17376" lon="6.61137">
        <ele>1357.3</ele>
        <time>2021-12-15T13:59:37Z</time>
      </trkpt>
      <trkpt lat="46.17371" lon="6.61154">
        <ele>1357.9</ele>
        <time>2021-12-15T13:59:39Z</time>
      </trkpt>
      <trkpt lat="46.17367" lon="6.61161">
        <ele>1362.1</ele>
        <time>2021-12-15T13:59:40Z</time>
      </trkpt>
      <trkpt lat="46.1736" lon="6.61164">
        <ele>1361.2</ele>
        <time>2021-12-15T13:59:42Z</time>
      </trkpt>
      <trkpt lat="46.17354" lon="6.61176">
        <ele>1361.7</ele>
        <time>2021-12-15T13:59:44Z</time>
      </trkpt>
      <trkpt lat="46.17349" lon="6.61183">
        <ele>1360.6</ele>
        <time>2021-12-15T13:59:46Z</time>
      </trkpt>
      <trkpt lat="46.17349" lon="6.612">
        <ele>1361</ele>
        <time>2021-12-15T13:59:49Z</time>
      </trkpt>
      <trkpt lat="46.17348" lon="6.61205">
        <ele>1359.6</ele>
        <time>2021-12-15T13:59:50Z</time>
      </trkpt>
      <trkpt lat="46.17351" lon="6.61219">
        <ele>1351.3</ele>
        <time>2021-12-15T13:59:55Z</time>
      </trkpt>
      <trkpt lat="46.17347" lon="6.61234">
        <ele>1341.1</ele>
        <time>2021-12-15T14:00:00Z</time>
      </trkpt>
      <trkpt lat="46.17347" lon="6.61239">
        <ele>1339.6</ele>
        <time>2021-12-15T14:00:01Z</time>
      </trkpt>
      <trkpt lat="46.17341" lon="6.61276">
        <ele>1356</ele>
        <time>2021-12-15T14:00:10Z</time>
      </trkpt>
      <trkpt lat="46.17334" lon="6.61291">
        <ele>1360.6</ele>
        <time>2021-12-15T14:00:19Z</time>
      </trkpt>
      <trkpt lat="46.17329" lon="6.61298">
        <ele>1359.1</ele>
        <time>2021-12-15T14:00:22Z</time>
      </trkpt>
      <trkpt lat="46.1732" lon="6.61317">
        <ele>1359.2</ele>
        <time>2021-12-15T14:00:27Z</time>
      </trkpt>
      <trkpt lat="46.17318" lon="6.61323">
        <ele>1360.7</ele>
        <time>2021-12-15T14:00:28Z</time>
      </trkpt>
      <trkpt lat="46.17303" lon="6.61343">
        <ele>1358</ele>
        <time>2021-12-15T14:00:38Z</time>
      </trkpt>
      <trkpt lat="46.17296" lon="6.61358">
        <ele>1360.2</ele>
        <time>2021-12-15T14:00:43Z</time>
      </trkpt>
      <trkpt lat="46.17293" lon="6.6136">
        <ele>1357</ele>
        <time>2021-12-15T14:00:44Z</time>
      </trkpt>
      <trkpt lat="46.17289" lon="6.61371">
        <ele>1359.4</ele>
        <time>2021-12-15T14:00:47Z</time>
      </trkpt>
      <trkpt lat="46.17288" lon="6.61374">
        <ele>1358.9</ele>
        <time>2021-12-15T14:00:48Z</time>
      </trkpt>
      <trkpt lat="46.17285" lon="6.61376">
        <ele>1356.9</ele>
        <time>2021-12-15T14:00:49Z</time>
      </trkpt>
      <trkpt lat="46.17279" lon="6.6139">
        <ele>1358.2</ele>
        <time>2021-12-15T14:00:53Z</time>
      </trkpt>
      <trkpt lat="46.17277" lon="6.61393">
        <ele>1355</ele>
        <time>2021-12-15T14:00:54Z</time>
      </trkpt>
      <trkpt lat="46.1727" lon="6.61412">
        <ele>1358.3</ele>
        <time>2021-12-15T14:00:59Z</time>
      </trkpt>
      <trkpt lat="46.17265" lon="6.6142">
        <ele>1355.9</ele>
        <time>2021-12-15T14:01:02Z</time>
      </trkpt>
      <trkpt lat="46.17257" lon="6.61441">
        <ele>1353</ele>
        <time>2021-12-15T14:01:06Z</time>
      </trkpt>
      <trkpt lat="46.17254" lon="6.61453">
        <ele>1357.2</ele>
        <time>2021-12-15T14:01:08Z</time>
      </trkpt>
      <trkpt lat="46.17251" lon="6.61459">
        <ele>1357.3</ele>
        <time>2021-12-15T14:01:09Z</time>
      </trkpt>
      <trkpt lat="46.17247" lon="6.61466">
        <ele>1355.8</ele>
        <time>2021-12-15T14:01:11Z</time>
      </trkpt>
      <trkpt lat="46.17245" lon="6.6147">
        <ele>1355.7</ele>
        <time>2021-12-15T14:01:12Z</time>
      </trkpt>
      <trkpt lat="46.17239" lon="6.61477">
        <ele>1352.8</ele>
        <time>2021-12-15T14:01:15Z</time>
      </trkpt>
      <trkpt lat="46.17231" lon="6.6149">
        <ele>1350.1</ele>
        <time>2021-12-15T14:01:18Z</time>
      </trkpt>
      <trkpt lat="46.17227" lon="6.615">
        <ele>1350.4</ele>
        <time>2021-12-15T14:01:20Z</time>
      </trkpt>
      <trkpt lat="46.17221" lon="6.61522">
        <ele>1349.2</ele>
        <time>2021-12-15T14:01:23Z</time>
      </trkpt>
      <trkpt lat="46.17212" lon="6.61534">
        <ele>1346.7</ele>
        <time>2021-12-15T14:01:24Z</time>
      </trkpt>
      <trkpt lat="46.1721" lon="6.61542">
        <ele>1345.5</ele>
        <time>2021-12-15T14:01:25Z</time>
      </trkpt>
      <trkpt lat="46.17198" lon="6.61566">
        <ele>1344.8</ele>
        <time>2021-12-15T14:01:28Z</time>
      </trkpt>
      <trkpt lat="46.1719" lon="6.61571">
        <ele>1343.3</ele>
        <time>2021-12-15T14:01:29Z</time>
      </trkpt>
      <trkpt lat="46.17168" lon="6.6158">
        <ele>1340.2</ele>
        <time>2021-12-15T14:01:32Z</time>
      </trkpt>
      <trkpt lat="46.17156" lon="6.61578">
        <ele>1336.8</ele>
        <time>2021-12-15T14:01:34Z</time>
      </trkpt>
      <trkpt lat="46.17138" lon="6.61577">
        <ele>1338.4</ele>
        <time>2021-12-15T14:01:36Z</time>
      </trkpt>
      <trkpt lat="46.1711" lon="6.61567">
        <ele>1332.4</ele>
        <time>2021-12-15T14:01:39Z</time>
      </trkpt>
      <trkpt lat="46.17102" lon="6.61562">
        <ele>1329.7</ele>
        <time>2021-12-15T14:01:40Z</time>
      </trkpt>
      <trkpt lat="46.17097" lon="6.61554">
        <ele>1329.2</ele>
        <time>2021-12-15T14:01:41Z</time>
      </trkpt>
      <trkpt lat="46.17092" lon="6.61549">
        <ele>1326.6</ele>
        <time>2021-12-15T14:01:42Z</time>
      </trkpt>
      <trkpt lat="46.17075" lon="6.61534">
        <ele>1327.8</ele>
        <time>2021-12-15T14:01:44Z</time>
      </trkpt>
      <trkpt lat="46.17069" lon="6.61527">
        <ele>1324.5</ele>
        <time>2021-12-15T14:01:45Z</time>
      </trkpt>
      <trkpt lat="46.17059" lon="6.6152">
        <ele>1325</ele>
        <time>2021-12-15T14:01:46Z</time>
      </trkpt>
      <trkpt lat="46.17049" lon="6.61518">
        <ele>1322.9</ele>
        <time>2021-12-15T14:01:47Z</time>
      </trkpt>
      <trkpt lat="46.17039" lon="6.61518">
        <ele>1322</ele>
        <time>2021-12-15T14:01:49Z</time>
      </trkpt>
      <trkpt lat="46.17026" lon="6.61507">
        <ele>1324.1</ele>
        <time>2021-12-15T14:01:51Z</time>
      </trkpt>
      <trkpt lat="46.1702" lon="6.61505">
        <ele>1326.3</ele>
        <time>2021-12-15T14:01:52Z</time>
      </trkpt>
      <trkpt lat="46.17011" lon="6.61506">
        <ele>1326.7</ele>
        <time>2021-12-15T14:01:54Z</time>
      </trkpt>
      <trkpt lat="46.17006" lon="6.61504">
        <ele>1323</ele>
        <time>2021-12-15T14:01:59Z</time>
      </trkpt>
      <trkpt lat="46.17005" lon="6.61516">
        <ele>1323.9</ele>
        <time>2021-12-15T14:02:22Z</time>
      </trkpt>
      <trkpt lat="46.17005" lon="6.61522">
        <ele>1322</ele>
        <time>2021-12-15T14:02:23Z</time>
      </trkpt>
      <trkpt lat="46.17011" lon="6.61538">
        <ele>1316.3</ele>
        <time>2021-12-15T14:02:25Z</time>
      </trkpt>
      <trkpt lat="46.17021" lon="6.61564">
        <ele>1311</ele>
        <time>2021-12-15T14:02:28Z</time>
      </trkpt>
      <trkpt lat="46.17026" lon="6.6159">
        <ele>1312.5</ele>
        <time>2021-12-15T14:02:31Z</time>
      </trkpt>
      <trkpt lat="46.17025" lon="6.61599">
        <ele>1310.5</ele>
        <time>2021-12-15T14:02:32Z</time>
      </trkpt>
      <trkpt lat="46.17021" lon="6.61602">
        <ele>1308.4</ele>
        <time>2021-12-15T14:02:33Z</time>
      </trkpt>
      <trkpt lat="46.17014" lon="6.616">
        <ele>1307</ele>
        <time>2021-12-15T14:02:34Z</time>
      </trkpt>
      <trkpt lat="46.1701" lon="6.6161">
        <ele>1303.4</ele>
        <time>2021-12-15T14:02:35Z</time>
      </trkpt>
      <trkpt lat="46.17014" lon="6.61632">
        <ele>1295.1</ele>
        <time>2021-12-15T14:02:37Z</time>
      </trkpt>
      <trkpt lat="46.17023" lon="6.61654">
        <ele>1294.6</ele>
        <time>2021-12-15T14:02:40Z</time>
      </trkpt>
      <trkpt lat="46.17016" lon="6.61652">
        <ele>1293.9</ele>
        <time>2021-12-15T14:02:41Z</time>
      </trkpt>
      <trkpt lat="46.17002" lon="6.61662">
        <ele>1285</ele>
        <time>2021-12-15T14:02:43Z</time>
      </trkpt>
      <trkpt lat="46.16995" lon="6.61681">
        <ele>1278.2</ele>
        <time>2021-12-15T14:02:45Z</time>
      </trkpt>
      <trkpt lat="46.16988" lon="6.61684">
        <ele>1276.3</ele>
        <time>2021-12-15T14:02:46Z</time>
      </trkpt>
      <trkpt lat="46.16979" lon="6.61686">
        <ele>1277</ele>
        <time>2021-12-15T14:02:47Z</time>
      </trkpt>
      <trkpt lat="46.16971" lon="6.61684">
        <ele>1276.2</ele>
        <time>2021-12-15T14:02:48Z</time>
      </trkpt>
      <trkpt lat="46.16964" lon="6.6168">
        <ele>1274.6</ele>
        <time>2021-12-15T14:02:49Z</time>
      </trkpt>
      <trkpt lat="46.16958" lon="6.61678">
        <ele>1273.4</ele>
        <time>2021-12-15T14:02:50Z</time>
      </trkpt>
      <trkpt lat="46.16948" lon="6.61674">
        <ele>1274.9</ele>
        <time>2021-12-15T14:02:51Z</time>
      </trkpt>
      <trkpt lat="46.1694" lon="6.61669">
        <ele>1274.8</ele>
        <time>2021-12-15T14:02:52Z</time>
      </trkpt>
      <trkpt lat="46.16934" lon="6.61667">
        <ele>1272.1</ele>
        <time>2021-12-15T14:02:53Z</time>
      </trkpt>
      <trkpt lat="46.16927" lon="6.61662">
        <ele>1272.9</ele>
        <time>2021-12-15T14:02:54Z</time>
      </trkpt>
      <trkpt lat="46.16911" lon="6.61658">
        <ele>1270.8</ele>
        <time>2021-12-15T14:02:56Z</time>
      </trkpt>
      <trkpt lat="46.16905" lon="6.61658">
        <ele>1269.4</ele>
        <time>2021-12-15T14:02:57Z</time>
      </trkpt>
      <trkpt lat="46.16888" lon="6.61659">
        <ele>1268.8</ele>
        <time>2021-12-15T14:02:59Z</time>
      </trkpt>
      <trkpt lat="46.1688" lon="6.61665">
        <ele>1267.4</ele>
        <time>2021-12-15T14:03:00Z</time>
      </trkpt>
      <trkpt lat="46.16862" lon="6.61668">
        <ele>1265.4</ele>
        <time>2021-12-15T14:03:02Z</time>
      </trkpt>
      <trkpt lat="46.16855" lon="6.61667">
        <ele>1262.6</ele>
        <time>2021-12-15T14:03:03Z</time>
      </trkpt>
      <trkpt lat="46.16839" lon="6.61672">
        <ele>1261.7</ele>
        <time>2021-12-15T14:03:05Z</time>
      </trkpt>
      <trkpt lat="46.16836" lon="6.61675">
        <ele>1261.4</ele>
        <time>2021-12-15T14:03:06Z</time>
      </trkpt>
      <trkpt lat="46.16819" lon="6.61679">
        <ele>1262</ele>
        <time>2021-12-15T14:03:08Z</time>
      </trkpt>
      <trkpt lat="46.16816" lon="6.61683">
        <ele>1261.4</ele>
        <time>2021-12-15T14:03:09Z</time>
      </trkpt>
      <trkpt lat="46.16757" lon="6.61686">
        <ele>1257</ele>
        <time>2021-12-15T14:03:16Z</time>
      </trkpt>
      <trkpt lat="46.16749" lon="6.61689">
        <ele>1255.5</ele>
        <time>2021-12-15T14:03:17Z</time>
      </trkpt>
      <trkpt lat="46.16727" lon="6.61687">
        <ele>1258.5</ele>
        <time>2021-12-15T14:03:19Z</time>
      </trkpt>
      <trkpt lat="46.16648" lon="6.61698">
        <ele>1254.3</ele>
        <time>2021-12-15T14:03:28Z</time>
      </trkpt>
      <trkpt lat="46.16392" lon="6.61856">
        <ele>1226.2</ele>
        <time>2021-12-15T14:04:04Z</time>
      </trkpt>
      <trkpt lat="46.16377" lon="6.61861">
        <ele>1224.6</ele>
        <time>2021-12-15T14:04:06Z</time>
      </trkpt>
      <trkpt lat="46.1637" lon="6.61864">
        <ele>1222.8</ele>
        <time>2021-12-15T14:04:07Z</time>
      </trkpt>
      <trkpt lat="46.1636" lon="6.6187">
        <ele>1222.8</ele>
        <time>2021-12-15T14:04:08Z</time>
      </trkpt>
      <trkpt lat="46.16353" lon="6.61873">
        <ele>1220</ele>
        <time>2021-12-15T14:04:09Z</time>
      </trkpt>
      <trkpt lat="46.16326" lon="6.6189">
        <ele>1219.5</ele>
        <time>2021-12-15T14:04:12Z</time>
      </trkpt>
      <trkpt lat="46.16319" lon="6.61898">
        <ele>1218.7</ele>
        <time>2021-12-15T14:04:13Z</time>
      </trkpt>
      <trkpt lat="46.16309" lon="6.61895">
        <ele>1221.1</ele>
        <time>2021-12-15T14:04:14Z</time>
      </trkpt>
      <trkpt lat="46.16289" lon="6.61904">
        <ele>1221.1</ele>
        <time>2021-12-15T14:04:16Z</time>
      </trkpt>
      <trkpt lat="46.16284" lon="6.61901">
        <ele>1217</ele>
        <time>2021-12-15T14:04:17Z</time>
      </trkpt>
      <trkpt lat="46.16277" lon="6.61902">
        <ele>1213.7</ele>
        <time>2021-12-15T14:04:18Z</time>
      </trkpt>
      <trkpt lat="46.16268" lon="6.61898">
        <ele>1211.3</ele>
        <time>2021-12-15T14:04:19Z</time>
      </trkpt>
      <trkpt lat="46.16254" lon="6.61895">
        <ele>1206.9</ele>
        <time>2021-12-15T14:04:21Z</time>
      </trkpt>
      <trkpt lat="46.16245" lon="6.61895">
        <ele>1204.3</ele>
        <time>2021-12-15T14:04:22Z</time>
      </trkpt>
      <trkpt lat="46.16234" lon="6.6189">
        <ele>1203.4</ele>
        <time>2021-12-15T14:04:23Z</time>
      </trkpt>
      <trkpt lat="46.16178" lon="6.61874">
        <ele>1201.9</ele>
        <time>2021-12-15T14:04:29Z</time>
      </trkpt>
      <trkpt lat="46.16171" lon="6.61876">
        <ele>1200.9</ele>
        <time>2021-12-15T14:04:30Z</time>
      </trkpt>
      <trkpt lat="46.16159" lon="6.61873">
        <ele>1200.6</ele>
        <time>2021-12-15T14:04:32Z</time>
      </trkpt>
      <trkpt lat="46.16145" lon="6.61874">
        <ele>1200.5</ele>
        <time>2021-12-15T14:04:34Z</time>
      </trkpt>
      <trkpt lat="46.16132" lon="6.61872">
        <ele>1200.9</ele>
        <time>2021-12-15T14:04:36Z</time>
      </trkpt>
      <trkpt lat="46.16127" lon="6.6187">
        <ele>1201.1</ele>
        <time>2021-12-15T14:04:37Z</time>
      </trkpt>
      <trkpt lat="46.16123" lon="6.61869">
        <ele>1200.9</ele>
        <time>2021-12-15T14:04:38Z</time>
      </trkpt>
      <trkpt lat="46.16105" lon="6.61871">
        <ele>1199</ele>
        <time>2021-12-15T14:04:42Z</time>
      </trkpt>
      <trkpt lat="46.16096" lon="6.61869">
        <ele>1196.9</ele>
        <time>2021-12-15T14:04:46Z</time>
      </trkpt>
      <trkpt lat="46.16085" lon="6.61869">
        <ele>1194.9</ele>
        <time>2021-12-15T14:04:48Z</time>
      </trkpt>
      <trkpt lat="46.16051" lon="6.61852">
        <ele>1182.1</ele>
        <time>2021-12-15T14:04:58Z</time>
      </trkpt>
      <trkpt lat="46.16042" lon="6.61856">
        <ele>1182.4</ele>
        <time>2021-12-15T14:04:59Z</time>
      </trkpt>
      <trkpt lat="46.16029" lon="6.61857">
        <ele>1187.6</ele>
        <time>2021-12-15T14:05:01Z</time>
      </trkpt>
      <trkpt lat="46.16017" lon="6.6186">
        <ele>1188.9</ele>
        <time>2021-12-15T14:05:03Z</time>
      </trkpt>
      <trkpt lat="46.16011" lon="6.61861">
        <ele>1190.6</ele>
        <time>2021-12-15T14:05:04Z</time>
      </trkpt>
      <trkpt lat="46.15999" lon="6.61858">
        <ele>1192.5</ele>
        <time>2021-12-15T14:05:06Z</time>
      </trkpt>
      <trkpt lat="46.15991" lon="6.61858">
        <ele>1195.4</ele>
        <time>2021-12-15T14:05:07Z</time>
      </trkpt>
      <trkpt lat="46.15984" lon="6.61855">
        <ele>1196.6</ele>
        <time>2021-12-15T14:05:08Z</time>
      </trkpt>
      <trkpt lat="46.1598" lon="6.61858">
        <ele>1198</ele>
        <time>2021-12-15T14:05:09Z</time>
      </trkpt>
      <trkpt lat="46.15973" lon="6.61858">
        <ele>1197.1</ele>
        <time>2021-12-15T14:05:11Z</time>
      </trkpt>
      <trkpt lat="46.15959" lon="6.61853">
        <ele>1199.3</ele>
        <time>2021-12-15T14:05:13Z</time>
      </trkpt>
      <trkpt lat="46.15947" lon="6.61848">
        <ele>1200.8</ele>
        <time>2021-12-15T14:05:15Z</time>
      </trkpt>
      <trkpt lat="46.15917" lon="6.6184">
        <ele>1198.7</ele>
        <time>2021-12-15T14:05:21Z</time>
      </trkpt>
      <trkpt lat="46.15914" lon="6.61835">
        <ele>1195.7</ele>
        <time>2021-12-15T14:05:22Z</time>
      </trkpt>
      <trkpt lat="46.15896" lon="6.61827">
        <ele>1194.2</ele>
        <time>2021-12-15T14:05:26Z</time>
      </trkpt>
      <trkpt lat="46.1589" lon="6.61829">
        <ele>1192.1</ele>
        <time>2021-12-15T14:05:27Z</time>
      </trkpt>
      <trkpt lat="46.15874" lon="6.61823">
        <ele>1193.7</ele>
        <time>2021-12-15T14:05:30Z</time>
      </trkpt>
      <trkpt lat="46.1586" lon="6.6181">
        <ele>1193.2</ele>
        <time>2021-12-15T14:05:33Z</time>
      </trkpt>
      <trkpt lat="46.15853" lon="6.61809">
        <ele>1195.2</ele>
        <time>2021-12-15T14:05:34Z</time>
      </trkpt>
      <trkpt lat="46.15847" lon="6.61806">
        <ele>1196.7</ele>
        <time>2021-12-15T14:05:35Z</time>
      </trkpt>
      <trkpt lat="46.15843" lon="6.61802">
        <ele>1196.5</ele>
        <time>2021-12-15T14:05:36Z</time>
      </trkpt>
      <trkpt lat="46.15835" lon="6.61801">
        <ele>1195</ele>
        <time>2021-12-15T14:05:38Z</time>
      </trkpt>
      <trkpt lat="46.15832" lon="6.61796">
        <ele>1192</ele>
        <time>2021-12-15T14:05:39Z</time>
      </trkpt>
      <trkpt lat="46.15823" lon="6.61791">
        <ele>1196.4</ele>
        <time>2021-12-15T14:05:41Z</time>
      </trkpt>
      <trkpt lat="46.15818" lon="6.61785">
        <ele>1194</ele>
        <time>2021-12-15T14:05:43Z</time>
      </trkpt>
      <trkpt lat="46.15812" lon="6.61782">
        <ele>1195.9</ele>
        <time>2021-12-15T14:05:44Z</time>
      </trkpt>
      <trkpt lat="46.15808" lon="6.61784">
        <ele>1194</ele>
        <time>2021-12-15T14:05:46Z</time>
      </trkpt>
      <trkpt lat="46.15799" lon="6.61782">
        <ele>1199.2</ele>
        <time>2021-12-15T14:05:47Z</time>
      </trkpt>
      <trkpt lat="46.15795" lon="6.61783">
        <ele>1200.4</ele>
        <time>2021-12-15T14:05:48Z</time>
      </trkpt>
      <trkpt lat="46.15789" lon="6.61775">
        <ele>1199.6</ele>
        <time>2021-12-15T14:05:51Z</time>
      </trkpt>
      <trkpt lat="46.15782" lon="6.61772">
        <ele>1203.8</ele>
        <time>2021-12-15T14:05:52Z</time>
      </trkpt>
      <trkpt lat="46.15779" lon="6.61774">
        <ele>1203.7</ele>
        <time>2021-12-15T14:05:53Z</time>
      </trkpt>
      <trkpt lat="46.15786" lon="6.61773">
        <ele>1201</ele>
        <time>2021-12-15T14:05:55Z</time>
      </trkpt>
      <trkpt lat="46.15784" lon="6.61769">
        <ele>1202.7</ele>
        <time>2021-12-15T14:05:57Z</time>
      </trkpt>
      <trkpt lat="46.15777" lon="6.61764">
        <ele>1200.9</ele>
        <time>2021-12-15T14:05:58Z</time>
      </trkpt>
      <trkpt lat="46.15775" lon="6.61772">
        <ele>1190</ele>
        <time>2021-12-15T14:06:01Z</time>
      </trkpt>
      <trkpt lat="46.15768" lon="6.61782">
        <ele>1193.3</ele>
        <time>2021-12-15T14:06:05Z</time>
      </trkpt>
      <trkpt lat="46.15765" lon="6.61784">
        <ele>1195.6</ele>
        <time>2021-12-15T14:06:06Z</time>
      </trkpt>
      <trkpt lat="46.15764" lon="6.6178">
        <ele>1195.6</ele>
        <time>2021-12-15T14:06:07Z</time>
      </trkpt>
      <trkpt lat="46.15755" lon="6.61781">
        <ele>1195</ele>
        <time>2021-12-15T14:06:11Z</time>
      </trkpt>
      <trkpt lat="46.15751" lon="6.61784">
        <ele>1192.2</ele>
        <time>2021-12-15T14:06:15Z</time>
      </trkpt>
      <trkpt lat="46.15713" lon="6.61773">
        <ele>1197.2</ele>
        <time>2021-12-15T14:06:24Z</time>
      </trkpt>
      <trkpt lat="46.15686" lon="6.61771">
        <ele>1194.1</ele>
        <time>2021-12-15T14:06:26Z</time>
      </trkpt>
      <trkpt lat="46.15676" lon="6.61765">
        <ele>1193.4</ele>
        <time>2021-12-15T14:06:27Z</time>
      </trkpt>
      <trkpt lat="46.15655" lon="6.61761">
        <ele>1188</ele>
        <time>2021-12-15T14:06:31Z</time>
      </trkpt>
      <trkpt lat="46.1565" lon="6.61763">
        <ele>1185</ele>
        <time>2021-12-15T14:06:33Z</time>
      </trkpt>
      <trkpt lat="46.15635" lon="6.61762">
        <ele>1186.5</ele>
        <time>2021-12-15T14:06:36Z</time>
      </trkpt>
      <trkpt lat="46.15628" lon="6.61759">
        <ele>1186.8</ele>
        <time>2021-12-15T14:06:38Z</time>
      </trkpt>
      <trkpt lat="46.15625" lon="6.61761">
        <ele>1186.8</ele>
        <time>2021-12-15T14:06:39Z</time>
      </trkpt>
      <trkpt lat="46.15604" lon="6.61762">
        <ele>1185</ele>
        <time>2021-12-15T14:06:44Z</time>
      </trkpt>
      <trkpt lat="46.15593" lon="6.61758">
        <ele>1185.7</ele>
        <time>2021-12-15T14:06:46Z</time>
      </trkpt>
      <trkpt lat="46.1558" lon="6.61755">
        <ele>1183</ele>
        <time>2021-12-15T14:06:54Z</time>
      </trkpt>
      <trkpt lat="46.15583" lon="6.61753">
        <ele>1185</ele>
        <time>2021-12-15T14:07:04Z</time>
      </trkpt>
      <trkpt lat="46.15581" lon="6.61755">
        <ele>1180</ele>
        <time>2021-12-15T14:07:12Z</time>
      </trkpt>
      <trkpt lat="46.15579" lon="6.61746">
        <ele>1176</ele>
        <time>2021-12-15T14:07:38Z</time>
      </trkpt>
      <trkpt lat="46.15572" lon="6.6175">
        <ele>1184.9</ele>
        <time>2021-12-15T14:07:57Z</time>
      </trkpt>
      <trkpt lat="46.15568" lon="6.61749">
        <ele>1183</ele>
        <time>2021-12-15T14:07:59Z</time>
      </trkpt>
      <trkpt lat="46.15566" lon="6.61746">
        <ele>1183</ele>
        <time>2021-12-15T14:08:02Z</time>
      </trkpt>
      <trkpt lat="46.1556" lon="6.61741">
        <ele>1187.2</ele>
        <time>2021-12-15T14:08:07Z</time>
      </trkpt>
      <trkpt lat="46.15554" lon="6.61738">
        <ele>1186</ele>
        <time>2021-12-15T14:08:11Z</time>
      </trkpt>
      <trkpt lat="46.15549" lon="6.61733">
        <ele>1184</ele>
        <time>2021-12-15T14:08:17Z</time>
      </trkpt>
      <trkpt lat="46.15536" lon="6.61727">
        <ele>1183</ele>
        <time>2021-12-15T14:08:31Z</time>
      </trkpt>
      <trkpt lat="46.15532" lon="6.61727">
        <ele>1181</ele>
        <time>2021-12-15T14:08:35Z</time>
      </trkpt>
      <trkpt lat="46.15529" lon="6.61722">
        <ele>1189</ele>
        <time>2021-12-15T14:08:41Z</time>
      </trkpt>
      <trkpt lat="46.15531" lon="6.61724">
        <ele>1188</ele>
        <time>2021-12-15T14:08:43Z</time>
      </trkpt>
      <trkpt lat="46.15528" lon="6.61721">
        <ele>1189.8</ele>
        <time>2021-12-15T14:08:45Z</time>
      </trkpt>
      <trkpt lat="46.1553" lon="6.61718">
        <ele>1187</ele>
        <time>2021-12-15T14:08:47Z</time>
      </trkpt>
      <trkpt lat="46.15531" lon="6.61727">
        <ele>1171</ele>
        <time>2021-12-15T14:09:00Z</time>
      </trkpt>
      <trkpt lat="46.15529" lon="6.61725">
        <ele>1183</ele>
        <time>2021-12-15T14:09:10Z</time>
      </trkpt>
      <trkpt lat="46.15527" lon="6.6173">
        <ele>1180</ele>
        <time>2021-12-15T14:09:14Z</time>
      </trkpt>
      <trkpt lat="46.1553" lon="6.61726">
        <ele>1192</ele>
        <time>2021-12-15T14:09:30Z</time>
      </trkpt>
      <trkpt lat="46.15533" lon="6.61728">
        <ele>1184</ele>
        <time>2021-12-15T14:09:40Z</time>
      </trkpt>
      <trkpt lat="46.1553" lon="6.61728">
        <ele>1187.6</ele>
        <time>2021-12-15T14:09:55Z</time>
      </trkpt>
      <trkpt lat="46.15535" lon="6.61725">
        <ele>1183</ele>
        <time>2021-12-15T14:10:29Z</time>
      </trkpt>
      <trkpt lat="46.15529" lon="6.61722">
        <ele>1183</ele>
        <time>2021-12-15T14:10:50Z</time>
      </trkpt>
      <trkpt lat="46.15529" lon="6.61714">
        <ele>1187.5</ele>
        <time>2021-12-15T14:11:16Z</time>
      </trkpt>
      <trkpt lat="46.15531" lon="6.61722">
        <ele>1186.1</ele>
        <time>2021-12-15T14:11:46Z</time>
      </trkpt>
    </trkseg>
  </trk>
</gpx>